[[{"header":{"parameterUnit":"m.s-1","parameterCategory":1,"la1":31.0,"la2":29.5877,"lo1":-88.7671,"lo2":-86.6584,"dy":0.0162,"dx":0.0185,"nx":115,"ny":88,"refTime":"2023-04-19T12:00:00:Z","depth":0,"parameterNumber":2,"parameterNumberName":"U-component_of_WINDS"},"data":[0.0,0.0,0.0,0.0,0.0,0.0,0.0,0.0,0.0,0.0,0.0,0.0,0.0,0.0,0.0,0.0,0.0,0.0,0.0,0.0,0.0,0.0,0.0,0.0,0.0,0.0,0.0,0.0,0.0,0.0,0.0,0.0,0.0,0.0,0.0,0.0,0.0,0.0,0.0,0.0,0.0,0.0,0.0,0.0,0.0,0.0,0.0,0.0,0.0,0.0,0.0,0.0,0.0,0.0,0.0,0.0,0.0,0.0,0.0,0.0,0.0,0.0,0.0,0.0,0.0,0.0,0.0,0.0,0.0,0.0,0.0,0.0,0.0,0.0,0.0,0.0,0.0,0.0,0.0,0.0,0.0,0.0,0.0,0.0,0.0,0.0,0.0,0.0,0.0,0.0,0.0,0.0,0.0,0.0,0.0,0.0,0.0,0.0,0.0,0.0,0.0,0.0,0.0,0.0,0.0,0.0,0.0,0.0,0.0,0.0,0.0,0.0,0.0,0.0,0.0,0.0,0.0,0.0,0.0,0.0,0.0,0.0,0.0,0.0,0.0,0.0,0.0,0.0,0.0,0.0,0.0,0.0,0.0,0.0,0.0,0.0,0.0,0.0,0.0,0.0,0.0,0.0,0.0,0.0,0.0,0.0,0.0,0.0,0.0,0.0,0.0,0.0,0.0,0.0,0.0,0.0,0.0,0.0,0.0,0.0,0.0,0.0,0.0,0.0,0.0,0.0,0.0,0.0,0.0,0.0,0.0,0.0,0.0,0.0,0.0,0.0,0.0,0.0,0.0,0.0,0.0,0.0,0.0,0.0,0.0,0.0,0.0,0.0,0.0,0.0,0.0,0.0,0.0,0.0,0.0,0.0,0.0,0.0,0.0,0.0,0.0,0.0,0.0,0.0,0.0,0.0,0.0,0.0,0.0,0.0,0.0,0.0,0.0,0.0,0.0,0.0,0.0,0.0,0.0,0.0,0.0,0.0,0.0,0.0,0.0,0.0,0.0,0.0,0.0,0.0,0.0,0.0,0.0,0.0,0.0,0.0,0.0,0.0,0.0,0.0,0.0,0.0,0.0,0.0,0.0,0.0,0.0,0.0,0.0,0.0,0.0,0.0,0.0,0.0,0.0,0.0,0.0,0.0,0.0,0.0,0.0,0.0,0.0,0.0,0.0,0.0,0.0,0.0,0.0,0.0,0.0,0.0,0.0,0.0,0.0,0.0,0.0,0.0,0.0,0.0,0.0,0.0,0.0,0.0,0.0,0.0,0.0,0.0,0.0,0.0,0.0,0.0,0.0,0.0,0.0,0.0,0.0,0.0,0.0,0.0,0.0,0.0,0.0,0.0,0.0,0.0,0.0,0.0,0.0,0.0,0.0,0.0,0.0,0.0,0.0,0.0,0.0,0.0,0.0,0.0,0.0,0.0,0.0,0.0,0.0,0.0,0.0,0.0,0.0,0.0,0.0,0.0,0.0,0.0,0.0,0.0,0.0,0.0,0.0,0.0,0.0,0.0,0.0,0.0,0.0,0.0,0.0,0.0,0.0,0.0,0.0,0.0,0.0,0.0,0.0,0.0,0.0,0.0,0.0,0.0,0.0,0.0,0.0,0.0,0.0,0.0,0.0,0.0,0.0,0.0,0.0,0.0,0.0,0.0,0.0,0.0,0.0,0.0,0.0,0.0,0.0,0.0,0.0,0.0,0.0,0.0,0.0,0.0,0.0,0.0,0.0,0.0,0.0,0.0,0.0,0.0,0.0,0.0,0.0,0.0,0.0,0.0,0.0,0.0,0.0,0.0,0.0,0.0,0.0,0.0,0.0,0.0,0.0,0.0,0.0,0.0,0.0,0.0,0.0,0.0,0.0,0.0,0.0,0.0,0.0,0.0,0.0,0.0,0.0,0.0,0.0,0.0,0.0,0.0,0.0,0.0,0.0,0.0,0.0,0.0,0.0,0.0,0.0,0.0,0.0,0.0,0.0,0.0,0.0,0.0,0.0,0.0,0.0,0.0,0.0,0.0,0.0,0.0,0.0,0.0,0.0,0.0,0.0,0.0,0.0,0.0,0.0,0.0,0.0,0.0,0.0,0.0,0.0,0.0,0.0,0.0,0.0,0.0,0.0,0.0,0.0,0.0,0.0,0.0,0.0,0.0,0.0,0.0,0.0,0.0,0.0,0.0,0.0,0.0,0.0,0.0,0.0,0.0,0.0,0.0,0.0,0.0,0.0,0.0,0.0,0.0,0.0,0.0,0.0,0.0,0.0,0.0,0.0,0.0,0.0,0.0,0.0,0.0,0.0,0.0,0.0,0.0,0.0,0.0,0.0,0.0,0.0,0.0,0.0,0.0,0.0,0.0,0.0,0.0,0.0,0.0,0.0,0.0,0.0,0.0,0.0,0.0,0.0,0.0,0.0,0.0,0.0,0.0,0.0,0.0,0.0,0.0,0.0,0.0,0.0,0.0,0.0,0.0,0.0,0.0,0.0,0.0,0.0,0.0,0.0,0.0,0.0,0.0,0.0,0.0,0.0,0.0,0.0,0.0,0.0,0.0,0.0,0.0,0.0,0.0,0.0,0.0,0.0,0.0,0.0,0.0,0.0,0.0,0.0,0.0,0.0,0.0,0.0,0.0,0.0,0.0,0.0,0.0,0.0,0.0,0.0,0.0,0.0,0.0,0.0,0.0,0.0,0.0,0.0,0.0,0.0,0.0,0.0,0.0,0.0,0.0,0.0,0.0,0.0,0.0,0.0,0.0,0.0,0.0,0.0,0.0,0.0,0.0,0.0,0.0,0.0,0.0,0.0,0.0,0.0,0.0,0.0,0.0,0.0,0.0,0.0,0.0,0.0,0.0,0.0,0.0,0.0,0.0,0.0,0.0,0.0,0.0,0.0,0.0,0.0,0.0,0.0,0.0,0.0,0.0,0.0,0.0,0.0,0.0,0.0,0.0,0.0,0.0,0.0,0.0,0.0,0.0,0.0,0.0,0.0,0.0,0.0,0.0,0.0,0.0,0.0,0.0,0.0,0.0,0.0,0.0,0.0,0.0,0.0,0.0,0.0,0.0,0.0,0.0,0.0,0.0,0.0,0.0,0.0,0.0,0.0,0.0,0.0,0.0,0.0,0.0,0.0,0.0,0.0,0.0,0.0,0.0,0.0,0.0,0.0,0.0,0.0,0.0,0.0,0.0,0.0,0.0,0.0,0.0,0.0,0.0,0.0,0.0,0.0,0.0,0.0,0.0,0.0,0.0,0.0,0.0,0.0,0.0,0.0,0.0,0.0,0.0,0.0,0.0,0.0,0.0,0.0,0.0,0.0,0.0,0.0,0.0,0.0,0.0,0.0,0.0,0.0,0.0,0.0,0.0,0.0,0.0,0.0,0.0,0.0,0.0,0.0,0.0,0.0,0.0,0.0,0.0,0.0,0.0,0.0,0.0,0.0,0.0,0.0,0.0,0.0,0.0,0.0,0.0,0.0,0.0,0.0,0.0,0.0,0.0,0.0,0.0,0.0,0.0,0.0,0.0,0.0,0.0,0.0,0.0,0.0,0.0,0.0,0.0,0.0,0.0,0.0,0.0,0.0,0.0,0.0,0.0,0.0,0.0,0.0,0.0,0.0,0.0,0.0,0.0,0.0,0.0,0.0,0.0,0.0,0.0,0.0,0.0,0.0,0.0,0.0,0.0,0.0,0.0,0.0,0.0,0.0,0.0,0.0,0.0,0.0,0.0,0.0,0.0,0.0,0.0,0.0,0.0,0.0,0.0,0.0,0.0,0.0,0.0,0.0,0.0,0.0,0.0,0.0,0.0,0.0,0.0,0.0,0.0,0.0,0.0,0.0,0.0,0.0,0.0,0.0,0.0,0.0,0.0,0.0,0.0,0.0,0.0,0.0,0.0,0.0,0.0,0.0,0.0,0.0,0.0,0.0,0.0,0.0,0.0,0.0,0.0,0.0,0.0,0.0,0.0,0.0,0.0,0.0,0.0,0.0,0.0,0.0,0.0,0.0,0.0,0.0,0.0,0.0,0.0,0.0,0.0,0.0,0.0,0.0,0.0,0.0,0.0,0.0,0.0,0.0,0.0,0.0,0.0,0.0,0.0,0.0,0.0,0.0,0.0,0.0,0.0,0.0,0.0,0.0,0.0,0.0,0.0,0.0,0.0,0.0,0.0,0.0,0.0,0.0,0.0,0.0,0.0,0.0,0.0,0.0,0.0,0.0,0.0,0.0,0.0,0.0,0.0,0.0,0.0,0.0,0.0,0.0,0.0,0.0,0.0,3.8699,0.0,0.0,0.0,0.0,0.0,0.0,0.0,0.0,0.0,0.0,0.0,0.0,0.0,0.0,0.0,0.0,0.0,0.0,0.0,0.0,0.0,0.0,0.0,0.0,0.0,0.0,0.0,0.0,0.0,0.0,0.0,0.0,0.0,0.0,0.0,0.0,0.0,0.0,0.0,0.0,0.0,0.0,0.0,0.0,0.0,0.0,0.0,0.0,0.0,0.0,0.0,0.0,0.0,0.0,0.0,0.0,0.0,0.0,0.0,0.0,0.0,0.0,0.0,0.0,0.0,0.0,0.0,0.0,0.0,0.0,0.0,0.0,0.0,0.0,0.0,0.0,0.0,0.0,0.0,0.0,0.0,0.0,0.0,0.0,0.0,0.0,0.0,0.0,0.0,0.0,0.0,0.0,0.0,0.0,0.0,0.0,0.0,0.0,0.0,0.0,0.0,0.0,0.0,0.0,0.0,0.0,0.0,0.0,0.0,0.0,3.8699,3.8699,3.8699,3.8699,3.8699,0.0,0.0,0.0,0.0,0.0,0.0,0.0,0.0,0.0,0.0,0.0,0.0,0.0,0.0,0.0,0.0,0.0,0.0,0.0,0.0,0.0,0.0,0.0,0.0,0.0,0.0,0.0,0.0,0.0,0.0,0.0,0.0,0.0,0.0,0.0,0.0,0.0,0.0,0.0,0.0,0.0,0.0,0.0,0.0,0.0,0.0,0.0,0.0,0.0,0.0,0.0,0.0,0.0,0.0,0.0,0.0,0.0,0.0,0.0,0.0,0.0,0.0,0.0,0.0,0.0,0.0,0.0,0.0,0.0,0.0,0.0,0.0,0.0,0.0,0.0,0.0,0.0,0.0,0.0,0.0,0.0,0.0,0.0,0.0,0.0,0.0,0.0,0.0,0.0,0.0,0.0,0.0,0.0,0.0,0.0,0.0,0.0,0.0,0.0,0.0,0.0,0.0,0.0,0.0,0.0,0.0,0.0,0.0,0.0,0.0,0.0,0.0,3.8699,3.8699,3.8699,0.0,0.0,0.0,0.0,0.0,0.0,0.0,0.0,0.0,0.0,0.0,0.0,0.0,0.0,0.0,0.0,0.0,0.0,0.0,0.0,0.0,0.0,0.0,0.0,0.0,0.0,0.0,0.0,0.0,0.0,0.0,0.0,0.0,0.0,0.0,0.0,0.0,0.0,0.0,0.0,0.0,0.0,0.0,0.0,0.0,0.0,0.0,0.0,0.0,0.0,0.0,0.0,0.0,0.0,0.0,0.0,0.0,0.0,0.0,0.0,0.0,0.0,0.0,0.0,0.0,0.0,0.0,0.0,0.0,0.0,0.0,0.0,0.0,0.0,0.0,0.0,0.0,0.0,0.0,0.0,0.0,0.0,0.0,0.0,0.0,0.0,0.0,0.0,0.0,0.0,0.0,0.0,0.0,0.0,0.0,0.0,0.0,0.0,0.0,0.0,0.0,0.0,0.0,0.0,0.0,0.0,0.0,0.0,0.0,0.0,3.8699,3.8699,3.8699,0.0,3.8699,0.0,0.0,0.0,0.0,0.0,0.0,0.0,0.0,0.0,0.0,0.0,0.0,0.0,0.0,0.0,0.0,0.0,0.0,0.0,0.0,0.0,0.0,0.0,0.0,0.0,0.0,0.0,0.0,0.0,0.0,0.0,0.0,0.0,0.0,0.0,0.0,0.0,0.0,0.0,0.0,0.0,0.0,0.0,0.0,0.0,0.0,0.0,0.0,0.0,0.0,0.0,0.0,0.0,0.0,0.0,0.0,0.0,0.0,0.0,0.0,0.0,0.0,0.0,0.0,0.0,0.0,0.0,0.0,0.0,0.0,0.0,0.0,0.0,0.0,0.0,0.0,0.0,0.0,0.0,0.0,0.0,0.0,0.0,0.0,0.0,0.0,0.0,0.0,0.0,0.0,0.0,0.0,0.0,0.0,0.0,0.0,0.0,0.0,0.0,0.0,0.0,0.0,0.0,0.0,0.0,0.0,0.0,0.0,0.0,0.0,3.8699,3.8699,3.8699,3.8699,0.0,0.0,0.0,0.0,0.0,0.0,0.0,0.0,0.0,0.0,0.0,0.0,0.0,0.0,0.0,0.0,0.0,0.0,0.0,0.0,0.0,0.0,0.0,0.0,0.0,0.0,0.0,0.0,0.0,0.0,0.0,0.0,0.0,0.0,0.0,0.0,0.0,0.0,0.0,0.0,0.0,0.0,0.0,0.0,0.0,0.0,0.0,0.0,0.0,0.0,0.0,0.0,0.0,0.0,0.0,0.0,0.0,0.0,0.0,0.0,0.0,0.0,0.0,0.0,0.0,0.0,0.0,0.0,0.0,0.0,0.0,0.0,0.0,0.0,0.0,0.0,0.0,0.0,0.0,0.0,0.0,0.0,0.0,0.0,0.0,0.0,0.0,0.0,0.0,0.0,0.0,0.0,0.0,0.0,0.0,0.0,0.0,0.0,0.0,0.0,0.0,0.0,0.0,0.0,0.0,0.0,0.0,0.0,0.0,0.0,3.936,3.936,3.936,3.936,3.936,3.9378,0.0,0.0,0.0,0.0,0.0,0.0,0.0,0.0,0.0,0.0,0.0,0.0,0.0,0.0,0.0,0.0,0.0,0.0,0.0,0.0,0.0,0.0,0.0,0.0,0.0,0.0,0.0,0.0,0.0,0.0,0.0,0.0,0.0,0.0,0.0,0.0,0.0,0.0,0.0,0.0,0.0,0.0,0.0,0.0,0.0,0.0,0.0,0.0,0.0,0.0,0.0,0.0,0.0,0.0,0.0,0.0,0.0,0.0,0.0,0.0,0.0,0.0,0.0,0.0,0.0,0.0,0.0,0.0,0.0,0.0,0.0,0.0,0.0,0.0,0.0,0.0,0.0,0.0,0.0,0.0,0.0,0.0,0.0,0.0,0.0,0.0,0.0,0.0,0.0,0.0,0.0,0.0,0.0,0.0,0.0,0.0,0.0,0.0,0.0,0.0,0.0,0.0,0.0,0.0,0.0,0.0,0.0,0.0,4.0985,4.0967,4.0985,4.0956,4.0993,4.0985,0.0,0.0,0.0,0.0,0.0,0.0,0.0,0.0,0.0,0.0,0.0,0.0,0.0,0.0,0.0,0.0,0.0,0.0,0.0,0.0,0.0,0.0,0.0,0.0,0.0,0.0,0.0,0.0,0.0,0.0,0.0,0.0,0.0,0.0,0.0,0.0,0.0,0.0,0.0,0.0,0.0,0.0,0.0,0.0,0.0,0.0,0.0,0.0,0.0,0.0,0.0,0.0,0.0,0.0,0.0,0.0,0.0,0.0,0.0,0.0,0.0,0.0,0.0,0.0,0.0,0.0,0.0,0.0,0.0,0.0,0.0,0.0,0.0,0.0,0.0,0.0,0.0,0.0,0.0,0.0,0.0,0.0,0.0,0.0,0.0,0.0,0.0,0.0,0.0,0.0,0.0,0.0,0.0,0.0,0.0,0.0,0.0,0.0,0.0,0.0,0.0,0.0,0.0,0.0,0.0,0.0,0.0,0.0,0.0,4.1113,4.1113,4.1113,4.1113,4.1113,4.1052,0.0,0.0,0.0,0.0,0.0,0.0,0.0,0.0,0.0,0.0,0.0,0.0,0.0,0.0,0.0,0.0,0.0,0.0,0.0,0.0,0.0,0.0,0.0,0.0,0.0,0.0,0.0,0.0,0.0,0.0,0.0,0.0,0.0,0.0,0.0,0.0,0.0,0.0,0.0,0.0,0.0,0.0,0.0,0.0,0.0,0.0,0.0,0.0,0.0,0.0,0.0,0.0,0.0,0.0,0.0,0.0,0.0,0.0,0.0,0.0,0.0,0.0,0.0,0.0,0.0,0.0,0.0,0.0,0.0,0.0,0.0,0.0,0.0,0.0,0.0,0.0,0.0,0.0,0.0,0.0,0.0,0.0,0.0,0.0,0.0,0.0,0.0,0.0,0.0,0.0,0.0,0.0,0.0,0.0,0.0,0.0,0.0,0.0,0.0,0.0,0.0,0.0,0.0,0.0,0.0,0.0,0.0,0.0,0.0,4.1882,0.0,4.1874,4.1874,4.1849,4.1799,0.0,0.0,0.0,0.0,0.0,0.0,0.0,0.0,0.0,0.0,0.0,0.0,0.0,0.0,0.0,0.0,0.0,0.0,0.0,0.0,0.0,0.0,0.0,0.0,0.0,0.0,0.0,0.0,0.0,0.0,0.0,0.0,0.0,0.0,0.0,0.0,0.0,0.0,0.0,0.0,0.0,0.0,0.0,0.0,0.0,0.0,0.0,0.0,0.0,0.0,0.0,0.0,0.0,0.0,0.0,0.0,0.0,0.0,0.0,0.0,0.0,0.0,0.0,0.0,0.0,0.0,0.0,0.0,0.0,0.0,0.0,0.0,0.0,0.0,0.0,0.0,0.0,0.0,0.0,0.0,0.0,0.0,0.0,0.0,0.0,0.0,0.0,0.0,0.0,0.0,0.0,0.0,0.0,0.0,0.0,0.0,0.0,0.0,0.0,0.0,0.0,0.0,0.0,0.0,0.0,0.0,0.0,0.0,4.3451,4.3469,4.3451,4.3396,4.3461,4.3364,4.3348,0.0,0.0,0.0,0.0,0.0,0.0,0.0,0.0,0.0,0.0,0.0,0.0,0.0,0.0,0.0,0.0,0.0,0.0,0.0,0.0,0.0,0.0,0.0,0.0,0.0,0.0,0.0,0.0,0.0,0.0,0.0,0.0,0.0,0.0,0.0,0.0,0.0,0.0,0.0,0.0,0.0,0.0,0.0,0.0,0.0,0.0,0.0,0.0,0.0,0.0,0.0,0.0,0.0,0.0,0.0,0.0,0.0,0.0,0.0,0.0,0.0,0.0,0.0,0.0,0.0,0.0,0.0,0.0,0.0,0.0,0.0,0.0,0.0,0.0,0.0,0.0,0.0,0.0,0.0,0.0,0.0,0.0,0.0,0.0,0.0,0.0,0.0,0.0,0.0,0.0,0.0,0.0,0.0,0.0,0.0,0.0,0.0,0.0,0.0,0.0,0.0,0.0,0.0,0.0,0.0,0.0,0.0,0.0,0.0,4.3488,4.3488,4.3488,4.3488,4.3437,4.3349,0.0,0.0,0.0,0.0,0.0,0.0,0.0,0.0,0.0,0.0,0.0,0.0,0.0,0.0,0.0,0.0,0.0,0.0,0.0,0.0,0.0,0.0,0.0,0.0,0.0,0.0,0.0,0.0,0.0,0.0,0.0,0.0,0.0,0.0,0.0,0.0,0.0,0.0,0.0,0.0,0.0,0.0,0.0,0.0,0.0,0.0,0.0,0.0,0.0,0.0,0.0,0.0,0.0,0.0,0.0,0.0,0.0,0.0,0.0,0.0,0.0,0.0,0.0,0.0,0.0,0.0,0.0,0.0,0.0,0.0,0.0,0.0,0.0,0.0,0.0,0.0,0.0,0.0,0.0,0.0,0.0,0.0,0.0,0.0,0.0,0.0,0.0,0.0,0.0,0.0,0.0,0.0,0.0,0.0,0.0,0.0,0.0,0.0,0.0,0.0,0.0,0.0,0.0,0.0,0.0,0.0,0.0,0.0,0.0,4.3402,4.3444,4.3489,4.3454,4.3376,4.3278,4.3151,0.0,0.0,0.0,0.0,0.0,0.0,0.0,0.0,0.0,0.0,0.0,0.0,0.0,0.0,0.0,0.0,0.0,0.0,0.0,0.0,0.0,0.0,0.0,0.0,0.0,0.0,0.0,0.0,0.0,0.0,0.0,0.0,0.0,0.0,0.0,0.0,0.0,0.0,0.0,0.0,0.0,0.0,0.0,0.0,0.0,0.0,0.0,0.0,0.0,0.0,0.0,0.0,0.0,0.0,0.0,0.0,0.0,0.0,0.0,0.0,0.0,0.0,0.0,0.0,0.0,0.0,0.0,0.0,0.0,0.0,0.0,0.0,0.0,0.0,0.0,0.0,0.0,0.0,0.0,0.0,0.0,0.0,0.0,0.0,0.0,0.0,0.0,0.0,0.0,0.0,0.0,0.0,0.0,0.0,0.0,0.0,0.0,0.0,0.0,0.0,0.0,0.0,0.0,0.0,0.0,0.0,0.0,0.0,4.3205,4.3393,4.3445,4.3376,4.3278,4.316,0.0,0.0,0.0,0.0,0.0,0.0,0.0,0.0,0.0,0.0,0.0,0.0,0.0,0.0,0.0,0.0,0.0,0.0,0.0,0.0,0.0,0.0,0.0,0.0,0.0,0.0,0.0,0.0,0.0,0.0,0.0,0.0,0.0,0.0,0.0,0.0,0.0,0.0,0.0,0.0,0.0,0.0,0.0,0.0,0.0,0.0,0.0,0.0,0.0,0.0,0.0,0.0,0.0,0.0,0.0,0.0,0.0,0.0,0.0,0.0,0.0,0.0,0.0,0.0,0.0,0.0,0.0,0.0,0.0,0.0,0.0,0.0,0.0,0.0,0.0,0.0,0.0,0.0,0.0,0.0,0.0,0.0,0.0,0.0,0.0,0.0,0.0,0.0,0.0,0.0,0.0,0.0,0.0,0.0,0.0,0.0,0.0,0.0,0.0,0.0,0.0,0.0,0.0,0.0,0.0,0.0,0.0,0.0,0.0,4.3205,4.326,4.3259,4.3251,4.3169,4.3123,0.0,0.0,0.0,0.0,0.0,0.0,0.0,0.0,0.0,0.0,0.0,0.0,0.0,0.0,0.0,0.0,0.0,0.0,0.0,0.0,0.0,0.0,0.0,0.0,0.0,0.0,0.0,0.0,0.0,0.0,0.0,0.0,0.0,0.0,0.0,0.0,0.0,0.0,0.0,0.0,0.0,0.0,0.0,0.0,0.0,0.0,0.0,0.0,0.0,0.0,0.0,0.0,0.0,0.0,0.0,0.0,0.0,0.0,0.0,0.0,0.0,0.0,0.0,0.0,0.0,0.0,0.0,0.0,0.0,0.0,0.0,0.0,0.0,0.0,0.0,0.0,0.0,0.0,0.0,0.0,0.0,0.0,0.0,0.0,0.0,0.0,0.0,0.0,0.0,0.0,0.0,0.0,0.0,0.0,0.0,0.0,0.0,0.0,0.0,0.0,0.0,0.0,0.0,0.0,0.0,0.0,0.0,0.0,4.3031,4.3068,4.3078,4.3078,4.3078,4.3095,4.3077,0.0,0.0,0.0,0.0,0.0,0.0,0.0,0.0,0.0,0.0,0.0,0.0,0.0,0.0,0.0,0.0,0.0,0.0,0.0,0.0,0.0,0.0,0.0,0.0,0.0,0.0,0.0,0.0,0.0,0.0,0.0,0.0,0.0,0.0,0.0,0.0,0.0,0.0,0.0,0.0,0.0,0.0,0.0,0.0,0.0,0.0,0.0,0.0,0.0,0.0,0.0,0.0,0.0,0.0,0.0,0.0,0.0,0.0,0.0,0.0,0.0,0.0,0.0,0.0,0.0,0.0,0.0,0.0,0.0,0.0,0.0,0.0,0.0,0.0,0.0,0.0,0.0,0.0,0.0,0.0,0.0,0.0,0.0,0.0,0.0,0.0,0.0,0.0,0.0,0.0,0.0,0.0,0.0,0.0,0.0,0.0,0.0,0.0,0.0,0.0,0.0,0.0,0.0,0.0,0.0,0.0,0.0,0.0,4.3145,4.3145,4.3145,4.3163,4.3145,4.3094,4.303,0.0,0.0,0.0,0.0,0.0,0.0,0.0,0.0,0.0,0.0,0.0,0.0,0.0,0.0,0.0,0.0,0.0,0.0,0.0,0.0,0.0,0.0,0.0,0.0,0.0,0.0,0.0,0.0,0.0,0.0,0.0,0.0,0.0,0.0,0.0,0.0,0.0,0.0,0.0,0.0,0.0,0.0,0.0,0.0,0.0,0.0,0.0,0.0,0.0,0.0,0.0,0.0,0.0,0.0,0.0,0.0,0.0,0.0,0.0,0.0,0.0,0.0,0.0,0.0,0.0,0.0,0.0,0.0,0.0,0.0,0.0,0.0,0.0,0.0,0.0,0.0,0.0,0.0,0.0,0.0,0.0,0.0,0.0,0.0,0.0,0.0,0.0,0.0,0.0,0.0,0.0,0.0,0.0,0.0,0.0,0.0,0.0,0.0,0.0,0.0,0.0,0.0,0.0,0.0,0.0,0.0,0.0,0.0,4.4793,4.4784,4.4784,4.4784,4.4784,4.3599,4.2929,0.0,0.0,0.0,0.0,0.0,0.0,0.0,0.0,0.0,0.0,0.0,0.0,0.0,0.0,0.0,0.0,0.0,0.0,0.0,0.0,0.0,0.0,0.0,0.0,0.0,0.0,0.0,0.0,0.0,0.0,0.0,0.0,0.0,0.0,0.0,0.0,0.0,0.0,0.0,0.0,0.0,0.0,0.0,0.0,0.0,0.0,0.0,0.0,4.2375,0.0,0.0,0.0,0.0,0.0,0.0,0.0,0.0,0.0,0.0,0.0,0.0,0.0,0.0,0.0,0.0,0.0,0.0,0.0,0.0,0.0,0.0,0.0,0.0,0.0,0.0,0.0,0.0,0.0,0.0,0.0,0.0,0.0,0.0,0.0,0.0,0.0,0.0,0.0,0.0,0.0,0.0,0.0,0.0,0.0,0.0,0.0,0.0,0.0,0.0,0.0,0.0,0.0,0.0,0.0,0.0,0.0,0.0,0.0,4.5168,4.5176,4.5157,4.5157,4.5121,4.4345,4.3763,0.0,0.0,0.0,0.0,0.0,0.0,0.0,0.0,0.0,0.0,0.0,0.0,0.0,0.0,0.0,0.0,0.0,0.0,0.0,0.0,0.0,0.0,0.0,0.0,0.0,0.0,0.0,0.0,0.0,0.0,0.0,0.0,0.0,0.0,0.0,0.0,0.0,0.0,0.0,0.0,0.0,0.0,0.0,0.0,0.0,0.0,0.0,0.0,0.0,0.0,0.0,0.0,0.0,0.0,0.0,0.0,0.0,0.0,0.0,0.0,0.0,0.0,0.0,0.0,0.0,0.0,0.0,0.0,0.0,0.0,0.0,0.0,0.0,0.0,0.0,0.0,0.0,0.0,0.0,0.0,0.0,0.0,0.0,0.0,0.0,0.0,0.0,0.0,0.0,0.0,0.0,0.0,0.0,0.0,0.0,0.0,0.0,0.0,0.0,0.0,0.0,0.0,0.0,0.0,0.0,0.0,0.0,4.5355,4.5339,4.5328,4.5318,4.5307,4.5289,4.5328,4.5027,4.4433,0.0,0.0,0.0,0.0,0.0,0.0,0.0,0.0,0.0,0.0,0.0,0.0,0.0,0.0,0.0,0.0,0.0,0.0,0.0,0.0,0.0,0.0,0.0,0.0,0.0,0.0,0.0,0.0,0.0,0.0,0.0,0.0,0.0,0.0,0.0,0.0,0.0,0.0,4.0845,4.1461,0.0,0.0,0.0,0.0,0.0,0.0,0.0,0.0,4.3181,0.0,0.0,0.0,0.0,0.0,0.0,0.0,0.0,0.0,0.0,0.0,0.0,0.0,0.0,0.0,0.0,0.0,0.0,0.0,0.0,0.0,0.0,0.0,0.0,0.0,0.0,0.0,0.0,0.0,0.0,0.0,0.0,0.0,0.0,0.0,0.0,0.0,0.0,0.0,0.0,0.0,0.0,0.0,0.0,0.0,0.0,0.0,0.0,0.0,0.0,0.0,0.0,0.0,0.0,0.0,0.0,4.6928,4.6855,4.6853,4.6835,4.6747,4.6673,4.6673,4.6791,4.6481,4.5688,0.0,0.0,0.0,0.0,0.0,0.0,0.0,0.0,0.0,0.0,0.0,0.0,0.0,0.0,0.0,0.0,0.0,0.0,0.0,0.0,0.0,0.0,0.0,0.0,0.0,0.0,0.0,0.0,0.0,0.0,0.0,0.0,0.0,0.0,0.0,0.0,0.0,0.0,0.0,4.262,4.2747,0.0,0.0,0.0,0.0,0.0,0.0,0.0,0.0,4.491,0.0,0.0,0.0,0.0,0.0,0.0,0.0,0.0,0.0,0.0,0.0,0.0,0.0,0.0,0.0,0.0,0.0,0.0,0.0,0.0,0.0,0.0,0.0,0.0,0.0,0.0,0.0,0.0,0.0,0.0,0.0,0.0,0.0,0.0,0.0,0.0,0.0,0.0,0.0,0.0,0.0,0.0,0.0,0.0,0.0,0.0,0.0,0.0,0.0,0.0,0.0,0.0,0.0,0.0,0.0,4.7125,4.7054,4.6922,4.6778,4.6725,4.6684,4.6702,4.6743,4.6675,0.0,0.0,0.0,0.0,0.0,0.0,0.0,0.0,0.0,0.0,0.0,0.0,0.0,0.0,0.0,0.0,0.0,0.0,0.0,0.0,0.0,0.0,0.0,0.0,0.0,0.0,0.0,0.0,0.0,0.0,0.0,0.0,0.0,0.0,0.0,0.0,0.0,0.0,0.0,0.0,4.291,4.3036,4.3453,0.0,0.0,0.0,0.0,0.0,0.0,4.5065,4.5291,0.0,0.0,0.0,0.0,0.0,0.0,0.0,0.0,0.0,0.0,0.0,0.0,0.0,0.0,0.0,0.0,0.0,0.0,0.0,0.0,0.0,0.0,0.0,0.0,0.0,0.0,0.0,0.0,0.0,0.0,0.0,0.0,0.0,0.0,0.0,0.0,0.0,0.0,0.0,0.0,0.0,0.0,0.0,0.0,0.0,0.0,0.0,0.0,0.0,0.0,0.0,0.0,0.0,0.0,0.0,4.694,4.6754,4.6584,4.632,4.6301,4.6289,4.6289,4.632,4.6453,0.0,0.0,0.0,0.0,0.0,0.0,0.0,0.0,0.0,0.0,0.0,0.0,0.0,0.0,0.0,0.0,0.0,0.0,0.0,0.0,0.0,0.0,0.0,0.0,0.0,0.0,0.0,0.0,0.0,0.0,0.0,0.0,0.0,0.0,0.0,0.0,0.0,0.0,0.0,0.0,0.0,4.3435,4.4232,4.4349,0.0,0.0,0.0,0.0,4.5544,4.5671,0.0,0.0,0.0,0.0,0.0,0.0,0.0,0.0,0.0,0.0,0.0,0.0,0.0,0.0,0.0,0.0,0.0,0.0,0.0,0.0,0.0,0.0,0.0,0.0,0.0,0.0,0.0,0.0,0.0,0.0,0.0,0.0,0.0,0.0,0.0,0.0,0.0,0.0,0.0,0.0,0.0,0.0,0.0,0.0,0.0,0.0,0.0,0.0,0.0,0.0,0.0,0.0,0.0,0.0,0.0,0.0,4.6631,4.641,4.6198,4.605,4.5917,4.5854,4.5871,4.6087,4.6235,0.0,0.0,0.0,0.0,0.0,0.0,0.0,0.0,0.0,0.0,0.0,0.0,0.0,0.0,0.0,0.0,0.0,0.0,0.0,0.0,0.0,0.0,0.0,0.0,0.0,0.0,0.0,0.0,0.0,0.0,0.0,0.0,0.0,0.0,0.0,0.0,0.0,0.0,0.0,0.0,0.0,4.4258,4.5037,4.5164,4.5182,0.0,0.0,0.0,4.6377,4.6946,0.0,0.0,0.0,0.0,0.0,0.0,0.0,0.0,0.0,0.0,0.0,0.0,0.0,0.0,0.0,0.0,0.0,0.0,0.0,0.0,0.0,0.0,0.0,0.0,0.0,0.0,0.0,0.0,0.0,0.0,0.0,0.0,0.0,0.0,0.0,0.0,0.0,0.0,0.0,0.0,0.0,0.0,0.0,0.0,0.0,0.0,0.0,0.0,0.0,0.0,0.0,0.0,0.0,0.0,0.0,4.6637,4.6386,4.6094,4.5862,4.5671,4.552,4.5472,4.5441,4.5632,4.5824,0.0,0.0,0.0,0.0,0.0,0.0,0.0,0.0,0.0,0.0,0.0,0.0,0.0,0.0,0.0,0.0,0.0,0.0,0.0,0.0,0.0,0.0,0.0,0.0,0.0,0.0,0.0,0.0,0.0,0.0,0.0,0.0,0.0,0.0,0.0,0.0,0.0,0.0,0.0,0.0,0.0,0.0,4.587,4.5987,0.0,0.0,0.0,4.7192,4.7182,0.0,0.0,0.0,0.0,0.0,0.0,0.0,0.0,0.0,0.0,0.0,0.0,0.0,0.0,0.0,0.0,0.0,0.0,0.0,0.0,0.0,0.0,0.0,0.0,0.0,0.0,0.0,0.0,0.0,0.0,0.0,0.0,0.0,0.0,0.0,0.0,0.0,0.0,0.0,0.0,0.0,0.0,0.0,0.0,0.0,0.0,0.0,0.0,0.0,0.0,0.0,0.0,0.0,0.0,0.0,0.0,0.0,4.6385,4.6312,4.6143,4.5847,4.5743,4.5719,4.5702,4.5864,0.0,0.0,0.0,0.0,0.0,0.0,0.0,0.0,0.0,0.0,0.0,0.0,0.0,0.0,0.0,0.0,0.0,0.0,0.0,0.0,0.0,0.0,0.0,0.0,0.0,0.0,0.0,4.291,0.0,0.0,0.0,0.0,0.0,0.0,0.0,0.0,0.0,0.0,0.0,0.0,0.0,0.0,4.5888,4.6693,4.6964,4.7327,0.0,0.0,4.8297,4.8304,4.8286,4.8304,0.0,0.0,0.0,0.0,0.0,0.0,0.0,0.0,0.0,0.0,0.0,0.0,0.0,0.0,0.0,0.0,0.0,0.0,0.0,0.0,0.0,0.0,0.0,0.0,0.0,0.0,0.0,0.0,0.0,0.0,0.0,0.0,0.0,0.0,0.0,0.0,0.0,0.0,0.0,0.0,0.0,0.0,0.0,0.0,0.0,0.0,0.0,0.0,0.0,0.0,0.0,0.0,0.0,0.0,0.0,4.6882,4.7332,4.7385,4.709,4.7076,4.7062,4.7062,4.7378,4.7531,0.0,0.0,0.0,0.0,0.0,0.0,0.0,0.0,0.0,0.0,0.0,0.0,0.0,0.0,0.0,0.0,0.0,0.0,0.0,0.0,0.0,0.0,0.0,0.0,0.0,0.0,0.0,0.0,0.0,0.0,0.0,0.0,0.0,0.0,0.0,0.0,0.0,0.0,0.0,0.0,0.0,4.6703,4.7508,4.8268,4.8757,0.0,0.0,4.9938,4.9919,4.9919,4.9938,4.9919,0.0,0.0,0.0,0.0,0.0,0.0,0.0,0.0,0.0,0.0,0.0,0.0,0.0,0.0,0.0,0.0,0.0,0.0,0.0,0.0,0.0,0.0,0.0,0.0,0.0,0.0,0.0,0.0,0.0,0.0,0.0,0.0,0.0,0.0,0.0,0.0,0.0,0.0,0.0,0.0,0.0,0.0,0.0,0.0,0.0,0.0,0.0,0.0,0.0,0.0,0.0,0.0,0.0,4.7771,4.7401,4.7389,4.729,4.7072,4.6988,4.6961,4.6961,4.7161,4.7304,0.0,0.0,0.0,0.0,0.0,0.0,0.0,0.0,0.0,0.0,0.0,0.0,0.0,0.0,0.0,0.0,0.0,0.0,0.0,0.0,0.0,0.0,0.0,0.0,0.0,0.0,0.0,0.0,4.4377,4.4395,4.4367,0.0,0.0,0.0,0.0,0.0,0.0,0.0,0.0,0.0,0.0,4.7836,4.8171,4.8892,0.0,0.0,4.9769,5.0012,5.009,5.0101,5.0101,5.0101,5.0101,0.0,0.0,0.0,0.0,0.0,0.0,0.0,0.0,0.0,0.0,0.0,0.0,0.0,0.0,0.0,0.0,0.0,0.0,0.0,0.0,0.0,0.0,0.0,0.0,0.0,0.0,0.0,0.0,0.0,0.0,0.0,0.0,0.0,0.0,0.0,0.0,0.0,0.0,0.0,0.0,0.0,0.0,0.0,0.0,0.0,0.0,0.0,0.0,0.0,0.0,0.0,0.0,4.8286,4.7975,4.7851,4.7722,4.7609,4.7522,4.7462,4.746,4.7594,4.771,0.0,0.0,0.0,0.0,0.0,0.0,0.0,0.0,0.0,0.0,0.0,0.0,0.0,0.0,0.0,0.0,0.0,0.0,0.0,0.0,0.0,0.0,0.0,0.0,0.0,0.0,0.0,0.0,4.522,4.5331,4.5584,0.0,0.0,0.0,0.0,0.0,0.0,0.0,0.0,0.0,0.0,4.8798,4.8798,4.9526,5.0075,5.0185,5.0436,5.0656,5.0728,5.0803,5.0807,5.0807,0.0,0.0,0.0,0.0,0.0,0.0,0.0,0.0,0.0,0.0,0.0,0.0,0.0,0.0,0.0,0.0,0.0,0.0,0.0,0.0,0.0,0.0,0.0,0.0,0.0,0.0,0.0,0.0,0.0,0.0,0.0,0.0,0.0,0.0,0.0,0.0,0.0,0.0,0.0,0.0,0.0,0.0,0.0,0.0,0.0,0.0,0.0,0.0,0.0,0.0,0.0,0.0,0.0,0.0,4.8595,4.8922,4.907,4.8949,4.8951,4.8917,4.8917,4.9072,4.9131,4.9129,0.0,0.0,0.0,0.0,0.0,0.0,0.0,0.0,0.0,0.0,0.0,0.0,0.0,0.0,0.0,0.0,0.0,0.0,0.0,0.0,0.0,0.0,0.0,0.0,0.0,0.0,4.5065,4.5086,4.5462,0.0,0.0,0.0,0.0,0.0,0.0,0.0,0.0,0.0,0.0,4.8964,4.9472,4.9483,5.0282,5.0868,5.0879,5.164,5.2227,5.2191,5.2326,5.2444,0.0,0.0,0.0,0.0,0.0,0.0,0.0,0.0,0.0,0.0,0.0,0.0,0.0,0.0,0.0,0.0,0.0,0.0,0.0,0.0,0.0,0.0,0.0,0.0,0.0,0.0,0.0,4.6388,4.6154,0.0,0.0,0.0,0.0,0.0,0.0,0.0,0.0,0.0,0.0,0.0,4.6687,4.6917,0.0,0.0,0.0,0.0,0.0,0.0,0.0,0.0,0.0,0.0,0.0,0.0,4.9257,4.9022,4.9141,4.9123,4.9001,4.9018,4.9018,4.9018,4.9048,4.9107,4.9199,0.0,0.0,0.0,0.0,0.0,0.0,0.0,0.0,0.0,0.0,0.0,0.0,0.0,0.0,0.0,0.0,0.0,0.0,0.0,0.0,0.0,0.0,0.0,0.0,0.0,4.5904,0.0,0.0,0.0,0.0,0.0,0.0,0.0,0.0,0.0,0.0,0.0,4.8696,4.8696,4.9389,4.9936,5.0034,5.0743,5.1365,0.0,0.0,0.0,0.0,0.0,0.0,0.0,0.0,0.0,0.0,0.0,0.0,0.0,0.0,5.135,5.03,5.0101,5.0101,5.0101,0.0,0.0,0.0,0.0,0.0,0.0,0.0,0.0,0.0,0.0,0.0,0.0,0.0,0.0,0.0,0.0,4.6638,0.0,0.0,0.0,0.0,0.0,0.0,0.0,0.0,4.7326,4.7258,4.7147,4.7388,4.7496,0.0,4.7663,4.787,0.0,0.0,0.0,0.0,0.0,0.0,0.0,0.0,4.9409,4.9197,4.9153,4.9094,4.9018,4.9018,4.9018,4.9018,4.9018,4.9048,4.9123,4.9262,4.9101,0.0,0.0,0.0,0.0,0.0,0.0,0.0,0.0,0.0,0.0,0.0,0.0,0.0,0.0,0.0,0.0,0.0,0.0,0.0,0.0,0.0,0.0,0.0,4.655,0.0,0.0,0.0,0.0,0.0,0.0,0.0,0.0,0.0,4.8301,4.8731,4.908,4.908,4.9775,5.032,5.0458,0.0,0.0,0.0,0.0,0.0,0.0,0.0,5.2329,5.2138,5.2174,5.2252,5.2287,5.2405,5.2498,5.2498,0.0,0.0,5.1133,5.0934,5.0934,5.0934,5.135,5.1713,5.1731,5.2129,5.257,0.0,0.0,0.0,0.0,0.0,0.0,0.0,0.0,4.7276,4.7369,0.0,4.7468,0.0,0.0,0.0,0.0,0.0,0.0,0.0,0.0,4.7261,4.7172,4.7109,4.7776,4.8041,4.7973,4.8494,4.8813,4.8934,4.8575,0.0,0.0,0.0,0.0,0.0,0.0,4.9201,4.9202,4.9114,4.9069,4.9087,4.9054,4.902,4.8987,4.897,4.897,4.9003,4.8986,4.8986,4.8969,4.8969,0.0,0.0,0.0,0.0,0.0,0.0,0.0,0.0,0.0,0.0,0.0,0.0,0.0,0.0,0.0,0.0,0.0,0.0,0.0,0.0,4.6649,0.0,0.0,0.0,0.0,0.0,0.0,0.0,0.0,0.0,0.0,4.89,4.9179,4.9457,4.946,0.0,0.0,0.0,0.0,5.1467,5.2289,5.2542,5.2656,5.279,5.2927,5.2833,5.2269,0.0,0.0,5.2366,5.2495,5.2625,5.2589,5.2643,5.257,5.2589,5.2462,5.2444,5.248,5.2516,5.2534,5.2589,5.2697,5.2896,4.7783,0.0,0.0,0.0,0.0,4.8067,4.7841,4.7426,4.7517,4.7302,4.6913,4.7101,0.0,0.0,0.0,0.0,0.0,0.0,4.8482,4.8313,4.8189,4.8112,4.8082,4.8284,4.8371,4.8339,4.8494,4.8594,4.8642,4.8534,4.8588,4.8834,0.0,0.0,0.0,0.0,4.9238,4.9603,4.9732,4.9986,5.0415,4.991,4.9324,4.8658,4.8642,4.8642,4.8642,4.8642,4.8642,4.8642,4.8785,0.0,0.0,0.0,0.0,0.0,0.0,0.0,0.0,0.0,0.0,0.0,0.0,0.0,0.0,0.0,0.0,0.0,0.0,0.0,4.7755,4.7892,4.8093,0.0,0.0,0.0,0.0,0.0,0.0,0.0,0.0,0.0,5.0367,5.0248,5.03,0.0,0.0,5.1503,5.22,5.2348,5.252,5.2839,0.0,0.0,0.0,5.3393,5.3512,5.3338,5.3555,5.3775,5.3904,5.4086,5.4218,5.4188,5.4218,5.42,5.4164,5.3241,5.2781,5.3204,5.3349,5.3566,5.4074,5.4218,5.4255,4.9077,4.9125,4.8703,4.8499,4.8499,4.8499,4.8295,4.7954,4.7954,4.7749,4.7422,4.7543,4.7603,4.7586,4.7693,0.0,0.0,0.0,4.8753,4.8675,4.8547,4.8499,4.8499,4.8499,4.865,4.8935,4.8854,4.9005,4.9371,4.9289,4.9386,4.9643,0.0,0.0,4.9692,4.9676,4.983,5.0154,5.0284,5.0503,5.0875,5.0439,4.9786,4.8985,4.8935,4.8801,4.8516,4.8499,4.8499,4.8499,4.8611,4.8722,0.0,0.0,0.0,0.0,0.0,0.0,0.0,0.0,0.0,0.0,0.0,4.6747,0.0,0.0,0.0,0.0,4.7374,4.7529,4.7985,4.8154,0.0,0.0,0.0,0.0,0.0,0.0,0.0,5.0063,5.0166,5.0533,5.123,5.1102,5.1085,5.1516,5.1662,5.1921,5.2552,0.0,5.2887,5.3329,5.3451,5.3519,5.3559,5.382,5.3957,5.3815,5.4036,5.4276,5.4421,5.4595,5.473,5.4761,5.4773,5.4816,5.4894,5.4092,5.3566,5.4074,5.4164,5.4363,5.4834,5.4907,5.4979,5.0203,5.0121,4.9058,4.8636,4.8619,4.8585,4.8551,4.8551,4.8485,4.8468,4.8452,4.8468,4.8483,4.8499,4.8499,0.0,0.0,4.8566,4.8567,4.8567,4.8618,4.8636,4.8636,4.8636,4.8987,4.964,4.9443,4.9793,5.0593,5.0459,5.0509,5.0744,5.0075,5.0074,5.0677,5.0677,5.071,5.0777,5.0777,5.076,5.076,5.076,5.0426,4.9657,4.9656,4.9305,4.8602,4.8552,4.8519,4.8452,4.8468,4.8564,4.8738,0.0,0.0,0.0,0.0,0.0,0.0,0.0,0.0,0.0,0.0,0.0,0.0,0.0,0.0,0.0,4.7717,0.0,4.7751,4.791,0.0,0.0,0.0,4.9611,5.0359,5.0332,5.0483,5.107,0.0,0.0,0.0,0.0,5.1765,5.1833,5.1954,5.214,5.2314,5.255,5.2926,5.3693,5.3825,5.3868,5.4015,5.4238,5.432,5.4115,5.406,5.4304,5.4465,5.4589,5.4667,5.4865,5.48,5.4886,5.5039,5.51,5.507,5.5112,5.5033,5.5021,5.5178,5.5214,5.5414,5.0066,5.017,4.9924,4.9808,4.9742,4.9194,4.8945,4.8928,4.8347,4.8115,4.8115,4.8227,4.8356,4.8499,4.8499,4.8499,4.85,4.8924,4.9109,4.9142,4.9593,4.9792,4.9792,4.9792,4.9891,5.0057,5.0007,5.009,5.0323,5.0289,5.0554,5.1138,5.0971,5.0825,5.071,5.0693,5.0911,5.131,5.1462,5.1479,5.131,5.131,5.0908,5.0091,5.0057,4.9709,4.8995,4.8962,4.8712,4.8148,4.8228,4.8308,4.8357,4.8483,0.0,0.0,0.0,0.0,0.0,0.0,0.0,0.0,0.0,4.7344,4.7301,0.0,4.7643,0.0,4.8734,4.9044,4.9059,4.9088,0.0,0.0,4.9582,4.9903,5.0627,5.0683,5.0886,5.1475,5.1438,5.1601,5.2304,5.2259,5.2398,5.2974,5.2811,5.2831,5.346,5.3594,5.3711,5.393,5.4093,5.4168,5.4408,5.4726,5.5048,5.5238,5.5454,5.5671,5.5839,5.608,5.625,5.6276,5.6366,5.6456,5.6499,5.657,5.6663,5.6609,5.6174,5.5939,5.65,5.6645,5.6699,5.0796,5.0935,5.1023,5.1057,5.0975,5.0003,4.9574,4.9557,4.916,4.8995,4.8978,4.9061,4.9144,4.9259,4.9243,4.9243,4.9276,4.9576,4.9692,4.9709,5.0039,5.0203,5.0203,5.0203,5.0369,5.0701,5.0684,5.0866,5.1164,5.1181,5.138,5.1778,5.1796,5.1685,5.1475,5.1476,5.1624,5.1902,5.2007,5.2024,5.1902,5.1902,5.1501,5.0717,5.0684,5.0353,4.9624,4.959,4.9243,4.8547,4.8564,4.8496,4.8212,4.8308,4.8404,0.0,0.0,0.0,0.0,0.0,0.0,0.0,0.0,0.0,0.0,0.0,4.8262,0.0,4.9069,0.0,4.9277,4.9642,4.9922,4.9998,5.0349,5.0737,5.1182,5.1138,5.1368,5.2026,5.195,5.2142,5.2889,5.3179,5.3467,5.394,5.4059,5.4141,5.4309,5.441,5.4595,5.492,5.5054,5.5185,5.543,5.5701,5.6013,5.643,5.6699,5.6919,5.711,5.7348,5.757,5.7652,5.781,5.8001,5.8067,5.8185,5.8275,5.8208,5.788,5.7613,5.7719,5.7983,5.8185,5.1952,5.1891,5.209,5.2148,5.1967,5.0892,5.0384,5.0319,5.0253,5.0203,5.0203,5.0203,5.0203,5.0203,5.0203,5.0203,5.0203,5.0303,5.0353,5.0353,5.0435,5.0468,5.0485,5.0485,5.0817,5.1414,5.1447,5.1762,5.2391,5.2491,5.2524,5.2524,5.2623,5.2673,5.2673,5.2673,5.259,5.2391,5.2391,5.2391,5.2391,5.2391,5.2093,5.1463,5.143,5.1099,5.0386,5.0336,5.0021,4.9292,4.9243,4.8945,4.8362,4.8312,4.8343,0.0,4.8452,0.0,0.0,0.0,0.0,0.0,0.0,0.0,0.0,4.8961,4.926,4.9243,4.9221,4.9211,4.9211,4.9961,5.0443,5.0493,5.1145,5.1633,5.1751,5.1673,5.1899,5.2631,5.2636,5.2875,5.3568,5.4279,5.4735,5.4769,5.5175,5.5414,5.5162,5.5145,5.5366,5.6082,5.6167,5.6098,5.6367,5.6551,5.6747,5.7267,5.7481,5.7774,5.7837,5.8157,5.8425,5.8552,5.8769,5.9068,5.9276,5.9375,5.95,5.9414,5.937,5.9181,5.8709,5.8878,5.9339,5.2768,5.2402,5.2592,5.2358,5.1835,5.1609,5.1362,5.1049,5.0452,5.0203,5.0203,5.0203,5.0203,5.0203,5.0203,5.0203,5.0236,5.0834,5.1082,5.1116,5.1712,5.1994,5.1994,5.1976,5.206,5.2192,5.2192,5.2259,5.2408,5.2953,5.3218,5.3235,5.3796,5.4094,5.4094,0.0,0.0,0.0,5.2391,5.2391,5.2391,5.2391,5.2342,5.2192,5.2176,0.0,5.1132,5.1099,5.075,5.0055,4.9988,0.0,0.0,0.0,0.0,0.0,0.0,0.0,0.0,0.0,0.0,0.0,4.9559,4.951,4.8601,4.9132,4.9549,4.9549,5.0021,5.0374,5.039,5.0541,5.0707,5.0887,5.1036,5.1405,5.2078,5.2179,5.2451,5.3246,5.3805,5.4194,5.438,5.5023,5.5479,5.5478,5.5614,5.5902,5.6344,5.5922,5.5651,5.5788,5.6062,5.6115,5.6133,5.6422,5.6726,5.6851,5.716,5.7451,5.7658,5.7917,5.8111,5.8221,5.849,5.8845,5.8887,5.9079,5.938,5.929,5.978,6.0019,5.9348,5.9218,5.9217,5.266,0.0,5.2721,5.2643,0.0,5.2452,5.2391,5.2169,5.1354,5.0982,5.0999,5.0999,5.1035,5.1139,5.1122,5.1193,5.1313,5.1679,5.1862,5.1861,5.2209,5.2574,5.2887,5.2887,5.3086,5.3434,5.345,5.345,5.3467,5.3763,5.3945,5.3962,5.4326,5.4508,5.4508,5.4508,5.4144,5.345,5.3434,5.3434,5.3417,5.3069,5.2887,5.2887,0.0,0.0,0.0,0.0,0.0,0.0,0.0,0.0,0.0,0.0,0.0,4.9127,4.9144,4.9161,4.911,4.9476,4.9708,4.9657,4.9971,4.9991,4.9458,4.9775,5.0025,5.0124,5.0476,5.0693,5.0693,5.1011,5.1296,5.1396,5.1715,5.2253,5.2976,5.3145,5.3447,5.4154,5.4608,5.4844,5.4844,5.55,5.592,5.5971,5.6257,5.6612,5.6899,5.6572,5.6358,5.6714,5.6853,5.6977,5.7065,5.7206,5.7415,5.7587,5.7807,5.7991,5.809,5.8449,5.8735,5.8784,5.9218,5.9645,5.9675,5.997,6.0231,6.0281,6.0568,6.092,6.0861,6.0571,6.0231,5.2446,5.2397,5.2768,5.2845,5.2737,5.2901,5.2964,5.2923,0.0,0.0,0.0,5.1938,5.2048,5.2229,5.2361,5.2519,5.2735,5.2717,5.2718,5.2772,5.2789,5.3069,5.3599,5.3616,5.3912,5.4492,5.4508,5.4508,5.4508,5.4624,5.469,5.4707,5.4823,5.4889,5.4889,5.4889,5.4872,5.4872,5.4624,5.4508,5.4492,5.3912,5.3515,5.3399,5.287,5.254,5.2408,5.2391,5.211,5.153,5.148,5.1165,5.0452,5.0402,5.0353,5.0203,5.0203,5.0203,5.0203,5.0302,5.0452,5.0585,5.0584,5.052,5.0391,5.0475,5.0642,5.0794,5.0928,5.0994,5.0994,5.1512,5.1981,5.2115,5.2667,5.3336,5.4056,5.419,5.4409,5.4993,5.5195,5.5294,5.5346,5.595,5.6467,5.6637,5.7143,5.7557,5.7614,5.7419,5.7437,5.8062,5.8269,5.8344,5.8488,5.8579,5.865,5.8758,5.8955,5.9026,5.9062,5.9426,5.9732,5.9783,6.0343,6.0715,6.0841,6.1166,6.1501,6.1545,6.1608,6.1816,6.2385,6.2114,6.1681,5.3013,5.267,5.2902,5.2627,5.2041,5.2077,5.2082,5.208,5.2123,5.2227,5.2416,5.2397,5.2494,5.2733,5.3369,5.3759,5.3966,5.395,5.4043,0.0,5.4194,5.426,5.4343,5.4359,5.4409,5.4492,5.4508,5.4508,5.4574,5.5154,5.5452,5.5535,5.6084,5.6365,5.6382,5.6382,5.6382,5.6368,5.5137,5.4508,5.4508,5.4392,5.4045,5.3432,5.3316,5.297,5.2424,5.2408,5.2342,5.2242,5.2242,5.1911,5.1198,5.1132,5.0866,5.0269,5.0203,5.0203,5.022,5.0783,5.1414,5.2027,5.2093,5.1579,5.0387,5.0819,5.1201,5.1236,5.1767,5.2164,5.2164,5.2281,5.2668,5.3291,5.3525,5.3946,5.4823,5.4942,5.4974,5.5158,5.5664,5.6031,5.6146,5.6702,5.7352,5.7907,5.8086,5.8423,5.8861,5.8751,5.8785,5.9359,5.9696,5.9793,5.9642,5.9963,5.986,5.9883,6.0062,6.0124,5.996,6.0289,6.0558,6.0731,6.1086,6.1446,6.1549,6.2072,6.2239,6.23,6.249,6.2871,6.308,6.3066,6.3086,5.2683,5.2538,5.2866,5.2793,5.2496,5.2646,5.271,5.2669,5.2438,5.2344,5.2407,5.2493,5.2669,5.2896,5.3353,5.369,5.3886,5.3981,5.4092,5.4187,5.4171,5.4404,5.4768,5.488,5.5151,5.5534,5.5665,5.5667,5.5736,5.6051,5.62,5.6216,5.6531,5.6716,5.6716,5.6716,5.6716,5.668,5.6034,5.5703,5.5703,5.5303,5.4922,5.4591,5.4227,5.3647,5.297,5.2953,5.2771,5.2408,5.2391,5.2242,5.1927,5.1911,5.1745,5.1413,5.1396,5.138,5.1397,5.1712,5.2027,5.2375,5.2391,5.2308,5.1975,5.191,5.1894,5.1927,5.254,5.2937,5.297,5.3301,5.3719,5.409,5.4142,5.4494,5.5179,5.5382,5.5532,5.5917,5.625,5.6616,5.7015,5.7384,5.785,5.8513,5.8663,5.8982,5.9661,5.9677,5.9569,5.9647,5.971,5.9751,5.9807,5.9847,5.9864,5.9768,5.9905,6.0,5.9924,6.0205,6.0337,6.0376,6.0821,6.1129,6.1252,6.171,6.212,6.2355,6.2618,6.2984,6.3502,6.4124,6.4251,5.2398,5.249,5.2684,5.2772,5.2795,5.2995,5.3084,5.3044,5.257,5.2344,5.2324,5.2529,5.2792,5.305,5.3375,5.3691,5.3932,5.4105,5.4199,5.4241,5.428,5.4613,5.5126,5.5374,5.5783,5.6297,5.6541,5.6638,5.6622,5.6677,5.6799,5.6948,5.7094,5.7177,5.7193,5.7193,5.713,5.6964,5.6948,5.6882,5.6683,5.615,5.5767,5.5568,5.5055,5.4409,5.3713,5.3647,5.3417,5.2904,5.2705,5.264,5.2623,5.2474,5.2391,5.2391,5.2391,5.2474,5.2623,5.264,5.2706,5.2872,5.2872,5.3102,5.3515,5.3169,5.2888,5.2938,5.3367,5.3647,5.3713,5.4111,5.4558,5.4707,5.4756,5.5073,5.57,5.5849,5.6051,5.6597,5.6812,5.7196,5.7677,5.7955,5.8356,5.8986,5.928,5.9645,6.0146,6.0388,6.0268,6.0021,5.9939,6.0085,5.9999,6.0069,6.0082,5.9959,6.0049,6.0155,6.0155,6.0167,6.025,6.0432,6.0727,6.1081,6.109,6.1606,6.2142,6.244,6.282,6.3295,6.4141,6.4833,6.5155,5.271,5.2814,5.2352,5.2078,5.2109,5.2147,5.217,5.2177,5.2268,5.2297,5.2337,5.2563,5.2928,5.3399,5.4003,5.4472,5.4856,5.4966,5.5056,5.5207,5.5441,5.5554,5.5607,5.5859,5.6044,5.6162,5.6359,5.6487,5.6556,5.6666,5.7061,5.769,5.8353,5.8651,5.8668,5.8651,5.8336,5.7707,5.7674,5.7359,5.6749,5.665,5.6282,5.5617,5.5551,5.5154,5.4442,5.4409,5.4376,5.426,5.3665,5.3316,5.3268,5.2772,5.2408,5.2424,5.2424,5.2655,5.3251,5.3318,5.3581,5.421,5.4227,5.4276,5.4376,5.4343,5.4293,5.4309,5.4359,5.4392,5.4392,5.4525,5.4889,5.5435,5.5502,5.5783,5.6432,5.6616,5.665,5.6683,5.7362,5.776,5.7972,5.8502,5.9115,5.9794,6.034,6.0672,6.0837,6.0908,6.0933,6.0965,6.1208,6.1364,6.1314,6.1471,6.1187,6.1132,6.1317,6.12,6.1072,6.1183,6.1492,6.107,6.1507,6.1658,6.1846,6.2367,6.2741,6.2887,6.3357,6.4114,6.4737,6.5077,6.5203,5.3017,5.3062,5.2571,5.2212,5.2032,5.201,5.201,5.201,5.2086,5.2132,5.2147,5.2234,5.2622,5.3189,5.373,5.4077,5.4263,5.4428,5.4602,5.4795,5.4899,5.5019,5.5196,5.5401,5.5779,5.6328,5.6547,5.6942,5.7383,5.7529,5.7835,5.8236,5.8602,5.8779,5.8879,5.8899,5.875,5.8452,5.8436,5.8071,5.7376,5.6931,5.6564,5.6299,5.6249,5.5901,5.5237,5.517,5.4955,5.4541,5.4194,5.4061,5.4061,5.378,5.3632,5.3632,5.3649,5.3746,5.4028,5.4061,5.4177,5.4492,5.4508,5.4674,5.5121,5.5154,5.5303,5.5667,5.5402,5.5154,5.5187,5.5535,5.5935,5.62,5.6249,5.6547,5.726,5.7362,5.7511,5.7922,5.8237,5.8618,5.9082,5.9761,6.0291,6.0639,6.0949,6.1082,6.1098,6.1098,6.1098,6.1102,6.1268,6.1334,6.1355,6.1334,6.1314,6.1272,6.1293,6.131,6.1272,6.1272,6.1318,6.1355,6.1526,6.1652,6.1568,6.2153,6.2661,6.295,6.3494,6.4145,6.4706,6.4878,6.5098,5.3498,5.3402,5.2987,5.2612,5.2339,5.2324,5.2226,5.2097,5.2233,5.2218,5.2105,5.2318,5.2703,5.313,5.3299,5.3377,5.3531,5.3705,5.4031,5.4389,5.4463,5.4719,5.5064,5.5373,5.5824,5.6432,5.677,5.7316,5.8066,5.8332,5.8543,5.8766,5.8988,5.9169,5.9313,5.9374,5.9299,5.9117,5.9157,5.885,5.8138,5.7577,5.7113,5.6749,5.6716,5.6448,5.5951,5.5916,5.5667,5.5121,5.4922,5.479,5.479,5.4624,5.4508,5.4508,5.4508,5.4591,5.479,5.4806,5.4889,5.5071,5.5088,5.5338,5.5767,5.5899,5.6233,5.6848,5.6498,5.6164,5.5982,5.6564,5.6981,5.7014,5.7147,5.7544,5.8022,5.8088,5.8287,5.88,5.9032,5.9479,6.0175,6.0721,6.1015,6.1048,6.1065,6.1098,6.1098,6.1098,6.1098,6.1098,6.1102,6.1102,6.1098,6.1123,6.1098,6.1098,6.1123,6.1123,6.1098,6.1102,6.1102,6.121,6.1276,6.1318,6.1363,6.1807,6.2285,6.2586,6.314,6.3821,6.4217,6.4446,6.4706,5.4177,5.4057,5.3438,5.3133,5.3142,5.3112,5.2759,5.2297,5.2843,5.2774,5.2372,5.3074,5.351,5.347,5.2833,5.2653,5.3049,5.314,5.3599,5.4374,5.4636,5.5108,5.5756,5.6205,5.6425,5.6545,5.6931,5.7425,5.7974,5.8558,5.8999,5.928,5.9853,6.0251,6.0266,6.0386,6.024,5.9688,5.9804,5.9595,5.8949,5.88,5.8104,5.6962,5.6732,5.6716,5.6597,5.665,5.66,5.6583,5.5899,5.5532,5.5502,5.4922,5.4607,5.4591,5.4558,5.4856,5.5452,5.5551,5.58,5.6418,5.65,5.66,5.665,5.6749,5.7064,5.7693,5.7657,5.7359,5.6895,5.7359,5.7743,5.7773,5.8336,5.8684,5.8833,5.885,5.885,5.9098,5.9595,6.0175,6.0899,6.1065,6.1098,6.1098,6.1098,6.1098,6.1098,6.1098,6.1098,6.1098,6.1098,6.1098,6.1098,6.1098,6.1098,6.1098,6.1098,6.1098,6.1098,6.1098,6.1098,6.1098,6.1144,6.1165,6.1148,6.1396,6.1807,6.2232,6.2762,6.3327,6.3676,6.4002,6.4287,5.4581,5.4192,5.3952,5.3593,5.3213,5.3198,5.3049,5.286,5.3094,5.3094,5.2914,5.3206,5.3335,5.3305,5.3031,5.3146,5.3552,5.3575,5.3867,5.4306,5.443,5.4761,5.5253,5.5482,5.5982,5.6654,5.6881,5.744,5.8315,5.8781,5.9076,5.9312,5.9745,6.0028,6.0184,6.0399,6.0421,6.0318,6.0406,6.0159,5.9658,5.9595,5.9115,5.8154,5.7641,5.7196,5.6716,5.6716,5.6716,5.6716,5.6432,5.6299,5.6282,5.6051,5.5918,5.5901,5.5901,5.6034,5.6266,5.6299,5.6398,5.6699,5.7144,5.7392,5.7475,5.7823,5.822,5.8436,5.8502,5.8336,5.8237,5.8353,5.8485,5.8535,5.875,5.9148,5.9479,5.9612,5.9777,6.0225,6.0572,6.08,6.0966,6.1098,6.1098,6.1098,6.1098,6.1098,6.1098,6.1098,6.1098,6.1098,6.1098,6.1098,6.1098,6.1098,6.1098,6.1098,6.1098,6.1098,6.1098,6.1098,6.1098,6.1098,6.1098,6.1102,6.1144,6.1235,6.1625,6.1974,6.2491,6.2779,6.31,6.3473,6.3821,5.494,5.4566,5.4521,5.4281,5.3887,5.3857,5.3698,5.3563,5.3767,5.3752,5.3603,5.3767,5.3872,5.3842,5.3842,5.399,5.4231,5.4005,5.4051,5.4479,5.4494,5.4776,5.5283,5.5401,5.5844,5.6575,5.684,5.7416,5.8295,5.8541,5.8746,5.894,5.9219,5.9464,5.969,6.0011,6.027,6.0463,6.0633,6.0517,6.0266,6.0316,6.0009,5.9314,5.8767,5.8171,5.7461,5.7177,5.7064,5.7028,5.6848,5.6716,5.6716,5.6716,5.6716,5.6716,5.6912,5.7044,5.7077,5.726,5.7409,5.7409,5.7839,5.8154,5.8187,5.8618,5.8966,5.9164,5.9247,5.9297,5.9545,5.9628,5.9512,5.9363,5.9463,5.9794,6.0274,6.0374,6.0572,6.0883,6.1015,6.1065,6.1098,6.1098,6.1098,6.1098,6.1098,6.1098,6.1098,6.1098,6.1098,6.1098,6.1098,6.1098,6.1098,6.1098,6.1098,6.1098,6.1098,6.1098,6.1098,6.1098,6.1098,6.1098,6.1098,6.1098,6.1144,6.1231,6.1445,6.1773,6.2014,6.2271,6.2603,6.2985,6.339,5.5179,5.5174,5.5204,5.5104,5.5014,5.4999,5.476,5.4356,5.4835,5.4685,5.4311,5.482,5.4995,5.5099,5.494,5.5114,5.4905,5.4202,5.4171,5.4828,5.4883,5.5241,5.5865,5.6015,5.6137,5.6341,5.6838,5.733,5.7801,5.7871,5.7972,5.8188,5.8457,5.8746,5.9011,5.9452,5.9826,6.0114,6.0437,6.0621,6.0722,6.0836,6.061,6.0072,5.9882,5.9554,5.8896,5.8187,5.7806,5.7723,5.7177,5.6766,5.6879,5.6895,5.6815,5.6998,5.7461,5.7776,5.7856,5.8386,5.8651,5.8684,5.885,5.8899,5.8916,5.9049,5.938,5.9877,6.0042,6.0241,6.0784,6.0883,6.0655,6.0208,6.049,6.085,6.1003,6.1069,6.1082,6.1098,6.1098,6.1098,6.1098,6.1098,6.1098,6.1098,6.1098,6.1098,6.1098,6.1098,6.1098,6.1098,6.1098,6.1098,6.1098,6.1098,6.1098,6.1098,6.1098,6.1098,6.1098,6.1098,6.1098,6.1098,6.1098,6.1098,6.1098,6.1169,6.121,6.1461,6.1645,6.1978,6.2376,6.2798,6.3142,5.5219,5.5219,5.5219,5.5219,5.5219,5.5219,5.5059,5.491,5.5119,5.5074,5.494,5.5089,5.5219,5.5219,5.5219,5.5219,5.5174,5.4845,5.486,5.507,5.5085,5.533,5.566,5.579,5.5914,5.6121,5.6384,5.6627,5.682,5.6988,5.7203,5.7441,5.7715,5.8042,5.8434,5.8792,5.9197,5.9782,5.9941,6.0141,6.0458,6.0565,6.0555,6.0484,6.0346,6.021,6.0092,5.9133,5.8585,5.8552,5.8336,5.8204,5.8187,5.8204,5.8187,5.8237,5.8403,5.8552,5.8568,5.8767,5.8946,5.8999,5.9363,5.9628,5.9728,6.0088,6.0436,6.0701,6.0771,6.0904,6.1053,6.1098,6.0966,6.0767,6.0986,6.1098,6.1098,6.1098,6.1098,6.1098,6.1098,6.1098,6.1098,6.1098,6.1098,6.1098,6.1098,6.1098,6.1098,6.1098,6.1098,6.1098,6.1098,6.1098,6.1098,6.1098,6.1098,6.1098,6.1098,6.1098,6.1098,6.1098,6.1098,6.1098,6.1098,6.1148,6.1131,6.1223,6.1314,6.1526,6.1916,6.2174,6.2393,6.2777,6.3239,5.5118,5.5194,5.5219,5.5219,5.5219,5.5219,5.5219,5.5219,5.5219,5.5219,5.5219,5.5219,5.5219,5.5219,5.5219,5.5219,5.5219,5.5219,5.5219,5.5219,5.5219,5.5295,5.5446,5.5456,5.5581,5.5815,5.5988,5.6106,5.6179,5.6366,5.6521,5.6715,5.7028,5.7409,5.7793,5.8158,5.8678,5.9219,5.9464,5.9744,6.0093,6.0292,6.0458,6.0548,6.0463,6.0479,6.0525,5.9749,5.9218,5.9016,5.8806,5.8637,5.8657,5.8604,5.8637,5.867,5.8905,5.9053,5.907,5.933,5.9466,5.9548,5.9878,6.0125,6.0245,6.0716,6.0944,6.094,6.1007,6.1098,6.1082,6.1098,6.1098,6.1082,6.1082,6.1098,6.1098,6.1098,6.1098,6.1098,6.1098,6.1098,6.1098,6.1098,6.1098,6.1098,6.1098,6.1098,6.1098,6.1098,6.1098,6.1098,6.1098,6.1098,6.1098,6.1098,6.1098,6.1098,6.1098,6.1098,6.1098,6.1098,6.1098,6.1098,6.1098,6.1417,6.1467,6.1583,6.1724,6.1986,6.2306,6.2623,6.2928,6.3267,6.3638,5.4915,5.5143,5.5143,5.5103,5.5103,5.5088,5.5078,5.5128,5.5169,5.5169,5.5169,5.5194,5.5219,5.5219,5.5219,5.5219,5.5219,5.5219,5.5219,5.5219,5.5219,5.5244,5.5244,5.5244,5.5355,5.5556,5.5606,5.5706,5.5889,5.5914,5.5979,5.6062,5.6439,5.6796,5.7156,5.7613,5.8042,5.8587,5.9001,5.9331,5.9628,6.0028,6.027,6.027,6.0244,6.0227,6.0195,5.9897,5.9642,5.9294,5.8801,5.8555,5.8387,5.8317,5.8469,5.8539,5.8997,5.9259,5.9472,5.9799,6.016,6.0143,6.0197,6.0373,6.0355,6.0525,6.0713,6.0696,6.086,6.1019,6.104,6.104,6.1061,6.1098,6.1098,6.1098,6.1098,6.1098,6.1098,6.1098,6.1098,6.1098,6.1098,6.1098,6.1098,6.1098,6.1098,6.1098,6.1098,6.1098,6.1098,6.1098,6.1098,6.1098,6.1098,6.1098,6.1098,6.1098,6.1098,6.1098,6.1098,6.1098,6.1098,6.1098,6.1301,6.1599,6.1885,6.2034,6.2333,6.2719,6.3,6.3244,6.3551,6.3872,6.42,5.4473,5.4549,5.4524,5.4549,5.4549,5.4524,5.4549,5.4575,5.4798,5.489,5.4941,5.5118,5.5194,5.5194,5.5194,5.5219,5.5219,5.5219,5.5219,5.5219,5.5219,5.5219,5.5219,5.5219,5.5244,5.532,5.5345,5.5345,5.5406,5.5456,5.5531,5.5721,5.5864,5.6219,5.6724,5.694,5.7409,5.8011,5.8326,5.8639,5.8905,5.9213,5.9419,5.9574,5.9458,5.9464,5.9552,5.9375,5.9399,5.9599,5.9577,5.9532,5.9408,5.9408,5.9359,5.9408,5.9593,5.9724,5.9648,5.9751,5.9865,5.9925,5.9973,6.0087,6.0109,6.0318,6.0463,6.0484,6.0565,6.0649,6.0776,6.0818,6.0881,6.1061,6.1077,6.1082,6.1098,6.1098,6.1098,6.1098,6.1098,6.1098,6.1098,6.1098,6.1098,6.1098,6.1098,6.1098,6.1098,6.1098,6.1098,6.1098,6.1098,6.1098,6.1098,6.1098,6.1098,6.1098,6.1098,6.1098,6.1098,6.1098,6.1098,6.1098,6.1583,6.1952,6.23,6.2548,6.2979,6.3509,6.3769,6.4034,6.4288,6.458,6.4971,5.4034,5.4149,5.4252,5.4304,5.4304,5.4304,5.4304,5.4329,5.4487,5.4579,5.463,5.4758,5.4926,5.5032,5.5032,5.5093,5.5194,5.5219,5.5219,5.5219,5.5219,5.5219,5.5219,5.5219,5.5219,5.5219,5.5219,5.5219,5.5219,5.5219,5.5295,5.5431,5.5531,5.5815,5.617,5.6375,5.6715,5.7298,5.7629,5.791,5.8273,5.8541,5.8685,5.8805,5.8708,5.8708,5.8724,5.8678,5.8905,5.9276,5.9498,5.9564,5.958,5.958,5.958,5.958,5.958,5.9514,5.9403,5.9314,5.9292,5.9375,5.9448,5.9453,5.9564,5.9799,5.9952,6.0093,6.0147,6.034,6.0527,6.0569,6.0649,6.0771,6.0877,6.0961,6.1082,6.1098,6.1098,6.1098,6.1098,6.1098,6.1098,6.1098,6.1098,6.1098,6.1098,6.1098,6.1098,6.1098,6.1098,6.1098,6.1098,6.1098,6.1098,6.1098,6.1098,6.1098,6.1098,6.1098,6.1098,6.1098,6.1098,6.1251,6.1819,6.2337,6.2664,6.3161,6.3835,6.4283,6.4564,6.4746,6.4912,6.4945,6.5387,5.3515,5.3748,5.4005,5.4149,5.4123,5.4175,5.4123,5.42,5.4226,5.4252,5.4278,5.4304,5.4539,5.4722,5.4762,5.489,5.5143,5.5118,5.5169,5.5194,5.5219,5.5219,5.5219,5.5219,5.5219,5.5219,5.5219,5.5219,5.5219,5.5219,5.5219,5.5295,5.5456,5.5556,5.5755,5.588,5.621,5.6618,5.6916,5.7227,5.7598,5.784,5.7964,5.8072,5.8057,5.7933,5.7879,5.7926,5.8211,5.8701,5.8814,5.886,5.886,5.8876,5.8876,5.8898,5.886,5.886,5.8792,5.861,5.8587,5.8724,5.8617,5.8633,5.886,5.9069,5.9292,5.9524,5.9756,5.9908,6.0163,6.0292,6.0356,6.0437,6.0548,6.0776,6.0961,6.1061,6.1098,6.1098,6.1098,6.1098,6.1098,6.1098,6.1098,6.1098,6.1098,6.1098,6.1098,6.1098,6.1098,6.1098,6.1098,6.1098,6.1098,6.1098,6.1098,6.1098,6.1098,6.1098,6.1098,6.1098,6.1098,6.1351,6.2034,6.2614,6.3062,6.3708,6.4498,6.4895,6.5022,6.5188,6.5359,6.526,6.547,5.2505,5.2598,5.2933,5.3172,5.3331,5.3372,5.3489,5.3684,5.3919,5.3982,5.4034,5.42,5.4329,5.4381,5.4421,5.4564,5.4864,5.4915,5.4991,5.5194,5.5219,5.5219,5.5219,5.5219,5.5219,5.5219,5.5219,5.5219,5.5219,5.5219,5.5219,5.5219,5.528,5.5381,5.5581,5.5631,5.583,5.6136,5.6351,5.653,5.67,5.6964,5.7156,5.7298,5.7322,5.7203,5.7012,5.6988,5.7084,5.7314,5.7739,5.8081,5.8127,5.8127,5.8127,5.8127,5.8143,5.8058,5.7871,5.7785,5.7762,5.7871,5.7949,5.8081,5.8127,5.8319,5.8532,5.8753,5.8889,5.912,5.9514,5.9887,5.9995,6.0082,6.027,6.0458,6.0602,6.0872,6.1019,6.1061,6.1082,6.1098,6.1098,6.1098,6.1098,6.1098,6.1098,6.1098,6.1098,6.1098,6.1098,6.1098,6.1098,6.1098,6.1098,6.1098,6.1098,6.1098,6.1098,6.1098,6.1098,6.1098,6.1098,6.1599,6.2312,6.283,6.3211,6.42,6.4995,6.5221,6.5387,6.5387,6.5387,6.5387,6.5387,5.1663,5.1814,5.2248,5.2546,5.2707,5.2841,5.3054,5.3292,5.3462,5.3579,5.371,5.3878,5.3982,5.4097,5.4123,5.4282,5.4553,5.4722,5.4879,5.5032,5.5118,5.5219,5.5219,5.5219,5.5219,5.5219,5.5219,5.5219,5.5219,5.5219,5.5219,5.5219,5.5219,5.527,5.5396,5.5406,5.5556,5.578,5.5899,5.6022,5.617,5.6293,5.6415,5.6561,5.6585,5.6497,5.6406,5.639,5.639,5.6488,5.6779,5.7139,5.7314,5.7338,5.7338,5.7338,5.7338,5.729,5.7132,5.7028,5.6988,5.7124,5.7156,5.7203,5.7361,5.7535,5.7793,5.8042,5.8227,5.8457,5.8911,5.9136,5.9365,5.9558,5.9734,5.9908,6.0098,6.0496,6.0835,6.0877,6.0881,6.0981,6.104,6.1061,6.1098,6.1098,6.1098,6.1098,6.1098,6.1098,6.1098,6.1098,6.1098,6.1098,6.1098,6.1098,6.1098,6.1098,6.1098,6.1098,6.1098,6.1098,6.1098,6.1632,6.2113,6.2747,6.3261,6.4332,6.5111,6.5326,6.5392,6.5387,6.5387,6.5387,6.5387,5.085,5.11,5.1705,5.195,5.2059,5.237,5.2707,5.2935,5.3001,5.3213,5.3424,5.3451,5.362,5.3815,5.3826,5.4008,5.4267,5.4553,5.4696,5.4722,5.4991,5.5067,5.5118,5.5169,5.5219,5.5219,5.5219,5.5219,5.5219,5.5219,5.5219,5.5219,5.5219,5.5219,5.5219,5.5219,5.533,5.5531,5.5556,5.5641,5.5805,5.584,5.588,5.5889,5.6003,5.5939,5.5889,5.5864,5.588,5.588,5.5864,5.6096,5.6351,5.6579,5.6579,5.6603,5.6643,5.6618,5.6594,5.6448,5.6384,5.6594,5.6424,5.6399,5.6618,5.6812,5.7052,5.7314,5.7574,5.7918,5.8319,5.8503,5.8633,5.8792,5.9001,5.9225,5.9508,5.9919,6.0141,6.0628,6.0739,6.0839,6.0961,6.1023,6.1061,6.1098,6.1098,6.1098,6.1098,6.1098,6.1098,6.1098,6.1098,6.1098,6.1098,6.1098,6.1098,6.1098,6.1098,6.1098,6.1098,6.1098,6.1115,6.1301,6.1765,6.2399,6.3095,6.3957,6.4614,6.5094,6.5392,6.5387,6.5387,6.5387,6.5387,4.9854,4.9925,5.0544,5.0892,5.1169,5.1705,5.21,5.237,5.2627,5.2935,5.3148,5.3174,5.3319,5.3489,5.3568,5.3696,5.3982,5.4256,5.4396,5.4462,5.4707,5.4864,5.4955,5.5067,5.5169,5.5219,5.5219,5.5219,5.5219,5.5219,5.5219,5.5219,5.5219,5.5219,5.5219,5.5219,5.5219,5.532,5.532,5.537,5.5406,5.5406,5.5406,5.5431,5.5581,5.5571,5.5406,5.537,5.5345,5.533,5.533,5.5406,5.5591,5.5914,5.6087,5.6111,5.6111,5.6096,5.6087,5.6087,5.6062,5.6087,5.6038,5.6038,5.6111,5.6185,5.639,5.6618,5.6956,5.729,5.7361,5.7692,5.7965,5.8111,5.8273,5.8487,5.873,5.8979,5.9403,6.0076,6.0399,6.0717,6.0823,6.0944,6.1002,6.1061,6.1098,6.1098,6.1098,6.1098,6.1098,6.1098,6.1098,6.1098,6.1098,6.1098,6.1098,6.1098,6.1098,6.1098,6.1098,6.1098,6.1185,6.1268,6.1533,6.2084,6.283,6.3542,6.4155,6.4669,6.5011,6.5337,6.5387,6.5387,6.5387,4.8811,4.9127,4.9586,4.994,5.0306,5.0878,5.1293,5.1568,5.2019,5.237,5.2627,5.2828,5.2947,5.3092,5.3239,5.3451,5.371,5.3982,5.4071,5.4164,5.441,5.463,5.4777,5.4941,5.5053,5.5169,5.5219,5.5194,5.5219,5.5219,5.5219,5.5219,5.5219,5.5219,5.5219,5.5219,5.5219,5.5219,5.5219,5.5219,5.5219,5.5219,5.5219,5.5244,5.5305,5.532,5.5244,5.5219,5.5219,5.5219,5.5219,5.5219,5.5295,5.5421,5.5596,5.5606,5.5606,5.5606,5.5596,5.5596,5.5581,5.5581,5.5606,5.5581,5.5631,5.5731,5.5889,5.6161,5.6293,5.6585,5.67,5.698,5.7124,5.729,5.7503,5.7739,5.798,5.8211,5.8782,5.9448,5.9794,6.0184,6.0701,6.0823,6.0944,6.1023,6.1061,6.1082,6.1061,6.1098,6.1098,6.1098,6.1098,6.1098,6.1098,6.1098,6.1098,6.1098,6.1098,6.1098,6.1098,6.1098,6.1098,6.1131,6.15,6.1819,6.2233,6.2846,6.3526,6.4188,6.4564,6.4929,6.526,6.5387,6.5387,4.7896,4.8334,4.8669,4.8999,4.9385,4.9982,5.0418,5.0795,5.1293,5.1705,5.2046,5.2343,5.2546,5.268,5.2947,5.3239,5.3451,5.3684,5.3815,5.3893,5.4112,5.4385,5.4543,5.4711,5.4824,5.5042,5.5093,5.5143,5.5194,5.5219,5.5219,5.5219,5.5219,5.5219,5.5219,5.5219,5.5219,5.5219,5.5219,5.5219,5.5219,5.5219,5.5219,5.5219,5.5219,5.5219,5.5219,5.5219,5.5219,5.5219,5.5219,5.5219,5.5219,5.5219,5.5219,5.5219,5.5219,5.5219,5.5219,5.5244,5.5295,5.5295,5.5244,5.5219,5.527,5.5446,5.5606,5.5805,5.5929,5.6013,5.6155,5.6228,5.6375,5.6546,5.6763,5.6964,5.7251,5.7559,5.7926,5.8525,5.904,5.9596,6.0125,6.0612,6.0713,6.0797,6.0856,6.094,6.094,6.1061,6.1098,6.1098,6.1098,6.1098,6.1098,6.1098,6.1098,6.1098,6.1098,6.1098,6.1098,6.1098,6.1098,6.1098,6.1131,6.145,6.1819,6.2233,6.2979,6.3625,6.4106,6.463,6.5177,6.5387,6.5387,4.7294,4.7383,4.772,4.8042,4.8434,4.9028,4.96,5.0095,5.0488,5.0962,5.1403,5.1745,5.2004,5.2329,5.2814,5.3068,5.3213,5.3372,5.3515,5.3594,5.3789,5.3971,5.4075,5.4252,5.4539,5.4773,5.4839,5.4991,5.5118,5.5169,5.5219,5.5219,5.5219,5.5219,5.5219,5.5219,5.5219,5.5219,5.5219,5.5219,5.5219,5.5219,5.5219,5.5219,5.5219,5.5219,5.5219,5.5219,5.5219,5.5219,5.5219,5.5219,5.5219,5.5219,5.5219,5.5219,5.5219,5.5219,5.5219,5.5219,5.5219,5.5219,5.5219,5.5219,5.5219,5.5244,5.532,5.527,5.5521,5.5656,5.574,5.5889,5.6013,5.6087,5.6185,5.6293,5.6497,5.694,5.7298,5.7676,5.8257,5.8927,5.953,6.0033,6.0458,6.0543,6.0628,6.0696,6.0818,6.0919,6.1098,6.1098,6.1098,6.1098,6.1098,6.1098,6.1098,6.1098,6.1098,6.1098,6.1098,6.1098,6.1098,6.1098,6.1098,6.1098,6.1384,6.1902,6.2532,6.3161,6.3791,6.4514,6.5254,6.5353,6.5387,4.6785,4.6976,4.7138,4.7362,4.772,4.8305,4.8724,4.907,4.9698,5.0207,5.0558,5.092,5.1403,5.1923,5.2289,5.2573,5.2841,5.2986,5.3146,5.3266,5.3436,5.362,5.3893,5.4034,5.423,5.4462,5.4539,5.4681,5.49,5.5118,5.5219,5.5219,5.5219,5.5219,5.5219,5.5219,5.5219,5.5219,5.5219,5.5219,5.5219,5.5219,5.5219,5.5219,5.5219,5.5219,5.5219,5.5219,5.5219,5.5219,5.5219,5.5219,5.5219,5.5219,5.5219,5.5219,5.5219,5.5219,5.5219,5.5219,5.5219,5.5219,5.5219,5.5219,5.5219,5.5219,5.5219,5.5219,5.528,5.5355,5.5381,5.5471,5.5506,5.5581,5.5706,5.5805,5.5973,5.6302,5.67,5.7084,5.7464,5.8096,5.8769,5.9353,5.9821,6.0103,6.0292,6.0484,6.0591,6.0713,6.0898,6.1098,6.1098,6.1098,6.1098,6.1098,6.1098,6.1098,6.1098,6.1098,6.1098,6.1098,6.1098,6.1098,6.1098,6.1098,6.1152,6.15,6.2134,6.283,6.3542,6.4349,6.5144,6.537,6.5387,4.6464,4.6686,4.6686,4.684,4.7142,4.7657,4.7951,4.8172,4.8811,4.9328,4.9727,5.0165,5.0809,5.1389,5.165,5.1991,5.2465,5.2546,5.2761,5.2921,5.3107,5.3345,5.3568,5.3736,5.393,5.4215,5.4215,5.437,5.4641,5.4849,5.5002,5.5194,5.5219,5.5219,5.5219,5.5219,5.5219,5.5219,5.5219,5.5219,5.5219,5.5219,5.5219,5.5219,5.5219,5.5219,5.5219,5.5219,5.5219,5.5219,5.5219,5.5219,5.5219,5.5219,5.5219,5.5219,5.5219,5.5219,5.5219,5.5219,5.5219,5.5219,5.5219,5.5219,5.5219,5.5219,5.5219,5.5219,5.5219,5.5219,5.5219,5.5219,5.527,5.533,5.5406,5.5456,5.5556,5.5899,5.613,5.6375,5.6763,5.718,5.784,5.8571,5.9098,5.9548,5.9892,6.0184,6.0378,6.0506,6.0734,6.094,6.1061,6.1061,6.1098,6.1098,6.1098,6.1098,6.1098,6.1098,6.1098,6.1098,6.1098,6.1098,6.1148,6.1334,6.15,6.1583,6.1748,6.2764,6.3675,6.4316,6.4912,6.5227,6.5387,4.6313,4.6343,4.6343,4.6554,4.681,4.6853,4.7227,4.769,4.7808,4.826,4.8897,4.9585,5.0165,5.0614,5.1072,5.1458,5.1841,5.2127,5.237,5.268,5.2962,5.3042,5.3213,5.341,5.3605,5.3826,5.3852,5.4034,5.4278,5.437,5.4718,5.5118,5.5118,5.5169,5.5219,5.5219,5.5219,5.5219,5.5219,5.5219,5.5219,5.5219,5.5219,5.5219,5.5219,5.5219,5.5219,5.5219,5.5219,5.5219,5.5219,5.5219,5.5219,5.5219,5.5219,5.5219,5.5219,5.5219,5.5219,5.5219,5.5219,5.5219,5.5219,5.5219,5.5219,5.5219,5.5219,5.5219,5.5219,5.5219,5.5219,5.5219,5.5219,5.5244,5.528,5.528,5.5381,5.5506,5.5715,5.5765,5.6072,5.6546,5.6868,5.759,5.8342,5.8805,5.9381,5.9706,6.0163,6.0356,6.0569,6.0776,6.0961,6.104,6.1082,6.1098,6.1098,6.1098,6.1098,6.1098,6.1098,6.1098,6.1098,6.1334,6.145,6.167,6.1968,6.2333,6.273,6.3194,6.3824,6.4448,6.4945,6.5293,6.5387,4.6283,4.6283,4.6283,4.6373,4.6524,4.6716,4.6942,4.7155,4.7307,4.7749,4.836,4.8926,4.9442,4.9925,5.032,5.0683,5.1017,5.1293,5.1677,5.2046,5.2262,5.2519,5.2734,5.2921,5.308,5.3198,5.3331,5.3541,5.3789,5.3904,5.4267,5.459,5.4773,5.5067,5.5143,5.5194,5.5219,5.5219,5.5219,5.5219,5.5219,5.5219,5.5219,5.5219,5.5219,5.5219,5.5219,5.5219,5.5219,5.5219,5.5219,5.5219,5.5219,5.5219,5.5219,5.5219,5.5219,5.5219,5.5219,5.5219,5.5219,5.5219,5.5219,5.5219,5.5219,5.5219,5.5219,5.5219,5.5219,5.5219,5.5219,5.5219,5.5219,5.5219,5.5219,5.5219,5.527,5.5355,5.5456,5.5566,5.5715,5.5973,5.6277,5.6579,5.7338,5.8042,5.8639,5.9219,5.9684,6.0136,6.0313,6.0569,6.0755,6.0961,6.1019,6.1061,6.1082,6.1098,6.1098,6.1164,6.1218,6.1119,6.1185,6.1434,6.1885,6.2233,6.2681,6.3227,6.3609,6.3841,6.4155,6.4564,6.4995,6.5353,6.5387,4.6283,4.6283,4.6283,4.6283,4.6313,4.6554,4.6644,4.6673,4.6845,4.7231,4.7804,4.8172,4.8637,4.9127,4.9471,4.9868,5.0179,5.0488,5.0892,5.1224,5.1541,5.1855,5.2154,5.237,5.2451,5.2519,5.2707,5.296,5.3078,5.3395,5.3658,5.3919,5.4178,5.4491,5.5017,5.5169,5.5194,5.5219,5.5219,5.5219,5.5219,5.5219,5.5219,5.5219,5.5219,5.5219,5.5219,5.5219,5.5219,5.5219,5.5219,5.5219,5.5219,5.5219,5.5219,5.5219,5.5219,5.5219,5.5219,5.5219,5.5219,5.5219,5.5219,5.5219,5.5219,5.5219,5.5219,5.5219,5.5219,5.5219,5.5219,5.5219,5.5219,5.5219,5.5219,5.5219,5.5219,5.527,5.533,5.5431,5.5531,5.5591,5.5864,5.6195,5.6836,5.7574,5.825,5.8753,5.9158,5.9596,5.9963,6.0249,6.0548,6.0755,6.094,6.1002,6.1061,6.1098,6.1148,6.1351,6.1384,6.1351,6.1682,6.2266,6.2664,6.2929,6.3327,6.3824,6.4106,6.4304,6.4636,6.4929,6.5078,6.5387,6.5387,4.6283,4.6283,4.6283,4.6283,4.6283,4.6313,4.6343,4.6373,4.6391,4.6601,4.7032,4.7497,4.7896,4.826,4.8566,4.897,4.9385,4.9585,4.994,5.0446,5.0767,5.1072,5.1321,5.1527,5.1677,5.1841,5.2032,5.2167,5.2275,5.2598,5.2892,5.309,5.3316,5.3803,5.4711,5.5042,5.5169,5.5194,5.5143,5.5169,5.5169,5.5169,5.5219,5.5219,5.5219,5.5219,5.5219,5.5219,5.5219,5.5219,5.5219,5.5219,5.5219,5.5219,5.5219,5.5219,5.5219,5.5219,5.5219,5.5219,5.5219,5.5219,5.5219,5.5219,5.5219,5.5219,5.5219,5.5219,5.5219,5.5219,5.5219,5.5219,5.5219,5.5219,5.5219,5.5219,5.5219,5.5219,5.5295,5.5305,5.528,5.5305,5.5581,5.5914,5.6488,5.7147,5.7817,5.828,5.8617,5.9001,5.9397,5.9859,6.0206,6.0484,6.0692,6.094,6.1061,6.1098,6.1318,6.1632,6.1952,6.2134,6.2548,6.3111,6.3377,6.3575,6.3973,6.4404,6.4586,6.4763,6.5044,6.5309,6.537,6.5387,6.5387,4.6283,4.6283,4.6283,4.6283,4.6283,4.6283,4.6283,4.6283,4.6313,4.6494,4.6776,4.7062,4.7273,4.7543,4.785,4.8172,4.8363,4.8868,4.9228,4.9571,4.9897,5.0179,5.0432,5.0586,5.0725,5.0948,5.1211,5.1458,5.1623,5.1868,5.2086,5.2261,5.2557,5.3302,5.4023,5.4462,5.4601,5.4641,5.4758,5.4915,5.4941,5.5093,5.5194,5.5194,5.5194,5.5219,5.5219,5.5219,5.5219,5.5219,5.5219,5.5219,5.5219,5.5219,5.5219,5.5219,5.5219,5.5219,5.5219,5.5219,5.5219,5.5219,5.5219,5.5219,5.5219,5.5219,5.5219,5.5219,5.5219,5.5219,5.5219,5.5219,5.5219,5.5219,5.5219,5.5219,5.5219,5.5219,5.5244,5.5244,5.5219,5.5219,5.5381,5.5556,5.6022,5.6342,5.6932,5.7464,5.784,5.8303,5.8753,5.9331,5.9772,6.012,6.0453,6.0802,6.1219,6.1426,6.1796,6.2233,6.2515,6.2863,6.3327,6.3874,6.4039,6.4222,6.4586,6.4879,6.5028,6.5243,6.5337,6.5387,6.5387,6.5387,6.5387,4.6283,4.6283,4.6283,4.6283,4.6283,4.6283,4.6283,4.6283,4.6313,4.6434,4.6584,4.6614,4.681,4.7095,4.7273,4.7497,4.753,4.7896,4.8276,4.8624,4.8955,4.9242,4.9471,4.9613,4.984,5.0066,5.032,5.0572,5.0683,5.1003,5.1114,5.1279,5.1731,5.2166,5.2849,5.3393,5.4112,5.4189,5.4374,5.4517,5.4671,5.4849,5.5042,5.5067,5.5118,5.5219,5.5219,5.5194,5.5194,5.5194,5.5194,5.5194,5.5194,5.5194,5.5194,5.5219,5.5219,5.5219,5.5219,5.5219,5.5219,5.5219,5.5219,5.5219,5.5219,5.5219,5.5219,5.5219,5.5219,5.5219,5.5219,5.5219,5.5219,5.5219,5.5219,5.5219,5.5219,5.5219,5.5219,5.5219,5.5219,5.5219,5.5219,5.5305,5.5566,5.5765,5.5988,5.6546,5.7124,5.7653,5.8142,5.8692,5.9286,5.9722,6.0239,6.0792,6.1243,6.1734,6.2225,6.2761,6.331,6.3691,6.4155,6.4531,6.4664,6.4846,6.5144,6.5353,6.5326,6.5326,6.5353,6.5387,6.5387,6.5387,6.5387,4.6283,4.6283,4.6283,4.6283,4.6283,4.6283,4.6283,4.6283,4.6283,4.6301,4.6313,4.6331,4.6524,4.6746,4.6793,4.6917,4.7129,4.7248,4.7455,4.772,4.8114,4.8334,4.8566,4.8797,4.8926,4.9112,4.9312,4.9471,4.9598,4.9883,4.9996,5.0179,5.067,5.0989,5.154,5.2247,5.3129,5.346,5.3736,5.3893,5.4086,5.4502,5.4645,5.4747,5.4875,5.5002,5.5027,5.5012,5.5078,5.5078,5.5103,5.5128,5.5128,5.5169,5.5169,5.5194,5.5169,5.5219,5.5219,5.5219,5.5219,5.5219,5.5219,5.5219,5.5219,5.5219,5.5219,5.5219,5.5219,5.5219,5.5219,5.5219,5.5219,5.5219,5.5219,5.5219,5.5219,5.5219,5.5219,5.5219,5.5219,5.5219,5.5219,5.527,5.5305,5.5406,5.5656,5.5963,5.6521,5.7124,5.7606,5.8072,5.8662,5.9312,5.9899,6.0603,6.1469,6.2015,6.2711,6.3265,6.387,6.4393,6.468,6.4978,6.5243,6.5387,6.5387,6.5387,6.5387,6.5387,6.5387,6.5387,6.5387,6.5387,6.5387,4.6283,4.6283,4.6283,4.6283,4.6283,4.6283,4.6283,4.6283,4.6283,4.6283,4.6283,4.6283,4.6373,4.6446,4.6421,4.6511,4.6631,4.678,4.693,4.7168,4.7409,4.7514,4.7648,4.7795,4.7925,4.8114,4.8289,4.8463,4.8637,4.8868,4.9156,4.9427,4.9685,4.9897,5.0165,5.0698,5.1622,5.2408,5.2771,5.3143,5.3471,5.3893,5.4049,5.4219,5.4425,5.4539,5.4549,5.4549,5.4575,5.4549,5.4549,5.4549,5.4549,5.4575,5.4615,5.4915,5.5067,5.5219,5.5219,5.5219,5.5219,5.5219,5.5219,5.5219,5.5219,5.5219,5.5219,5.5219,5.5219,5.5219,5.5219,5.5219,5.5219,5.5219,5.5219,5.5219,5.5219,5.5219,5.5219,5.5219,5.5219,5.5219,5.5219,5.5219,5.527,5.5244,5.5345,5.5606,5.5939,5.6537,5.7076,5.7535,5.8208,5.888,5.9703,6.0451,6.1455,6.2382,6.3046,6.3758,6.4431,6.4889,6.5143,6.5287,6.537,6.5387,6.5387,6.5387,6.5387,6.5387,6.5387,6.5387,6.5387,6.5387,6.5387,4.6283,4.6283,4.6283,4.6283,4.6283,4.6283,4.6283,4.6283,4.6283,4.6283,4.6283,4.6283,4.6283,4.6313,4.6313,4.6343,4.6373,4.6524,4.6614,4.6691,4.693,4.7036,4.7053,4.7159,4.7396,4.7455,4.7514,4.7677,4.7837,4.7954,4.8188,4.8318,4.8682,4.8811,4.897,4.9371,4.9983,5.0851,5.154,5.2099,5.2611,5.3064,5.3302,5.3445,5.3733,5.389,5.3956,5.3942,5.3968,5.3982,5.3982,5.3982,5.4034,5.4086,5.4278,5.4579,5.4864,5.4991,5.5017,5.5169,5.5194,5.5219,5.5219,5.5219,5.5219,5.5219,5.5219,5.5219,5.5219,5.5219,5.5219,5.5219,5.5219,5.5219,5.5219,5.5219,5.5219,5.5219,5.5219,5.5219,5.5219,5.5219,5.5219,5.5219,5.5219,5.5219,5.5219,5.532,5.5556,5.5914,5.6473,5.6988,5.7768,5.8562,5.9418,6.0409,6.1508,6.2499,6.3345,6.4057,6.4835,6.515,6.5197,6.5286,6.5387,6.5387,6.5387,6.5387,6.5387,6.5387,6.5387,6.5387,6.5387,6.5387,6.5387,4.6283,4.6283,4.6283,4.6283,4.6283,4.6283,4.6283,4.6283,4.6283,4.6283,4.6283,4.6283,4.6283,4.6283,4.6283,4.6283,4.6313,4.6373,4.6403,4.6313,4.6614,4.6733,4.681,4.6993,4.6981,4.7057,4.7129,4.7129,4.7189,4.7307,4.7366,4.7235,4.7602,4.7867,4.7971,4.8276,4.8813,4.9288,5.0082,5.0739,5.1527,5.2099,5.2462,5.2543,5.289,5.3249,5.3316,5.3343,5.3369,5.3357,5.3357,5.3275,5.3422,5.3565,5.3838,5.4189,5.4491,5.4722,5.4864,5.5017,5.5143,5.5169,5.5219,5.5219,5.5219,5.5219,5.5219,5.5219,5.5219,5.5219,5.5219,5.5219,5.5219,5.5219,5.5219,5.5219,5.5219,5.5219,5.5219,5.5219,5.5219,5.5219,5.5219,5.5219,5.5219,5.5219,5.5219,5.5219,5.541,5.5621,5.6141,5.6702,5.7378,5.8294,5.9415,6.0439,6.1591,6.2594,6.339,6.4021,6.4548,6.4895,6.5167,6.5285,6.5387,6.5387,6.5387,6.5387,6.5387,6.5387,6.5387,6.5387,6.5387,6.5387,6.5387,4.6283,4.6283,4.6283,4.6283,4.6283,4.6283,4.6283,4.6283,4.6283,4.6283,4.6283,4.6283,4.6283,4.6283,4.6283,4.6283,4.6283,4.6283,4.6283,4.6313,4.6434,4.6494,4.6434,4.6571,4.6576,4.6528,4.6571,4.6721,4.684,4.6917,4.6993,4.7163,4.7294,4.7277,4.7265,4.7602,4.7808,4.813,4.8524,4.9358,5.0236,5.0712,5.1017,5.1307,5.1663,5.2003,5.2099,5.2194,5.218,5.2194,5.2221,5.2302,5.2491,5.2771,5.317,5.3632,5.3933,5.4245,5.4583,5.4788,5.49,5.5118,5.5194,5.5194,5.5219,5.5219,5.5219,5.5219,5.5219,5.5219,5.5219,5.5219,5.5219,5.5219,5.5219,5.5219,5.5219,5.5219,5.5219,5.5219,5.5219,5.5219,5.5219,5.5219,5.5219,5.5219,5.5219,5.5279,5.5489,5.572,5.6283,5.6804,5.7133,5.8014,5.9241,6.034,6.1399,6.2251,6.302,6.3618,6.4233,6.4735,6.5144,6.5308,6.5387,6.5387,6.5387,6.5387,6.5387,6.5387,6.5387,6.5387,6.5387,6.5387,6.5387,4.6283,4.6283,4.6283,4.6283,4.6283,4.6283,4.6283,4.6283,4.6283,4.6283,4.6283,4.6283,4.6283,4.6301,4.6283,4.6283,4.6283,4.6283,4.6283,4.6283,4.6283,4.6313,4.6283,4.6283,4.6343,4.6313,4.6313,4.6434,4.6596,4.6584,4.6678,4.6802,4.6815,4.6845,4.6845,4.6934,4.7083,4.7303,4.7396,4.7971,4.8928,4.9402,4.9828,5.0138,5.0488,5.0767,5.0892,5.0989,5.1017,5.1003,5.0975,5.1279,5.1499,5.1773,5.2234,5.2759,5.3211,5.3605,5.4037,5.4363,5.4594,5.4839,5.5032,5.5006,5.5194,5.5219,5.5219,5.5219,5.5219,5.5219,5.5219,5.5219,5.5219,5.5219,5.5219,5.5219,5.5219,5.5219,5.5219,5.5219,5.5219,5.5219,5.5219,5.5219,5.5219,5.5219,5.5219,5.5504,5.5683,5.6087,5.658,5.7039,5.745,5.807,5.9225,6.02,6.106,6.1903,6.2589,6.3285,6.3935,6.4627,6.5144,6.524,6.5336,6.5387,6.5387,6.5387,6.5387,6.5387,6.5387,6.5387,6.5387,6.5387,6.5387,4.6283,4.6283,4.6283,4.6283,4.6283,4.6283,4.625,4.6188,4.6188,4.6125,4.5969,4.5969,4.6137,4.6288,4.6283,4.6283,4.6283,4.6283,4.6283,4.6283,4.6283,4.6283,4.6283,4.6283,4.6283,4.6283,4.6313,4.6313,4.6343,4.6373,4.6373,4.6313,4.6283,4.6313,4.6403,4.6554,4.6763,4.684,4.6934,4.7027,4.7606,4.8191,4.8684,4.91,4.94,4.9698,4.9755,4.9783,4.9783,4.9783,4.9812,5.0109,5.0404,5.0656,5.1293,5.1814,5.2207,5.2718,5.3263,5.3684,5.4115,5.4506,5.4675,5.4905,5.5093,5.5194,5.5194,5.5219,5.5219,5.5219,5.5219,5.5219,5.5219,5.5219,5.5219,5.5219,5.5219,5.5219,5.5219,5.5219,5.5219,5.5219,5.5219,5.5219,5.5234,5.5234,5.5429,5.5728,5.6102,5.663,5.7176,5.7648,5.8098,5.8789,5.9411,5.99,6.065,6.1286,6.1969,6.2825,6.3611,6.424,6.4764,6.5122,6.5218,6.5291,6.5364,6.5387,6.5387,6.5387,6.5387,6.5387,6.5387,6.5387,6.5387,4.6283,4.6283,4.6283,4.6301,4.6258,4.6258,4.6062,4.5686,4.5635,4.5397,4.5091,4.5041,4.5342,4.6271,4.6283,4.6245,4.6175,4.6225,4.6258,4.6283,4.6283,4.6283,4.6283,4.6283,4.6283,4.6283,4.6283,4.6283,4.6283,4.6283,4.6283,4.6283,4.6283,4.6283,4.6313,4.6434,4.6464,4.6511,4.6481,4.6588,4.6695,4.7189,4.7619,4.7912,4.8071,4.8305,4.8434,4.8534,4.8521,4.8521,4.8621,4.8983,4.9257,4.9558,5.0124,5.0809,5.121,5.1786,5.2355,5.2931,5.3448,5.4063,5.4311,5.4737,5.4941,5.5143,5.5169,5.5194,5.5219,5.5219,5.5219,5.5219,5.5219,5.5219,5.5219,5.5219,5.5219,5.5219,5.5219,5.5219,5.5219,5.5219,5.5219,5.5234,5.5279,5.5399,5.5743,5.6057,5.6481,5.7109,5.7752,5.8183,5.8656,5.9014,5.9429,5.9509,6.0079,6.0685,6.1405,6.2293,6.3116,6.3777,6.4286,6.4718,6.5054,6.5195,6.5269,6.5358,6.5387,6.5387,6.5387,6.5387,6.5387,6.5387,6.5387]},{"header":{"parameterUnit":"m.s-1","parameterCategory":1,"la1":31.0,"la2":29.5877,"lo1":-88.7671,"lo2":-86.6584,"dy":0.0162,"dx":0.0185,"nx":115,"ny":88,"refTime":"2023-04-19T12:00:00:Z","depth":0,"parameterNumber":3,"parameterNumberName":"V-component_of_WINDS"},"data":[0.0,0.0,0.0,0.0,0.0,0.0,0.0,0.0,0.0,0.0,0.0,0.0,0.0,0.0,0.0,0.0,0.0,0.0,0.0,0.0,0.0,0.0,0.0,0.0,0.0,0.0,0.0,0.0,0.0,0.0,0.0,0.0,0.0,0.0,0.0,0.0,0.0,0.0,0.0,0.0,0.0,0.0,0.0,0.0,0.0,0.0,0.0,0.0,0.0,0.0,0.0,0.0,0.0,0.0,0.0,0.0,0.0,0.0,0.0,0.0,0.0,0.0,0.0,0.0,0.0,0.0,0.0,0.0,0.0,0.0,0.0,0.0,0.0,0.0,0.0,0.0,0.0,0.0,0.0,0.0,0.0,0.0,0.0,0.0,0.0,0.0,0.0,0.0,0.0,0.0,0.0,0.0,0.0,0.0,0.0,0.0,0.0,0.0,0.0,0.0,0.0,0.0,0.0,0.0,0.0,0.0,0.0,0.0,0.0,0.0,0.0,0.0,0.0,0.0,0.0,0.0,0.0,0.0,0.0,0.0,0.0,0.0,0.0,0.0,0.0,0.0,0.0,0.0,0.0,0.0,0.0,0.0,0.0,0.0,0.0,0.0,0.0,0.0,0.0,0.0,0.0,0.0,0.0,0.0,0.0,0.0,0.0,0.0,0.0,0.0,0.0,0.0,0.0,0.0,0.0,0.0,0.0,0.0,0.0,0.0,0.0,0.0,0.0,0.0,0.0,0.0,0.0,0.0,0.0,0.0,0.0,0.0,0.0,0.0,0.0,0.0,0.0,0.0,0.0,0.0,0.0,0.0,0.0,0.0,0.0,0.0,0.0,0.0,0.0,0.0,0.0,0.0,0.0,0.0,0.0,0.0,0.0,0.0,0.0,0.0,0.0,0.0,0.0,0.0,0.0,0.0,0.0,0.0,0.0,0.0,0.0,0.0,0.0,0.0,0.0,0.0,0.0,0.0,0.0,0.0,0.0,0.0,0.0,0.0,0.0,0.0,0.0,0.0,0.0,0.0,0.0,0.0,0.0,0.0,0.0,0.0,0.0,0.0,0.0,0.0,0.0,0.0,0.0,0.0,0.0,0.0,0.0,0.0,0.0,0.0,0.0,0.0,0.0,0.0,0.0,0.0,0.0,0.0,0.0,0.0,0.0,0.0,0.0,0.0,0.0,0.0,0.0,0.0,0.0,0.0,0.0,0.0,0.0,0.0,0.0,0.0,0.0,0.0,0.0,0.0,0.0,0.0,0.0,0.0,0.0,0.0,0.0,0.0,0.0,0.0,0.0,0.0,0.0,0.0,0.0,0.0,0.0,0.0,0.0,0.0,0.0,0.0,0.0,0.0,0.0,0.0,0.0,0.0,0.0,0.0,0.0,0.0,0.0,0.0,0.0,0.0,0.0,0.0,0.0,0.0,0.0,0.0,0.0,0.0,0.0,0.0,0.0,0.0,0.0,0.0,0.0,0.0,0.0,0.0,0.0,0.0,0.0,0.0,0.0,0.0,0.0,0.0,0.0,0.0,0.0,0.0,0.0,0.0,0.0,0.0,0.0,0.0,0.0,0.0,0.0,0.0,0.0,0.0,0.0,0.0,0.0,0.0,0.0,0.0,0.0,0.0,0.0,0.0,0.0,0.0,0.0,0.0,0.0,0.0,0.0,0.0,0.0,0.0,0.0,0.0,0.0,0.0,0.0,0.0,0.0,0.0,0.0,0.0,0.0,0.0,0.0,0.0,0.0,0.0,0.0,0.0,0.0,0.0,0.0,0.0,0.0,0.0,0.0,0.0,0.0,0.0,0.0,0.0,0.0,0.0,0.0,0.0,0.0,0.0,0.0,0.0,0.0,0.0,0.0,0.0,0.0,0.0,0.0,0.0,0.0,0.0,0.0,0.0,0.0,0.0,0.0,0.0,0.0,0.0,0.0,0.0,0.0,0.0,0.0,0.0,0.0,0.0,0.0,0.0,0.0,0.0,0.0,0.0,0.0,0.0,0.0,0.0,0.0,0.0,0.0,0.0,0.0,0.0,0.0,0.0,0.0,0.0,0.0,0.0,0.0,0.0,0.0,0.0,0.0,0.0,0.0,0.0,0.0,0.0,0.0,0.0,0.0,0.0,0.0,0.0,0.0,0.0,0.0,0.0,0.0,0.0,0.0,0.0,0.0,0.0,0.0,0.0,0.0,0.0,0.0,0.0,0.0,0.0,0.0,0.0,0.0,0.0,0.0,0.0,0.0,0.0,0.0,0.0,0.0,0.0,0.0,0.0,0.0,0.0,0.0,0.0,0.0,0.0,0.0,0.0,0.0,0.0,0.0,0.0,0.0,0.0,0.0,0.0,0.0,0.0,0.0,0.0,0.0,0.0,0.0,0.0,0.0,0.0,0.0,0.0,0.0,0.0,0.0,0.0,0.0,0.0,0.0,0.0,0.0,0.0,0.0,0.0,0.0,0.0,0.0,0.0,0.0,0.0,0.0,0.0,0.0,0.0,0.0,0.0,0.0,0.0,0.0,0.0,0.0,0.0,0.0,0.0,0.0,0.0,0.0,0.0,0.0,0.0,0.0,0.0,0.0,0.0,0.0,0.0,0.0,0.0,0.0,0.0,0.0,0.0,0.0,0.0,0.0,0.0,0.0,0.0,0.0,0.0,0.0,0.0,0.0,0.0,0.0,0.0,0.0,0.0,0.0,0.0,0.0,0.0,0.0,0.0,0.0,0.0,0.0,0.0,0.0,0.0,0.0,0.0,0.0,0.0,0.0,0.0,0.0,0.0,0.0,0.0,0.0,0.0,0.0,0.0,0.0,0.0,0.0,0.0,0.0,0.0,0.0,0.0,0.0,0.0,0.0,0.0,0.0,0.0,0.0,0.0,0.0,0.0,0.0,0.0,0.0,0.0,0.0,0.0,0.0,0.0,0.0,0.0,0.0,0.0,0.0,0.0,0.0,0.0,0.0,0.0,0.0,0.0,0.0,0.0,0.0,0.0,0.0,0.0,0.0,0.0,0.0,0.0,0.0,0.0,0.0,0.0,0.0,0.0,0.0,0.0,0.0,0.0,0.0,0.0,0.0,0.0,0.0,0.0,0.0,0.0,0.0,0.0,0.0,0.0,0.0,0.0,0.0,0.0,0.0,0.0,0.0,0.0,0.0,0.0,0.0,0.0,0.0,0.0,0.0,0.0,0.0,0.0,0.0,0.0,0.0,0.0,0.0,0.0,0.0,0.0,0.0,0.0,0.0,0.0,0.0,0.0,0.0,0.0,0.0,0.0,0.0,0.0,0.0,0.0,0.0,0.0,0.0,0.0,0.0,0.0,0.0,0.0,0.0,0.0,0.0,0.0,0.0,0.0,0.0,0.0,0.0,0.0,0.0,0.0,0.0,0.0,0.0,0.0,0.0,0.0,0.0,0.0,0.0,0.0,0.0,0.0,0.0,0.0,0.0,0.0,0.0,0.0,0.0,0.0,0.0,0.0,0.0,0.0,0.0,0.0,0.0,0.0,0.0,0.0,0.0,0.0,0.0,0.0,0.0,0.0,0.0,0.0,0.0,0.0,0.0,0.0,0.0,0.0,0.0,0.0,0.0,0.0,0.0,0.0,0.0,0.0,0.0,0.0,0.0,0.0,0.0,0.0,0.0,0.0,0.0,0.0,0.0,0.0,0.0,0.0,0.0,0.0,0.0,0.0,0.0,0.0,0.0,0.0,0.0,0.0,0.0,0.0,0.0,0.0,0.0,0.0,0.0,0.0,0.0,0.0,0.0,0.0,0.0,0.0,0.0,0.0,0.0,0.0,0.0,0.0,0.0,0.0,0.0,0.0,0.0,0.0,0.0,0.0,0.0,0.0,0.0,0.0,0.0,0.0,0.0,0.0,0.0,0.0,0.0,0.0,0.0,0.0,0.0,0.0,0.0,0.0,0.0,0.0,0.0,0.0,0.0,0.0,0.0,0.0,0.0,0.0,0.0,0.0,0.0,0.0,0.0,0.0,0.0,0.0,0.0,0.0,0.0,0.0,0.0,0.0,0.0,0.0,0.0,0.0,0.0,0.0,0.0,0.0,0.0,0.0,0.0,0.0,0.0,0.0,0.0,0.0,0.0,0.0,0.0,0.0,0.0,0.0,0.0,0.0,0.0,0.0,0.0,0.0,0.0,0.0,0.0,0.0,0.0,0.0,0.0,0.0,0.0,0.0,0.0,0.0,0.0,0.0,0.0,0.0,0.0,0.0,0.0,0.0,0.0,0.0,0.0,0.0,0.0,0.0,0.0,0.0,0.0,0.0,1.4109,0.0,0.0,0.0,0.0,0.0,0.0,0.0,0.0,0.0,0.0,0.0,0.0,0.0,0.0,0.0,0.0,0.0,0.0,0.0,0.0,0.0,0.0,0.0,0.0,0.0,0.0,0.0,0.0,0.0,0.0,0.0,0.0,0.0,0.0,0.0,0.0,0.0,0.0,0.0,0.0,0.0,0.0,0.0,0.0,0.0,0.0,0.0,0.0,0.0,0.0,0.0,0.0,0.0,0.0,0.0,0.0,0.0,0.0,0.0,0.0,0.0,0.0,0.0,0.0,0.0,0.0,0.0,0.0,0.0,0.0,0.0,0.0,0.0,0.0,0.0,0.0,0.0,0.0,0.0,0.0,0.0,0.0,0.0,0.0,0.0,0.0,0.0,0.0,0.0,0.0,0.0,0.0,0.0,0.0,0.0,0.0,0.0,0.0,0.0,0.0,0.0,0.0,0.0,0.0,0.0,0.0,0.0,0.0,0.0,0.0,1.4109,1.4109,1.4109,1.4109,1.4109,0.0,0.0,0.0,0.0,0.0,0.0,0.0,0.0,0.0,0.0,0.0,0.0,0.0,0.0,0.0,0.0,0.0,0.0,0.0,0.0,0.0,0.0,0.0,0.0,0.0,0.0,0.0,0.0,0.0,0.0,0.0,0.0,0.0,0.0,0.0,0.0,0.0,0.0,0.0,0.0,0.0,0.0,0.0,0.0,0.0,0.0,0.0,0.0,0.0,0.0,0.0,0.0,0.0,0.0,0.0,0.0,0.0,0.0,0.0,0.0,0.0,0.0,0.0,0.0,0.0,0.0,0.0,0.0,0.0,0.0,0.0,0.0,0.0,0.0,0.0,0.0,0.0,0.0,0.0,0.0,0.0,0.0,0.0,0.0,0.0,0.0,0.0,0.0,0.0,0.0,0.0,0.0,0.0,0.0,0.0,0.0,0.0,0.0,0.0,0.0,0.0,0.0,0.0,0.0,0.0,0.0,0.0,0.0,0.0,0.0,0.0,0.0,1.4109,1.4109,1.4109,0.0,0.0,0.0,0.0,0.0,0.0,0.0,0.0,0.0,0.0,0.0,0.0,0.0,0.0,0.0,0.0,0.0,0.0,0.0,0.0,0.0,0.0,0.0,0.0,0.0,0.0,0.0,0.0,0.0,0.0,0.0,0.0,0.0,0.0,0.0,0.0,0.0,0.0,0.0,0.0,0.0,0.0,0.0,0.0,0.0,0.0,0.0,0.0,0.0,0.0,0.0,0.0,0.0,0.0,0.0,0.0,0.0,0.0,0.0,0.0,0.0,0.0,0.0,0.0,0.0,0.0,0.0,0.0,0.0,0.0,0.0,0.0,0.0,0.0,0.0,0.0,0.0,0.0,0.0,0.0,0.0,0.0,0.0,0.0,0.0,0.0,0.0,0.0,0.0,0.0,0.0,0.0,0.0,0.0,0.0,0.0,0.0,0.0,0.0,0.0,0.0,0.0,0.0,0.0,0.0,0.0,0.0,0.0,0.0,0.0,1.4109,1.4109,1.4109,0.0,1.4109,0.0,0.0,0.0,0.0,0.0,0.0,0.0,0.0,0.0,0.0,0.0,0.0,0.0,0.0,0.0,0.0,0.0,0.0,0.0,0.0,0.0,0.0,0.0,0.0,0.0,0.0,0.0,0.0,0.0,0.0,0.0,0.0,0.0,0.0,0.0,0.0,0.0,0.0,0.0,0.0,0.0,0.0,0.0,0.0,0.0,0.0,0.0,0.0,0.0,0.0,0.0,0.0,0.0,0.0,0.0,0.0,0.0,0.0,0.0,0.0,0.0,0.0,0.0,0.0,0.0,0.0,0.0,0.0,0.0,0.0,0.0,0.0,0.0,0.0,0.0,0.0,0.0,0.0,0.0,0.0,0.0,0.0,0.0,0.0,0.0,0.0,0.0,0.0,0.0,0.0,0.0,0.0,0.0,0.0,0.0,0.0,0.0,0.0,0.0,0.0,0.0,0.0,0.0,0.0,0.0,0.0,0.0,0.0,0.0,0.0,1.4109,1.4109,1.4109,1.4109,0.0,0.0,0.0,0.0,0.0,0.0,0.0,0.0,0.0,0.0,0.0,0.0,0.0,0.0,0.0,0.0,0.0,0.0,0.0,0.0,0.0,0.0,0.0,0.0,0.0,0.0,0.0,0.0,0.0,0.0,0.0,0.0,0.0,0.0,0.0,0.0,0.0,0.0,0.0,0.0,0.0,0.0,0.0,0.0,0.0,0.0,0.0,0.0,0.0,0.0,0.0,0.0,0.0,0.0,0.0,0.0,0.0,0.0,0.0,0.0,0.0,0.0,0.0,0.0,0.0,0.0,0.0,0.0,0.0,0.0,0.0,0.0,0.0,0.0,0.0,0.0,0.0,0.0,0.0,0.0,0.0,0.0,0.0,0.0,0.0,0.0,0.0,0.0,0.0,0.0,0.0,0.0,0.0,0.0,0.0,0.0,0.0,0.0,0.0,0.0,0.0,0.0,0.0,0.0,0.0,0.0,0.0,0.0,0.0,0.0,1.435,1.435,1.435,1.435,1.435,1.4357,0.0,0.0,0.0,0.0,0.0,0.0,0.0,0.0,0.0,0.0,0.0,0.0,0.0,0.0,0.0,0.0,0.0,0.0,0.0,0.0,0.0,0.0,0.0,0.0,0.0,0.0,0.0,0.0,0.0,0.0,0.0,0.0,0.0,0.0,0.0,0.0,0.0,0.0,0.0,0.0,0.0,0.0,0.0,0.0,0.0,0.0,0.0,0.0,0.0,0.0,0.0,0.0,0.0,0.0,0.0,0.0,0.0,0.0,0.0,0.0,0.0,0.0,0.0,0.0,0.0,0.0,0.0,0.0,0.0,0.0,0.0,0.0,0.0,0.0,0.0,0.0,0.0,0.0,0.0,0.0,0.0,0.0,0.0,0.0,0.0,0.0,0.0,0.0,0.0,0.0,0.0,0.0,0.0,0.0,0.0,0.0,0.0,0.0,0.0,0.0,0.0,0.0,0.0,0.0,0.0,0.0,0.0,0.0,1.4968,1.4961,1.4968,1.4932,1.4946,1.4968,0.0,0.0,0.0,0.0,0.0,0.0,0.0,0.0,0.0,0.0,0.0,0.0,0.0,0.0,0.0,0.0,0.0,0.0,0.0,0.0,0.0,0.0,0.0,0.0,0.0,0.0,0.0,0.0,0.0,0.0,0.0,0.0,0.0,0.0,0.0,0.0,0.0,0.0,0.0,0.0,0.0,0.0,0.0,0.0,0.0,0.0,0.0,0.0,0.0,0.0,0.0,0.0,0.0,0.0,0.0,0.0,0.0,0.0,0.0,0.0,0.0,0.0,0.0,0.0,0.0,0.0,0.0,0.0,0.0,0.0,0.0,0.0,0.0,0.0,0.0,0.0,0.0,0.0,0.0,0.0,0.0,0.0,0.0,0.0,0.0,0.0,0.0,0.0,0.0,0.0,0.0,0.0,0.0,0.0,0.0,0.0,0.0,0.0,0.0,0.0,0.0,0.0,0.0,0.0,0.0,0.0,0.0,0.0,0.0,1.5015,1.5015,1.5015,1.5015,1.5015,1.5069,0.0,0.0,0.0,0.0,0.0,0.0,0.0,0.0,0.0,0.0,0.0,0.0,0.0,0.0,0.0,0.0,0.0,0.0,0.0,0.0,0.0,0.0,0.0,0.0,0.0,0.0,0.0,0.0,0.0,0.0,0.0,0.0,0.0,0.0,0.0,0.0,0.0,0.0,0.0,0.0,0.0,0.0,0.0,0.0,0.0,0.0,0.0,0.0,0.0,0.0,0.0,0.0,0.0,0.0,0.0,0.0,0.0,0.0,0.0,0.0,0.0,0.0,0.0,0.0,0.0,0.0,0.0,0.0,0.0,0.0,0.0,0.0,0.0,0.0,0.0,0.0,0.0,0.0,0.0,0.0,0.0,0.0,0.0,0.0,0.0,0.0,0.0,0.0,0.0,0.0,0.0,0.0,0.0,0.0,0.0,0.0,0.0,0.0,0.0,0.0,0.0,0.0,0.0,0.0,0.0,0.0,0.0,0.0,0.0,1.5244,0.0,1.5267,1.5267,1.5335,1.5472,0.0,0.0,0.0,0.0,0.0,0.0,0.0,0.0,0.0,0.0,0.0,0.0,0.0,0.0,0.0,0.0,0.0,0.0,0.0,0.0,0.0,0.0,0.0,0.0,0.0,0.0,0.0,0.0,0.0,0.0,0.0,0.0,0.0,0.0,0.0,0.0,0.0,0.0,0.0,0.0,0.0,0.0,0.0,0.0,0.0,0.0,0.0,0.0,0.0,0.0,0.0,0.0,0.0,0.0,0.0,0.0,0.0,0.0,0.0,0.0,0.0,0.0,0.0,0.0,0.0,0.0,0.0,0.0,0.0,0.0,0.0,0.0,0.0,0.0,0.0,0.0,0.0,0.0,0.0,0.0,0.0,0.0,0.0,0.0,0.0,0.0,0.0,0.0,0.0,0.0,0.0,0.0,0.0,0.0,0.0,0.0,0.0,0.0,0.0,0.0,0.0,0.0,0.0,0.0,0.0,0.0,0.0,0.0,1.5788,1.5795,1.5788,1.5768,1.5818,1.6025,1.618,0.0,0.0,0.0,0.0,0.0,0.0,0.0,0.0,0.0,0.0,0.0,0.0,0.0,0.0,0.0,0.0,0.0,0.0,0.0,0.0,0.0,0.0,0.0,0.0,0.0,0.0,0.0,0.0,0.0,0.0,0.0,0.0,0.0,0.0,0.0,0.0,0.0,0.0,0.0,0.0,0.0,0.0,0.0,0.0,0.0,0.0,0.0,0.0,0.0,0.0,0.0,0.0,0.0,0.0,0.0,0.0,0.0,0.0,0.0,0.0,0.0,0.0,0.0,0.0,0.0,0.0,0.0,0.0,0.0,0.0,0.0,0.0,0.0,0.0,0.0,0.0,0.0,0.0,0.0,0.0,0.0,0.0,0.0,0.0,0.0,0.0,0.0,0.0,0.0,0.0,0.0,0.0,0.0,0.0,0.0,0.0,0.0,0.0,0.0,0.0,0.0,0.0,0.0,0.0,0.0,0.0,0.0,0.0,0.0,1.5801,1.5801,1.5801,1.5801,1.6052,1.6289,0.0,0.0,0.0,0.0,0.0,0.0,0.0,0.0,0.0,0.0,0.0,0.0,0.0,0.0,0.0,0.0,0.0,0.0,0.0,0.0,0.0,0.0,0.0,0.0,0.0,0.0,0.0,0.0,0.0,0.0,0.0,0.0,0.0,0.0,0.0,0.0,0.0,0.0,0.0,0.0,0.0,0.0,0.0,0.0,0.0,0.0,0.0,0.0,0.0,0.0,0.0,0.0,0.0,0.0,0.0,0.0,0.0,0.0,0.0,0.0,0.0,0.0,0.0,0.0,0.0,0.0,0.0,0.0,0.0,0.0,0.0,0.0,0.0,0.0,0.0,0.0,0.0,0.0,0.0,0.0,0.0,0.0,0.0,0.0,0.0,0.0,0.0,0.0,0.0,0.0,0.0,0.0,0.0,0.0,0.0,0.0,0.0,0.0,0.0,0.0,0.0,0.0,0.0,0.0,0.0,0.0,0.0,0.0,0.0,1.6092,1.592,1.5855,1.595,1.6218,1.6478,1.6753,0.0,0.0,0.0,0.0,0.0,0.0,0.0,0.0,0.0,0.0,0.0,0.0,0.0,0.0,0.0,0.0,0.0,0.0,0.0,0.0,0.0,0.0,0.0,0.0,0.0,0.0,0.0,0.0,0.0,0.0,0.0,0.0,0.0,0.0,0.0,0.0,0.0,0.0,0.0,0.0,0.0,0.0,0.0,0.0,0.0,0.0,0.0,0.0,0.0,0.0,0.0,0.0,0.0,0.0,0.0,0.0,0.0,0.0,0.0,0.0,0.0,0.0,0.0,0.0,0.0,0.0,0.0,0.0,0.0,0.0,0.0,0.0,0.0,0.0,0.0,0.0,0.0,0.0,0.0,0.0,0.0,0.0,0.0,0.0,0.0,0.0,0.0,0.0,0.0,0.0,0.0,0.0,0.0,0.0,0.0,0.0,0.0,0.0,0.0,0.0,0.0,0.0,0.0,0.0,0.0,0.0,0.0,0.0,1.6612,1.6116,1.5974,1.6218,1.6478,1.673,0.0,0.0,0.0,0.0,0.0,0.0,0.0,0.0,0.0,0.0,0.0,0.0,0.0,0.0,0.0,0.0,0.0,0.0,0.0,0.0,0.0,0.0,0.0,0.0,0.0,0.0,0.0,0.0,0.0,0.0,0.0,0.0,0.0,0.0,0.0,0.0,0.0,0.0,0.0,0.0,0.0,0.0,0.0,0.0,0.0,0.0,0.0,0.0,0.0,0.0,0.0,0.0,0.0,0.0,0.0,0.0,0.0,0.0,0.0,0.0,0.0,0.0,0.0,0.0,0.0,0.0,0.0,0.0,0.0,0.0,0.0,0.0,0.0,0.0,0.0,0.0,0.0,0.0,0.0,0.0,0.0,0.0,0.0,0.0,0.0,0.0,0.0,0.0,0.0,0.0,0.0,0.0,0.0,0.0,0.0,0.0,0.0,0.0,0.0,0.0,0.0,0.0,0.0,0.0,0.0,0.0,0.0,0.0,0.0,1.6612,1.6471,1.6416,1.6494,1.676,1.6932,0.0,0.0,0.0,0.0,0.0,0.0,0.0,0.0,0.0,0.0,0.0,0.0,0.0,0.0,0.0,0.0,0.0,0.0,0.0,0.0,0.0,0.0,0.0,0.0,0.0,0.0,0.0,0.0,0.0,0.0,0.0,0.0,0.0,0.0,0.0,0.0,0.0,0.0,0.0,0.0,0.0,0.0,0.0,0.0,0.0,0.0,0.0,0.0,0.0,0.0,0.0,0.0,0.0,0.0,0.0,0.0,0.0,0.0,0.0,0.0,0.0,0.0,0.0,0.0,0.0,0.0,0.0,0.0,0.0,0.0,0.0,0.0,0.0,0.0,0.0,0.0,0.0,0.0,0.0,0.0,0.0,0.0,0.0,0.0,0.0,0.0,0.0,0.0,0.0,0.0,0.0,0.0,0.0,0.0,0.0,0.0,0.0,0.0,0.0,0.0,0.0,0.0,0.0,0.0,0.0,0.0,0.0,0.0,1.7059,1.6911,1.6887,1.6887,1.6887,1.6949,1.705,0.0,0.0,0.0,0.0,0.0,0.0,0.0,0.0,0.0,0.0,0.0,0.0,0.0,0.0,0.0,0.0,0.0,0.0,0.0,0.0,0.0,0.0,0.0,0.0,0.0,0.0,0.0,0.0,0.0,0.0,0.0,0.0,0.0,0.0,0.0,0.0,0.0,0.0,0.0,0.0,0.0,0.0,0.0,0.0,0.0,0.0,0.0,0.0,0.0,0.0,0.0,0.0,0.0,0.0,0.0,0.0,0.0,0.0,0.0,0.0,0.0,0.0,0.0,0.0,0.0,0.0,0.0,0.0,0.0,0.0,0.0,0.0,0.0,0.0,0.0,0.0,0.0,0.0,0.0,0.0,0.0,0.0,0.0,0.0,0.0,0.0,0.0,0.0,0.0,0.0,0.0,0.0,0.0,0.0,0.0,0.0,0.0,0.0,0.0,0.0,0.0,0.0,0.0,0.0,0.0,0.0,0.0,0.0,1.7404,1.7404,1.7404,1.7412,1.7404,1.7165,1.7113,0.0,0.0,0.0,0.0,0.0,0.0,0.0,0.0,0.0,0.0,0.0,0.0,0.0,0.0,0.0,0.0,0.0,0.0,0.0,0.0,0.0,0.0,0.0,0.0,0.0,0.0,0.0,0.0,0.0,0.0,0.0,0.0,0.0,0.0,0.0,0.0,0.0,0.0,0.0,0.0,0.0,0.0,0.0,0.0,0.0,0.0,0.0,0.0,0.0,0.0,0.0,0.0,0.0,0.0,0.0,0.0,0.0,0.0,0.0,0.0,0.0,0.0,0.0,0.0,0.0,0.0,0.0,0.0,0.0,0.0,0.0,0.0,0.0,0.0,0.0,0.0,0.0,0.0,0.0,0.0,0.0,0.0,0.0,0.0,0.0,0.0,0.0,0.0,0.0,0.0,0.0,0.0,0.0,0.0,0.0,0.0,0.0,0.0,0.0,0.0,0.0,0.0,0.0,0.0,0.0,0.0,0.0,0.0,1.8069,1.8094,1.8094,1.8094,1.8094,1.7532,1.7263,0.0,0.0,0.0,0.0,0.0,0.0,0.0,0.0,0.0,0.0,0.0,0.0,0.0,0.0,0.0,0.0,0.0,0.0,0.0,0.0,0.0,0.0,0.0,0.0,0.0,0.0,0.0,0.0,0.0,0.0,0.0,0.0,0.0,0.0,0.0,0.0,0.0,0.0,0.0,0.0,0.0,0.0,0.0,0.0,0.0,0.0,0.0,0.0,1.7121,0.0,0.0,0.0,0.0,0.0,0.0,0.0,0.0,0.0,0.0,0.0,0.0,0.0,0.0,0.0,0.0,0.0,0.0,0.0,0.0,0.0,0.0,0.0,0.0,0.0,0.0,0.0,0.0,0.0,0.0,0.0,0.0,0.0,0.0,0.0,0.0,0.0,0.0,0.0,0.0,0.0,0.0,0.0,0.0,0.0,0.0,0.0,0.0,0.0,0.0,0.0,0.0,0.0,0.0,0.0,0.0,0.0,0.0,0.0,1.8651,1.8683,1.8676,1.8676,1.8661,1.834,1.796,0.0,0.0,0.0,0.0,0.0,0.0,0.0,0.0,0.0,0.0,0.0,0.0,0.0,0.0,0.0,0.0,0.0,0.0,0.0,0.0,0.0,0.0,0.0,0.0,0.0,0.0,0.0,0.0,0.0,0.0,0.0,0.0,0.0,0.0,0.0,0.0,0.0,0.0,0.0,0.0,0.0,0.0,0.0,0.0,0.0,0.0,0.0,0.0,0.0,0.0,0.0,0.0,0.0,0.0,0.0,0.0,0.0,0.0,0.0,0.0,0.0,0.0,0.0,0.0,0.0,0.0,0.0,0.0,0.0,0.0,0.0,0.0,0.0,0.0,0.0,0.0,0.0,0.0,0.0,0.0,0.0,0.0,0.0,0.0,0.0,0.0,0.0,0.0,0.0,0.0,0.0,0.0,0.0,0.0,0.0,0.0,0.0,0.0,0.0,0.0,0.0,0.0,0.0,0.0,0.0,0.0,0.0,1.9165,1.9304,1.9328,1.9353,1.9378,1.937,1.9328,1.8939,1.8178,0.0,0.0,0.0,0.0,0.0,0.0,0.0,0.0,0.0,0.0,0.0,0.0,0.0,0.0,0.0,0.0,0.0,0.0,0.0,0.0,0.0,0.0,0.0,0.0,0.0,0.0,0.0,0.0,0.0,0.0,0.0,0.0,0.0,0.0,0.0,0.0,0.0,0.0,1.6528,1.6777,0.0,0.0,0.0,0.0,0.0,0.0,0.0,0.0,1.7419,0.0,0.0,0.0,0.0,0.0,0.0,0.0,0.0,0.0,0.0,0.0,0.0,0.0,0.0,0.0,0.0,0.0,0.0,0.0,0.0,0.0,0.0,0.0,0.0,0.0,0.0,0.0,0.0,0.0,0.0,0.0,0.0,0.0,0.0,0.0,0.0,0.0,0.0,0.0,0.0,0.0,0.0,0.0,0.0,0.0,0.0,0.0,0.0,0.0,0.0,0.0,0.0,0.0,0.0,0.0,0.0,1.9859,2.013,2.0281,2.0274,2.0478,2.0597,2.0597,2.0376,2.006,1.9629,0.0,0.0,0.0,0.0,0.0,0.0,0.0,0.0,0.0,0.0,0.0,0.0,0.0,0.0,0.0,0.0,0.0,0.0,0.0,0.0,0.0,0.0,0.0,0.0,0.0,0.0,0.0,0.0,0.0,0.0,0.0,0.0,0.0,0.0,0.0,0.0,0.0,0.0,0.0,1.7193,1.7244,0.0,0.0,0.0,0.0,0.0,0.0,0.0,0.0,1.8145,0.0,0.0,0.0,0.0,0.0,0.0,0.0,0.0,0.0,0.0,0.0,0.0,0.0,0.0,0.0,0.0,0.0,0.0,0.0,0.0,0.0,0.0,0.0,0.0,0.0,0.0,0.0,0.0,0.0,0.0,0.0,0.0,0.0,0.0,0.0,0.0,0.0,0.0,0.0,0.0,0.0,0.0,0.0,0.0,0.0,0.0,0.0,0.0,0.0,0.0,0.0,0.0,0.0,0.0,0.0,2.049,2.0796,2.1045,2.1318,2.1479,2.1522,2.153,2.1394,2.1118,0.0,0.0,0.0,0.0,0.0,0.0,0.0,0.0,0.0,0.0,0.0,0.0,0.0,0.0,0.0,0.0,0.0,0.0,0.0,0.0,0.0,0.0,0.0,0.0,0.0,0.0,0.0,0.0,0.0,0.0,0.0,0.0,0.0,0.0,0.0,0.0,0.0,0.0,0.0,0.0,1.7309,1.7361,1.7529,0.0,0.0,0.0,0.0,0.0,0.0,1.8179,1.8299,0.0,0.0,0.0,0.0,0.0,0.0,0.0,0.0,0.0,0.0,0.0,0.0,0.0,0.0,0.0,0.0,0.0,0.0,0.0,0.0,0.0,0.0,0.0,0.0,0.0,0.0,0.0,0.0,0.0,0.0,0.0,0.0,0.0,0.0,0.0,0.0,0.0,0.0,0.0,0.0,0.0,0.0,0.0,0.0,0.0,0.0,0.0,0.0,0.0,0.0,0.0,0.0,0.0,0.0,0.0,2.1053,2.1369,2.1784,2.2249,2.2333,2.2358,2.2358,2.2249,2.1971,0.0,0.0,0.0,0.0,0.0,0.0,0.0,0.0,0.0,0.0,0.0,0.0,0.0,0.0,0.0,0.0,0.0,0.0,0.0,0.0,0.0,0.0,0.0,0.0,0.0,0.0,0.0,0.0,0.0,0.0,0.0,0.0,0.0,0.0,0.0,0.0,0.0,0.0,0.0,0.0,0.0,1.7521,1.7843,1.7918,0.0,0.0,0.0,0.0,1.8401,1.8452,0.0,0.0,0.0,0.0,0.0,0.0,0.0,0.0,0.0,0.0,0.0,0.0,0.0,0.0,0.0,0.0,0.0,0.0,0.0,0.0,0.0,0.0,0.0,0.0,0.0,0.0,0.0,0.0,0.0,0.0,0.0,0.0,0.0,0.0,0.0,0.0,0.0,0.0,0.0,0.0,0.0,0.0,0.0,0.0,0.0,0.0,0.0,0.0,0.0,0.0,0.0,0.0,0.0,0.0,0.0,0.0,2.159,2.2106,2.2501,2.2803,2.3113,2.3238,2.3247,2.2728,2.2426,0.0,0.0,0.0,0.0,0.0,0.0,0.0,0.0,0.0,0.0,0.0,0.0,0.0,0.0,0.0,0.0,0.0,0.0,0.0,0.0,0.0,0.0,0.0,0.0,0.0,0.0,0.0,0.0,0.0,0.0,0.0,0.0,0.0,0.0,0.0,0.0,0.0,0.0,0.0,0.0,0.0,1.7882,1.8196,1.8247,1.8255,0.0,0.0,0.0,1.8738,1.8997,0.0,0.0,0.0,0.0,0.0,0.0,0.0,0.0,0.0,0.0,0.0,0.0,0.0,0.0,0.0,0.0,0.0,0.0,0.0,0.0,0.0,0.0,0.0,0.0,0.0,0.0,0.0,0.0,0.0,0.0,0.0,0.0,0.0,0.0,0.0,0.0,0.0,0.0,0.0,0.0,0.0,0.0,0.0,0.0,0.0,0.0,0.0,0.0,0.0,0.0,0.0,0.0,0.0,0.0,0.0,2.1623,2.2156,2.2669,2.3179,2.3553,2.3886,2.4019,2.4035,2.3628,2.3254,0.0,0.0,0.0,0.0,0.0,0.0,0.0,0.0,0.0,0.0,0.0,0.0,0.0,0.0,0.0,0.0,0.0,0.0,0.0,0.0,0.0,0.0,0.0,0.0,0.0,0.0,0.0,0.0,0.0,0.0,0.0,0.0,0.0,0.0,0.0,0.0,0.0,0.0,0.0,0.0,0.0,0.0,1.8533,1.8609,0.0,0.0,0.0,1.9067,1.9093,0.0,0.0,0.0,0.0,0.0,0.0,0.0,0.0,0.0,0.0,0.0,0.0,0.0,0.0,0.0,0.0,0.0,0.0,0.0,0.0,0.0,0.0,0.0,0.0,0.0,0.0,0.0,0.0,0.0,0.0,0.0,0.0,0.0,0.0,0.0,0.0,0.0,0.0,0.0,0.0,0.0,0.0,0.0,0.0,0.0,0.0,0.0,0.0,0.0,0.0,0.0,0.0,0.0,0.0,0.0,0.0,0.0,2.2875,2.3502,2.4085,2.4602,2.4836,2.4921,2.4911,2.4612,0.0,0.0,0.0,0.0,0.0,0.0,0.0,0.0,0.0,0.0,0.0,0.0,0.0,0.0,0.0,0.0,0.0,0.0,0.0,0.0,0.0,0.0,0.0,0.0,0.0,0.0,0.0,1.7309,0.0,0.0,0.0,0.0,0.0,0.0,0.0,0.0,0.0,0.0,0.0,0.0,0.0,0.0,1.854,1.8895,1.9005,1.9151,0.0,0.0,1.9513,1.9547,1.9539,1.9547,0.0,0.0,0.0,0.0,0.0,0.0,0.0,0.0,0.0,0.0,0.0,0.0,0.0,0.0,0.0,0.0,0.0,0.0,0.0,0.0,0.0,0.0,0.0,0.0,0.0,0.0,0.0,0.0,0.0,0.0,0.0,0.0,0.0,0.0,0.0,0.0,0.0,0.0,0.0,0.0,0.0,0.0,0.0,0.0,0.0,0.0,0.0,0.0,0.0,0.0,0.0,0.0,0.0,0.0,0.0,2.3888,2.4804,2.5494,2.6036,2.6061,2.6087,2.6087,2.5591,2.5306,0.0,0.0,0.0,0.0,0.0,0.0,0.0,0.0,0.0,0.0,0.0,0.0,0.0,0.0,0.0,0.0,0.0,0.0,0.0,0.0,0.0,0.0,0.0,0.0,0.0,0.0,0.0,0.0,0.0,0.0,0.0,0.0,0.0,0.0,0.0,0.0,0.0,0.0,0.0,0.0,0.0,1.8869,1.9224,1.9532,1.973,0.0,0.0,2.0144,2.0137,2.0137,2.0144,2.0137,0.0,0.0,0.0,0.0,0.0,0.0,0.0,0.0,0.0,0.0,0.0,0.0,0.0,0.0,0.0,0.0,0.0,0.0,0.0,0.0,0.0,0.0,0.0,0.0,0.0,0.0,0.0,0.0,0.0,0.0,0.0,0.0,0.0,0.0,0.0,0.0,0.0,0.0,0.0,0.0,0.0,0.0,0.0,0.0,0.0,0.0,0.0,0.0,0.0,0.0,0.0,0.0,0.0,2.4078,2.484,2.553,2.6078,2.6429,2.6618,2.6705,2.6705,2.631,2.6053,0.0,0.0,0.0,0.0,0.0,0.0,0.0,0.0,0.0,0.0,0.0,0.0,0.0,0.0,0.0,0.0,0.0,0.0,0.0,0.0,0.0,0.0,0.0,0.0,0.0,0.0,0.0,0.0,1.7901,1.7909,1.7925,0.0,0.0,0.0,0.0,0.0,0.0,0.0,0.0,0.0,0.0,1.9967,2.0076,2.0377,0.0,0.0,2.0456,2.0429,2.0237,2.021,2.021,2.021,2.021,0.0,0.0,0.0,0.0,0.0,0.0,0.0,0.0,0.0,0.0,0.0,0.0,0.0,0.0,0.0,0.0,0.0,0.0,0.0,0.0,0.0,0.0,0.0,0.0,0.0,0.0,0.0,0.0,0.0,0.0,0.0,0.0,0.0,0.0,0.0,0.0,0.0,0.0,0.0,0.0,0.0,0.0,0.0,0.0,0.0,0.0,0.0,0.0,0.0,0.0,0.0,0.0,2.5002,2.5677,2.6354,2.6828,2.7107,2.7299,2.7402,2.7367,2.7133,2.689,0.0,0.0,0.0,0.0,0.0,0.0,0.0,0.0,0.0,0.0,0.0,0.0,0.0,0.0,0.0,0.0,0.0,0.0,0.0,0.0,0.0,0.0,0.0,0.0,0.0,0.0,0.0,0.0,1.8471,1.8459,1.8562,0.0,0.0,0.0,0.0,0.0,0.0,0.0,0.0,0.0,0.0,2.0902,2.0902,2.1086,2.1191,2.098,2.0988,2.0918,2.0689,2.0558,2.0495,2.0495,0.0,0.0,0.0,0.0,0.0,0.0,0.0,0.0,0.0,0.0,0.0,0.0,0.0,0.0,0.0,0.0,0.0,0.0,0.0,0.0,0.0,0.0,0.0,0.0,0.0,0.0,0.0,0.0,0.0,0.0,0.0,0.0,0.0,0.0,0.0,0.0,0.0,0.0,0.0,0.0,0.0,0.0,0.0,0.0,0.0,0.0,0.0,0.0,0.0,0.0,0.0,0.0,0.0,0.0,2.6419,2.7363,2.7975,2.8225,2.8262,2.8242,2.8242,2.8011,2.7868,2.7831,0.0,0.0,0.0,0.0,0.0,0.0,0.0,0.0,0.0,0.0,0.0,0.0,0.0,0.0,0.0,0.0,0.0,0.0,0.0,0.0,0.0,0.0,0.0,0.0,0.0,0.0,1.91,1.8848,1.886,0.0,0.0,0.0,0.0,0.0,0.0,0.0,0.0,0.0,0.0,2.1354,2.1607,2.158,2.1603,2.1625,2.1597,2.1654,2.1666,2.1652,2.1374,2.1189,0.0,0.0,0.0,0.0,0.0,0.0,0.0,0.0,0.0,0.0,0.0,0.0,0.0,0.0,0.0,0.0,0.0,0.0,0.0,0.0,0.0,0.0,0.0,0.0,0.0,0.0,0.0,2.335,2.2636,0.0,0.0,0.0,0.0,0.0,0.0,0.0,0.0,0.0,0.0,0.0,2.5349,2.554,0.0,0.0,0.0,0.0,0.0,0.0,0.0,0.0,0.0,0.0,0.0,0.0,2.6919,2.7384,2.7732,2.804,2.8291,2.8301,2.8301,2.8301,2.8211,2.8067,2.7906,0.0,0.0,0.0,0.0,0.0,0.0,0.0,0.0,0.0,0.0,0.0,0.0,0.0,0.0,0.0,0.0,0.0,0.0,0.0,0.0,0.0,0.0,0.0,0.0,0.0,1.9722,0.0,0.0,0.0,0.0,0.0,0.0,0.0,0.0,0.0,0.0,0.0,2.2288,2.2288,2.2605,2.2724,2.2506,2.2692,2.2735,0.0,0.0,0.0,0.0,0.0,0.0,0.0,0.0,0.0,0.0,0.0,0.0,0.0,0.0,2.0714,2.0291,2.021,2.021,2.021,0.0,0.0,0.0,0.0,0.0,0.0,0.0,0.0,0.0,0.0,0.0,0.0,0.0,0.0,0.0,0.0,2.3635,0.0,0.0,0.0,0.0,0.0,0.0,0.0,0.0,2.5931,2.6095,2.6336,2.6505,2.6633,0.0,2.6932,2.6843,0.0,0.0,0.0,0.0,0.0,0.0,0.0,0.0,2.7493,2.787,2.7987,2.813,2.8301,2.8301,2.8301,2.8301,2.8301,2.8211,2.804,2.7835,2.7603,0.0,0.0,0.0,0.0,0.0,0.0,0.0,0.0,0.0,0.0,0.0,0.0,0.0,0.0,0.0,0.0,0.0,0.0,0.0,0.0,0.0,0.0,0.0,2.0634,0.0,0.0,0.0,0.0,0.0,0.0,0.0,0.0,0.0,2.2491,2.3048,2.3541,2.3541,2.3808,2.3934,2.3596,0.0,0.0,0.0,0.0,0.0,0.0,0.0,2.2381,2.2131,2.1945,2.181,2.1725,2.1439,2.1211,2.1211,0.0,0.0,2.0627,2.0546,2.0546,2.0546,2.0714,2.086,2.0868,2.1029,2.124,0.0,0.0,0.0,0.0,0.0,0.0,0.0,0.0,2.6104,2.5853,0.0,2.5506,0.0,0.0,0.0,0.0,0.0,0.0,0.0,0.0,2.6332,2.6451,2.6721,2.7168,2.7493,2.7767,2.8387,2.8538,2.8252,2.7343,0.0,0.0,0.0,0.0,0.0,0.0,2.7943,2.7979,2.8213,2.833,2.8376,2.8357,2.8337,2.8354,2.8344,2.8344,2.8327,2.8318,2.8318,2.8308,2.8308,0.0,0.0,0.0,0.0,0.0,0.0,0.0,0.0,0.0,0.0,0.0,0.0,0.0,0.0,0.0,0.0,0.0,0.0,0.0,0.0,2.1784,0.0,0.0,0.0,0.0,0.0,0.0,0.0,0.0,0.0,0.0,2.3554,2.4186,2.4726,2.4761,0.0,0.0,0.0,0.0,2.448,2.4522,2.4257,2.3962,2.3711,2.3357,2.2938,2.2322,0.0,0.0,2.1791,2.1476,2.1262,2.1247,2.1269,2.124,2.1247,2.1196,2.1189,2.1203,2.1218,2.1225,2.1247,2.1291,2.1372,2.8818,0.0,0.0,0.0,0.0,2.8419,2.811,2.7658,2.7503,2.7172,2.6711,2.6378,0.0,0.0,0.0,0.0,0.0,0.0,2.7745,2.7999,2.8173,2.8305,2.8393,2.8512,2.8635,2.8687,2.8886,2.8946,2.8867,2.8589,2.8265,2.7876,0.0,0.0,0.0,0.0,2.8428,2.8928,2.8822,2.8968,2.9512,2.9216,2.9018,2.8877,2.8867,2.8867,2.8867,2.8867,2.8867,2.8867,2.8701,0.0,0.0,0.0,0.0,0.0,0.0,0.0,0.0,0.0,0.0,0.0,0.0,0.0,0.0,0.0,0.0,0.0,0.0,0.0,2.3453,2.3261,2.3068,0.0,0.0,0.0,0.0,0.0,0.0,0.0,0.0,0.0,2.608,2.5672,2.5526,0.0,0.0,2.596,2.592,2.5886,2.5758,2.5593,0.0,0.0,0.0,2.4509,2.4106,2.3922,2.3286,2.2722,2.2466,2.2127,2.1906,2.1928,2.1906,2.1898,2.1884,2.1511,2.1292,2.1496,2.1554,2.1642,2.1847,2.1906,2.192,3.0185,2.9957,2.9336,2.9105,2.9105,2.9105,2.8876,2.8494,2.8494,2.8267,2.7899,2.7691,2.7588,2.7578,2.7432,0.0,0.0,0.0,2.8717,2.8887,2.9026,2.9105,2.9105,2.9105,2.9196,2.9367,2.95,2.9591,2.9665,2.9762,2.9601,2.9169,0.0,0.0,2.9162,2.9189,2.9389,2.9801,2.962,2.9748,3.0193,2.9971,2.9693,2.9397,2.9367,2.9286,2.9115,2.9105,2.9105,2.9105,2.8956,2.8807,0.0,0.0,0.0,0.0,0.0,0.0,0.0,0.0,0.0,0.0,0.0,2.3723,0.0,0.0,0.0,0.0,2.4171,2.4381,2.4648,2.4403,0.0,0.0,0.0,0.0,0.0,0.0,0.0,2.5646,2.6464,2.7188,2.7707,2.7243,2.6984,2.7212,2.7145,2.7028,2.6957,0.0,2.6729,2.6589,2.6431,2.6248,2.6122,2.5671,2.5197,2.4667,2.3988,2.3389,2.31,2.2789,2.2565,2.2438,2.2408,2.2356,2.2214,2.1854,2.1642,2.1847,2.1884,2.1964,2.2154,2.2184,2.2213,3.1408,3.1281,2.9879,2.9295,2.9285,2.9229,2.9209,2.9209,2.9205,2.9158,2.9185,2.9158,2.9132,2.9105,2.9105,0.0,0.0,2.9146,2.9182,2.9182,2.9249,2.9295,2.9295,2.9295,2.9507,2.9937,3.0187,3.0401,3.0588,3.0808,3.0839,3.0603,3.02,3.0162,3.0487,3.0487,3.0545,3.0585,3.0548,3.0575,3.0575,3.0575,3.0374,2.9947,2.991,2.9699,2.9275,2.9245,2.9225,2.9185,2.9158,2.9036,2.8781,0.0,0.0,0.0,0.0,0.0,0.0,0.0,0.0,0.0,0.0,0.0,0.0,0.0,0.0,0.0,2.5538,0.0,2.5557,2.534,0.0,0.0,0.0,2.5415,2.5798,2.6062,2.649,2.7262,0.0,0.0,0.0,0.0,2.8842,2.888,2.854,2.8199,2.7999,2.7721,2.7552,2.7728,2.7684,2.7558,2.7226,2.6821,2.6164,2.509,2.4459,2.4107,2.3788,2.3453,2.317,2.2901,2.2804,2.2699,2.2377,2.2332,2.225,2.2302,2.2235,2.2265,2.2293,2.2308,2.2389,3.1589,3.1388,3.1007,3.086,3.0819,3.0479,3.0325,3.0278,2.9955,2.9774,2.9774,2.9554,2.9343,2.9105,2.9105,2.9105,2.9142,2.9688,2.9947,2.9967,3.0577,3.085,3.085,3.085,3.0911,3.1014,3.1096,3.1148,3.1179,3.1234,3.1399,3.1607,3.1542,3.1146,3.0507,3.0497,3.078,3.1327,3.1113,3.1085,3.1327,3.1327,3.1235,3.1035,3.1014,3.0798,3.0319,3.0335,3.0144,2.9795,2.959,2.9459,2.938,2.9132,0.0,0.0,0.0,0.0,0.0,0.0,0.0,0.0,0.0,2.594,2.6017,0.0,2.6003,0.0,2.6736,2.6941,2.6915,2.6861,0.0,0.0,2.6606,2.6709,2.7096,2.7197,2.7521,2.8277,2.8586,2.8935,2.9479,2.9717,2.9986,3.0315,2.9613,2.9134,2.9329,2.9327,2.9277,2.9282,2.9103,2.884,2.8512,2.7809,2.7035,2.6236,2.5638,2.5115,2.4788,2.4239,2.384,2.3779,2.3564,2.3349,2.3295,2.3071,2.2893,2.2871,2.2696,2.2601,2.2828,2.2886,2.2908,3.2517,3.2371,3.2232,3.2215,3.2163,3.1359,3.1015,3.1004,3.0719,3.0615,3.0605,3.0471,3.03,3.0112,3.0139,3.0139,3.016,3.0567,3.0751,3.0761,3.1192,3.1408,3.1408,3.1408,3.1512,3.1643,3.1671,3.1785,3.1971,3.1981,3.2106,3.2315,3.2287,3.2022,3.1505,3.1467,3.1674,3.2079,3.1909,3.1881,3.2079,3.2079,3.1948,3.1692,3.1671,3.1464,3.1046,3.1025,3.0808,3.0336,3.0162,2.9937,2.9617,2.9422,2.9264,0.0,0.0,0.0,0.0,0.0,0.0,0.0,0.0,0.0,0.0,0.0,2.7063,0.0,2.7621,0.0,2.7809,2.7836,2.7815,2.7679,2.773,2.7835,2.808,2.8201,2.8511,2.9136,2.9429,2.9764,3.0228,3.0587,3.0869,3.1143,3.0819,3.0554,3.0415,3.0315,3.0263,3.0443,3.0321,3.0041,2.9628,2.9073,2.8425,2.7675,2.712,2.6655,2.629,2.572,2.5219,2.5031,2.4613,2.421,2.4052,2.3767,2.3545,2.3554,2.3532,2.346,2.3357,2.3537,2.3767,3.3859,3.3738,3.3465,3.3302,3.3187,3.2111,3.1598,3.1481,3.1402,3.1408,3.1408,3.1408,3.1408,3.1408,3.1408,3.1408,3.1408,3.1433,3.1464,3.1464,3.1553,3.1574,3.1585,3.1585,3.1754,3.2088,3.2109,3.2305,3.2698,3.276,3.2781,3.2781,3.2843,3.2874,3.2874,3.2874,3.2822,3.2698,3.2698,3.2698,3.2698,3.2698,3.2512,3.2119,3.2098,3.1891,3.1485,3.1491,3.1257,3.0839,3.077,3.0473,2.9782,2.9751,2.9589,0.0,2.9185,0.0,0.0,0.0,0.0,0.0,0.0,0.0,0.0,2.8517,2.8154,2.8145,2.8418,2.8591,2.8591,2.87,2.8721,2.8713,2.8789,2.8879,2.8908,2.9086,2.9401,2.9891,3.0198,3.0527,3.0928,3.1338,3.1601,3.1621,3.1855,3.1832,3.1368,3.1001,3.0967,3.1287,3.1294,3.0976,3.0525,3.0307,2.9896,2.9061,2.8503,2.8217,2.7819,2.7235,2.6703,2.6376,2.5744,2.5149,2.4857,2.4518,2.4266,2.4269,2.4478,2.4476,2.3981,2.4238,2.4655,3.5176,3.4561,3.4236,3.388,3.3501,3.3275,3.2682,3.186,3.1526,3.1408,3.1408,3.1408,3.1408,3.1408,3.1408,3.1408,3.1429,3.1726,3.1881,3.1902,3.2274,3.245,3.245,3.2478,3.2491,3.2574,3.2574,3.2615,3.2708,3.3089,3.3254,3.3265,3.3656,3.3843,3.3843,0.0,0.0,0.0,3.2698,3.2698,3.2698,3.2698,3.2667,3.2574,3.2564,0.0,3.1912,3.1891,3.1712,3.1278,3.1274,0.0,0.0,0.0,0.0,0.0,0.0,0.0,0.0,0.0,0.0,0.0,3.0706,3.0377,2.9239,2.9303,2.9442,2.9442,2.9833,3.0081,3.0091,3.0106,3.0018,2.9751,2.9726,2.9791,2.9916,2.9974,3.0168,3.0626,3.1025,3.1289,3.1396,3.1807,3.2071,3.2111,3.2149,3.2275,3.2448,3.2124,3.1928,3.1966,3.184,3.1587,3.1436,3.0994,3.056,2.995,2.94,2.8957,2.863,2.8014,2.7562,2.742,2.6655,2.6007,2.5911,2.5421,2.5014,2.4976,2.5221,2.5207,2.4583,2.4794,2.5098,3.6447,0.0,3.5561,3.5258,0.0,3.4841,3.4472,3.3919,3.2913,3.2479,3.249,3.249,3.2396,3.2305,3.2295,3.2183,3.2064,3.2253,3.2328,3.2367,3.2584,3.2812,3.3047,3.3047,3.3172,3.3389,3.3399,3.3399,3.341,3.3636,3.375,3.376,3.3988,3.4102,3.4102,3.4102,3.3874,3.3399,3.3389,3.3389,3.3379,3.3161,3.3047,3.3047,0.0,0.0,0.0,0.0,0.0,0.0,0.0,0.0,0.0,0.0,0.0,3.0698,3.056,3.0533,3.0688,3.0766,3.0873,3.1029,3.1263,3.1011,3.0049,3.0204,3.0281,3.0155,3.0366,3.0497,3.0497,3.0689,3.0708,3.0578,3.0729,3.101,3.1283,3.1344,3.1522,3.1939,3.2207,3.2346,3.2346,3.2733,3.2981,3.3011,3.3179,3.3347,3.3474,3.2951,3.2579,3.2744,3.2659,3.2483,3.2327,3.2037,3.1662,3.1308,3.0858,3.051,3.032,2.9581,2.8965,2.8909,2.8008,2.7182,2.7117,2.6505,2.5955,2.5938,2.6061,2.6134,2.5873,2.5906,2.5955,3.7799,3.7634,3.7078,3.6831,3.6713,3.6443,3.6316,3.6203,0.0,0.0,0.0,3.3809,3.3639,3.3394,3.3478,3.3338,3.3033,3.3061,3.3022,3.2936,3.2946,3.3161,3.3492,3.3503,3.3729,3.4091,3.4102,3.4102,3.4102,3.4174,3.4216,3.4226,3.4299,3.434,3.434,3.434,3.433,3.433,3.4174,3.4102,3.4091,3.3729,3.348,3.3408,3.3037,3.2791,3.2708,3.2698,3.2522,3.216,3.2129,3.1933,3.1526,3.1495,3.1464,3.1408,3.1408,3.1408,3.1408,3.1471,3.1526,3.1609,3.1647,3.1454,3.1031,3.1045,3.0996,3.0785,3.0828,3.0906,3.0906,3.1182,3.1388,3.143,3.1763,3.2166,3.2561,3.2641,3.2733,3.3125,3.3206,3.3306,3.3296,3.3618,3.3971,3.4031,3.425,3.4584,3.449,3.3823,3.3328,3.3691,3.3684,3.3515,3.3302,3.3142,3.3056,3.2864,3.2469,3.2257,3.2151,3.1473,3.0888,3.0832,2.9676,2.9,2.8735,2.8036,2.7342,2.7241,2.7148,2.7159,2.7369,2.721,2.698,3.9406,3.8752,3.8436,3.8017,3.7593,3.7577,3.7537,3.7406,3.5781,3.4897,3.4611,3.464,3.4458,3.4163,3.4617,3.4662,3.4339,3.4328,3.4181,0.0,3.3905,3.3946,3.3998,3.4009,3.404,3.4091,3.4102,3.4102,3.4143,3.4506,3.4692,3.4744,3.5045,3.5221,3.5231,3.5231,3.5231,3.518,3.4495,3.4102,3.4102,3.4029,3.3812,3.3428,3.3356,3.3099,3.2719,3.2708,3.2667,3.2605,3.2605,3.2398,3.1953,3.1912,3.1785,3.145,3.1408,3.1408,3.1419,3.1733,3.2088,3.2471,3.2512,3.2191,3.1409,3.164,3.1839,3.1783,3.2112,3.2398,3.2398,3.2431,3.2512,3.2617,3.272,3.2856,3.3104,3.3135,3.3195,3.3306,3.3488,3.375,3.3861,3.4112,3.4546,3.4837,3.5031,3.5191,3.5411,3.491,3.4584,3.4878,3.4727,3.4521,3.4391,3.4185,3.4169,3.4443,3.3852,3.3542,3.3794,3.3204,3.2752,3.276,3.1757,3.114,3.1023,3.0233,2.9478,2.9258,2.885,2.8486,2.8498,2.8244,2.8005,4.0746,4.0359,3.9928,3.9602,3.938,3.9179,3.9093,3.9017,3.8011,3.7036,3.6229,3.6035,3.5777,3.5511,3.5566,3.5411,3.5077,3.493,3.4793,3.4646,3.4635,3.4742,3.4933,3.4794,3.484,3.5039,3.4868,3.4827,3.4828,3.5024,3.5117,3.5128,3.5324,3.5397,3.5397,3.5397,3.5397,3.5418,3.5014,3.4807,3.4807,3.4599,3.4361,3.4154,3.3926,3.3563,3.3099,3.3089,3.2975,3.2708,3.2698,3.2605,3.2408,3.2398,3.2295,3.2126,3.2116,3.2106,3.2078,3.2274,3.2471,3.2688,3.2698,3.2646,3.2517,3.2437,3.2388,3.2408,3.2791,3.3078,3.3099,3.3306,3.3486,3.3554,3.3545,3.3681,3.4021,3.4063,3.4155,3.435,3.4554,3.4779,3.5025,3.5208,3.5494,3.5945,3.6037,3.6189,3.665,3.6213,3.5748,3.5618,3.5436,3.5328,3.5273,3.5165,3.5175,3.5338,3.5067,3.4903,3.5034,3.4628,3.4398,3.4289,3.3454,3.2846,3.274,3.1698,3.093,3.0455,2.9909,2.9454,2.9359,2.9223,2.8943,4.196,4.1846,4.1254,4.1045,4.1016,4.0757,4.0641,4.0565,4.0156,3.9355,3.8366,3.7685,3.718,3.6845,3.6684,3.6428,3.6036,3.5811,3.5704,3.5604,3.5545,3.5678,3.5928,3.5618,3.5666,3.5951,3.5675,3.5521,3.551,3.5459,3.5449,3.5542,3.5676,3.5728,3.5738,3.5738,3.5656,3.5552,3.5542,3.55,3.5376,3.5086,3.4889,3.4765,3.4444,3.404,3.3605,3.3563,3.3379,3.3058,3.2934,3.2853,3.2843,3.275,3.2698,3.2698,3.2698,3.275,3.2843,3.2853,3.2894,3.2998,3.2998,3.3182,3.348,3.3223,3.3008,3.3039,3.3348,3.3563,3.3605,3.3853,3.4133,3.4226,3.4257,3.4414,3.4848,3.4941,3.5024,3.5366,3.55,3.5697,3.5997,3.6215,3.6421,3.6814,3.7043,3.727,3.7538,3.7369,3.6932,3.6511,3.6193,3.6103,3.6095,3.6093,3.6146,3.6161,3.6126,3.61,3.61,3.5929,3.5712,3.5597,3.4973,3.447,3.4256,3.3319,3.2392,3.1944,3.1278,3.053,3.0208,3.0017,2.9693,4.3066,4.2721,4.2205,4.1984,4.1915,4.1899,4.1871,4.183,4.1529,4.1367,4.0936,3.9519,3.8499,3.8045,3.8342,3.8186,3.7701,3.7645,3.7443,3.715,3.687,3.6771,3.6762,3.6449,3.6308,3.6341,3.6035,3.5943,3.5944,3.5624,3.5656,3.6049,3.6463,3.6649,3.666,3.6649,3.6453,3.6059,3.6039,3.5842,3.5418,3.5356,3.5169,3.4796,3.4754,3.4506,3.406,3.404,3.4019,3.3946,3.3534,3.3356,3.3285,3.2936,3.2708,3.2719,3.2719,3.2903,3.3275,3.3317,3.3522,3.3915,3.3926,3.3957,3.4019,3.3998,3.3967,3.3978,3.4009,3.4029,3.4029,3.4112,3.434,3.4682,3.4723,3.4899,3.5262,3.5335,3.5356,3.5376,3.58,3.6048,3.6225,3.6556,3.6939,3.7363,3.7705,3.7912,3.8015,3.8013,3.7936,3.7773,3.7416,3.7008,3.6978,3.6981,3.7038,3.7278,3.7162,3.7091,3.7151,3.7081,3.6948,3.674,3.6502,3.6093,3.5887,3.5331,3.4421,3.3658,3.2894,3.2053,3.1182,3.0649,3.0102,4.4045,4.3838,4.3144,4.2564,4.2135,4.207,4.207,4.207,4.1944,4.1887,4.1806,4.1131,4.0378,3.9628,3.9487,3.9244,3.9019,3.8823,3.8544,3.8235,3.8085,3.7946,3.7758,3.7456,3.7314,3.7371,3.7074,3.6934,3.7043,3.696,3.6845,3.6833,3.702,3.6997,3.6837,3.6804,3.6711,3.6525,3.6515,3.6287,3.5852,3.5531,3.5345,3.518,3.5148,3.4931,3.4558,3.4516,3.4382,3.4123,3.3905,3.3822,3.3822,3.3646,3.3513,3.3513,3.3524,3.3625,3.3801,3.3822,3.3895,3.4091,3.4102,3.4205,3.4485,3.4506,3.4599,3.4827,3.4661,3.4506,3.4527,3.4744,3.4952,3.5117,3.5148,3.5335,3.578,3.58,3.5893,3.6194,3.639,3.6629,3.6918,3.7343,3.7674,3.7891,3.8131,3.8214,3.8225,3.8225,3.8225,3.8181,3.7914,3.777,3.7737,3.777,3.7803,3.787,3.7837,3.7847,3.787,3.787,3.776,3.7737,3.7381,3.7136,3.7085,3.6292,3.5407,3.4849,3.3849,3.2684,3.1603,3.125,3.0789,4.484,4.4711,4.402,4.337,4.281,4.2798,4.267,4.2612,4.2724,4.2711,4.2572,4.265,4.2299,4.1603,4.0714,4.0223,4.0019,3.9785,3.9572,3.938,3.9343,3.9256,3.9141,3.8772,3.8636,3.8649,3.8292,3.8072,3.807,3.8199,3.8018,3.7709,3.7761,3.7695,3.7469,3.7372,3.7234,3.712,3.7055,3.6773,3.6328,3.5935,3.5645,3.5418,3.5397,3.5273,3.4962,3.4982,3.4827,3.4485,3.4361,3.4278,3.4278,3.4174,3.4102,3.4102,3.4102,3.4154,3.4278,3.4288,3.434,3.4454,3.4464,3.4579,3.4889,3.4972,3.5138,3.548,3.5304,3.5138,3.5024,3.5345,3.5562,3.5583,3.5666,3.5914,3.6256,3.6297,3.6422,3.6742,3.6887,3.7167,3.7601,3.7943,3.8173,3.8194,3.8204,3.8225,3.8225,3.8225,3.8225,3.8225,3.8181,3.8181,3.8225,3.8148,3.8225,3.8225,3.8148,3.8148,3.8225,3.8181,3.8181,3.7971,3.7827,3.776,3.7649,3.6954,3.6142,3.55,3.4505,3.3312,3.2544,3.2131,3.1603,4.546,4.5359,4.479,4.4485,4.4444,4.4419,4.4172,4.3688,4.4193,4.4184,4.3751,4.3946,4.4061,4.3833,4.2261,4.123,4.0752,4.0729,4.0804,4.088,4.066,4.0778,4.1116,4.0601,4.0294,4.0194,3.9679,3.9099,3.86,3.885,3.882,3.8497,3.8869,3.9081,3.8951,3.8656,3.8377,3.7934,3.7642,3.7239,3.6836,3.6742,3.6308,3.5594,3.5407,3.5397,3.5366,3.5356,3.5325,3.5314,3.4972,3.4785,3.4723,3.4361,3.4164,3.4154,3.4133,3.4319,3.4692,3.4754,3.491,3.5211,3.5263,3.5325,3.5356,3.5418,3.5614,3.6007,3.6028,3.5842,3.5552,3.5842,3.6038,3.6101,3.6453,3.667,3.6763,3.6773,3.6773,3.6929,3.7239,3.7601,3.81,3.8204,3.8225,3.8225,3.8225,3.8225,3.8225,3.8225,3.8225,3.8225,3.8225,3.8225,3.8225,3.8225,3.8225,3.8225,3.8225,3.8225,3.8225,3.8225,3.8225,3.8225,3.8114,3.8081,3.8071,3.767,3.6954,3.6156,3.5148,3.416,3.3546,3.3007,3.2447,4.5799,4.5472,4.5271,4.497,4.4602,4.4589,4.4464,4.4355,4.4502,4.4502,4.4351,4.4398,4.4457,4.4432,4.3813,4.3181,4.2645,4.2615,4.2561,4.2477,4.2382,4.221,4.192,4.1714,4.1567,4.1445,4.1232,4.0924,4.0596,4.0541,4.0318,4.0006,3.9921,3.9779,3.9506,3.9177,3.8818,3.8473,3.8298,3.7957,3.7323,3.7239,3.6939,3.6339,3.6018,3.5697,3.5397,3.5397,3.5397,3.5397,3.5262,3.518,3.5169,3.5024,3.4941,3.4931,3.4931,3.5014,3.5159,3.518,3.5242,3.5387,3.5707,3.5863,3.5914,3.6132,3.638,3.6515,3.6556,3.6453,3.639,3.6463,3.6546,3.6577,3.6711,3.696,3.7167,3.725,3.7353,3.7632,3.785,3.8038,3.8142,3.8225,3.8225,3.8225,3.8225,3.8225,3.8225,3.8225,3.8225,3.8225,3.8225,3.8225,3.8225,3.8225,3.8225,3.8225,3.8225,3.8225,3.8225,3.8225,3.8225,3.8225,3.8225,3.8181,3.8114,3.7893,3.7257,3.6596,3.5626,3.5158,3.4618,3.3971,3.3356,4.61,4.5786,4.5748,4.5547,4.5167,4.5141,4.5058,4.4945,4.5066,4.5054,4.4928,4.5066,4.5154,4.5129,4.5129,4.4952,4.4507,4.4074,4.377,4.3675,4.3687,4.3522,4.3289,4.3138,4.3044,4.2924,4.2735,4.2486,4.2111,4.1902,4.1614,4.1271,4.0938,4.0582,4.0214,3.9768,3.9374,3.9078,3.8814,3.8414,3.7933,3.7781,3.7498,3.7063,3.6722,3.6349,3.5862,3.5728,3.5614,3.5635,3.548,3.5397,3.5397,3.5397,3.5397,3.5397,3.5562,3.5645,3.5666,3.578,3.5873,3.5873,3.6142,3.6339,3.6359,3.6629,3.6846,3.697,3.7022,3.7053,3.7208,3.726,3.7187,3.7094,3.7156,3.7363,3.7664,3.7726,3.785,3.809,3.8173,3.8204,3.8225,3.8225,3.8225,3.8225,3.8225,3.8225,3.8225,3.8225,3.8225,3.8225,3.8225,3.8225,3.8225,3.8225,3.8225,3.8225,3.8225,3.8225,3.8225,3.8225,3.8225,3.8225,3.8225,3.8225,3.8114,3.7937,3.7515,3.6934,3.6529,3.6088,3.5509,3.4868,3.4373,4.6301,4.6245,4.6271,4.6238,4.6163,4.615,4.5949,4.561,4.6012,4.5886,4.5573,4.5999,4.6095,4.6183,4.61,4.6195,4.5867,4.488,4.4457,4.4548,4.4542,4.4783,4.5037,4.4756,4.4603,4.4565,4.4058,4.3447,4.2917,4.2822,4.2653,4.2325,4.1986,4.1614,4.1272,4.0669,4.0116,3.9648,3.9154,3.876,3.8638,3.8385,3.8011,3.7582,3.7555,3.7304,3.6847,3.6359,3.6121,3.607,3.5728,3.5428,3.5542,3.5552,3.5459,3.5573,3.5862,3.6059,3.6152,3.6484,3.6649,3.667,3.6773,3.6804,3.6815,3.6898,3.7105,3.7415,3.7519,3.7643,3.8028,3.809,3.7902,3.7622,3.7798,3.8069,3.8119,3.816,3.8214,3.8225,3.8225,3.8225,3.8225,3.8225,3.8225,3.8225,3.8225,3.8225,3.8225,3.8225,3.8225,3.8225,3.8225,3.8225,3.8225,3.8225,3.8225,3.8225,3.8225,3.8225,3.8225,3.8225,3.8225,3.8225,3.8225,3.8225,3.8225,3.8037,3.7971,3.7525,3.7223,3.701,3.6605,3.6074,3.5588,4.6283,4.6283,4.6283,4.6283,4.6283,4.6283,4.62,4.6075,4.625,4.6213,4.61,4.6225,4.6283,4.6283,4.6283,4.6283,4.6245,4.5817,4.5677,4.57,4.5712,4.5661,4.5629,4.5532,4.5379,4.5092,4.47,4.4391,4.4144,4.3927,4.3646,4.3334,4.3,4.2558,4.2018,4.155,4.0971,4.0182,3.9909,3.9571,3.9121,3.8956,3.8717,3.8393,3.8537,3.8497,3.8099,3.713,3.6608,3.6587,3.6453,3.637,3.6359,3.637,3.6359,3.639,3.6494,3.6587,3.6597,3.6722,3.6878,3.6867,3.7094,3.726,3.7322,3.7593,3.781,3.7976,3.7974,3.8057,3.815,3.8225,3.8142,3.8018,3.8109,3.8225,3.8225,3.8225,3.8225,3.8225,3.8225,3.8225,3.8225,3.8225,3.8225,3.8225,3.8225,3.8225,3.8225,3.8225,3.8225,3.8225,3.8225,3.8225,3.8225,3.8225,3.8225,3.8225,3.8225,3.8225,3.8225,3.8225,3.8225,3.8225,3.8225,3.8256,3.8245,3.821,3.8174,3.8166,3.7942,3.7821,3.7722,3.7348,3.6833,4.6403,4.6313,4.6283,4.6283,4.6283,4.6283,4.6283,4.6283,4.6283,4.6283,4.6283,4.6283,4.6283,4.6283,4.6283,4.6283,4.6283,4.6283,4.6283,4.6283,4.6283,4.6193,4.6012,4.5969,4.5817,4.5501,4.5288,4.508,4.4988,4.4785,4.4558,4.4311,4.3907,4.3408,4.2862,4.24,4.171,4.0938,4.0582,4.0203,3.968,3.9341,3.9121,3.8946,3.9078,3.9088,3.8838,3.8202,3.7726,3.7462,3.7283,3.7221,3.7189,3.72,3.7221,3.7242,3.7346,3.744,3.7451,3.7661,3.7702,3.7754,3.7963,3.812,3.815,3.8355,3.836,3.8404,3.826,3.8225,3.8214,3.8225,3.8225,3.8214,3.8214,3.8225,3.8225,3.8225,3.8225,3.8225,3.8225,3.8225,3.8225,3.8225,3.8225,3.8225,3.8225,3.8225,3.8225,3.8225,3.8225,3.8225,3.8225,3.8225,3.8225,3.8225,3.8225,3.8225,3.8225,3.8225,3.8225,3.8225,3.8225,3.8225,3.8225,3.8378,3.8409,3.8481,3.8476,3.8499,3.865,3.8658,3.8609,3.8391,3.8002,4.6644,4.6373,4.6373,4.6391,4.6391,4.6378,4.6421,4.6361,4.6343,4.6343,4.6343,4.6313,4.6283,4.6283,4.6283,4.6283,4.6283,4.6283,4.6283,4.6283,4.6283,4.6253,4.6253,4.6253,4.609,4.5848,4.5787,4.5666,4.541,4.5379,4.5331,4.5196,4.4693,4.4175,4.3709,4.3169,4.2558,4.1838,4.1217,4.0777,4.0409,3.9779,3.9374,3.9374,3.9451,3.944,3.9418,3.9551,3.9336,3.869,3.8231,3.8071,3.8008,3.8007,3.8061,3.8061,3.8359,3.8529,3.8668,3.8881,3.9115,3.9104,3.9093,3.9253,3.9101,3.8838,3.8725,3.8714,3.8493,3.8314,3.8281,3.8281,3.8248,3.8225,3.8225,3.8225,3.8225,3.8225,3.8225,3.8225,3.8225,3.8225,3.8225,3.8225,3.8225,3.8225,3.8225,3.8225,3.8225,3.8225,3.8225,3.8225,3.8225,3.8225,3.8225,3.8225,3.8225,3.8225,3.8225,3.8225,3.8225,3.8225,3.8225,3.8225,3.8305,3.8492,3.8623,3.8716,3.8903,3.9096,3.9272,3.9471,3.9422,3.9237,3.9149,4.704,4.6951,4.6981,4.6951,4.6951,4.6981,4.6951,4.6921,4.6751,4.6673,4.6614,4.6403,4.6313,4.6313,4.6313,4.6283,4.6283,4.6283,4.6283,4.6283,4.6283,4.6283,4.6283,4.6283,4.6253,4.6163,4.6132,4.6132,4.6029,4.5969,4.5878,4.5678,4.544,4.497,4.4268,4.3989,4.3408,4.2633,4.2134,4.1731,4.1389,4.0982,4.0647,4.042,4.0626,4.0582,4.0453,4.0712,4.0538,3.9823,3.9433,3.9217,3.9228,3.9228,3.9196,3.9228,3.9303,3.953,3.9715,3.9877,3.9953,3.9899,3.979,3.9583,3.955,3.9265,3.9078,3.9045,3.8956,3.8824,3.8626,3.8559,3.846,3.8248,3.8258,3.8214,3.8225,3.8225,3.8225,3.8225,3.8225,3.8225,3.8225,3.8225,3.8225,3.8225,3.8225,3.8225,3.8225,3.8225,3.8225,3.8225,3.8225,3.8225,3.8225,3.8225,3.8225,3.8225,3.8225,3.8225,3.8225,3.8225,3.8225,3.8225,3.8481,3.8665,3.8882,3.9037,3.9306,3.9637,3.9847,4.0013,4.0123,4.0061,4.0059,4.7543,4.7383,4.7265,4.7205,4.7205,4.7205,4.7205,4.7176,4.7053,4.6976,4.6917,4.6768,4.6601,4.6536,4.6536,4.6434,4.6313,4.6283,4.6283,4.6283,4.6283,4.6283,4.6283,4.6283,4.6283,4.6283,4.6283,4.6283,4.6283,4.6283,4.6193,4.5999,4.5878,4.5501,4.5031,4.4742,4.4311,4.3521,4.3083,4.2705,4.2241,4.1902,4.1667,4.1463,4.1635,4.1635,4.1646,4.171,4.1389,4.0787,4.0463,4.0366,4.0377,4.0377,4.0377,4.0377,4.0377,4.0474,4.0636,4.0766,4.0798,4.0712,4.0571,4.0528,4.0366,4.0051,3.9822,3.968,3.9528,3.9232,3.8979,3.8913,3.8824,3.8669,3.8503,3.837,3.8214,3.8225,3.8225,3.8225,3.8225,3.8225,3.8225,3.8225,3.8225,3.8225,3.8225,3.8225,3.8225,3.8225,3.8225,3.8225,3.8225,3.8225,3.8225,3.8225,3.8225,3.8225,3.8225,3.8225,3.8225,3.8225,3.8225,3.8274,3.8582,3.8858,3.9109,3.942,3.9889,4.0168,4.0344,4.0458,4.0562,4.0582,4.0611,4.8185,4.7867,4.7517,4.7383,4.7412,4.7353,4.7412,4.7324,4.7294,4.7265,4.7235,4.7205,4.6993,4.684,4.6823,4.6673,4.6373,4.6403,4.6343,4.6313,4.6283,4.6283,4.6283,4.6283,4.6283,4.6283,4.6283,4.6283,4.6283,4.6283,4.6283,4.6193,4.5969,4.5848,4.5605,4.5453,4.5012,4.4434,4.402,4.3615,4.3157,4.2799,4.2598,4.2483,4.2472,4.2673,4.2779,4.2716,4.2293,4.1678,4.1518,4.1454,4.1454,4.1465,4.1465,4.1433,4.1454,4.1454,4.155,4.1806,4.1838,4.1646,4.1763,4.1774,4.1454,4.1121,4.0798,4.0528,4.0116,3.9888,3.9538,3.9341,3.9243,3.9154,3.8946,3.8626,3.837,3.8248,3.8225,3.8225,3.8225,3.8225,3.8225,3.8225,3.8225,3.8225,3.8225,3.8225,3.8225,3.8225,3.8225,3.8225,3.8225,3.8225,3.8225,3.8225,3.8225,3.8225,3.8225,3.8225,3.8225,3.8225,3.8225,3.8336,3.8716,3.9078,3.9358,3.9761,4.0303,4.0551,4.068,4.0783,4.0841,4.0779,4.0811,4.9284,4.9156,4.8824,4.8563,4.8389,4.8373,4.8214,4.7967,4.7703,4.7602,4.7543,4.7324,4.7176,4.7116,4.71,4.6964,4.6703,4.6644,4.6554,4.6313,4.6283,4.6283,4.6283,4.6283,4.6283,4.6283,4.6283,4.6283,4.6283,4.6283,4.6283,4.6283,4.618,4.6059,4.5817,4.5757,4.5514,4.5104,4.4773,4.4515,4.4299,4.3958,4.3709,4.3521,4.349,4.3646,4.3896,4.3927,4.3802,4.3533,4.2968,4.2538,4.2475,4.2475,4.2475,4.2475,4.2486,4.257,4.2822,4.2905,4.2937,4.2822,4.2685,4.2538,4.2475,4.2177,4.1847,4.1571,4.1378,4.1013,4.0474,3.992,3.9757,3.9626,3.9374,3.9121,3.8934,3.8547,3.8314,3.8248,3.8214,3.8225,3.8225,3.8225,3.8225,3.8225,3.8225,3.8225,3.8225,3.8225,3.8225,3.8225,3.8225,3.8225,3.8225,3.8225,3.8225,3.8225,3.8225,3.8225,3.8225,3.8225,3.8225,3.8492,3.8937,3.9213,3.9451,4.0116,4.0613,4.0804,4.0908,4.0908,4.0908,4.0908,4.0908,5.0109,4.9982,4.9528,4.9269,4.9096,4.8952,4.8721,4.846,4.8243,4.8084,4.7938,4.772,4.7602,4.7442,4.7412,4.729,4.7006,4.684,4.6716,4.6536,4.6403,4.6283,4.6283,4.6283,4.6283,4.6283,4.6283,4.6283,4.6283,4.6283,4.6283,4.6283,4.6283,4.6223,4.6072,4.6029,4.5848,4.5574,4.5367,4.5214,4.5031,4.4878,4.4724,4.4539,4.4508,4.4589,4.4767,4.4755,4.4755,4.4631,4.4261,4.3795,4.3533,4.3502,4.3502,4.3502,4.3502,4.3565,4.374,4.3907,4.3927,4.3783,4.3709,4.3646,4.3471,4.3208,4.2862,4.2558,4.2304,4.1986,4.1346,4.1024,4.0658,4.0409,4.0149,3.9888,3.9637,3.9099,3.857,3.8503,3.846,3.8337,3.8281,3.8248,3.8225,3.8225,3.8225,3.8225,3.8225,3.8225,3.8225,3.8225,3.8225,3.8225,3.8225,3.8225,3.8225,3.8225,3.8225,3.8225,3.8225,3.8225,3.8225,3.8512,3.8812,3.9161,3.9482,4.0199,4.0686,4.082,4.0862,4.0908,4.0908,4.0908,4.0908,5.0962,5.0711,5.0095,4.984,4.9727,4.9427,4.9096,4.8879,4.8779,4.8548,4.8315,4.8286,4.8068,4.7821,4.7779,4.7573,4.7277,4.7006,4.687,4.684,4.6554,4.6464,4.6403,4.6343,4.6283,4.6283,4.6283,4.6283,4.6283,4.6283,4.6283,4.6283,4.6283,4.6283,4.6283,4.6283,4.612,4.5878,4.5848,4.5714,4.5544,4.5471,4.5453,4.541,4.53,4.5349,4.541,4.544,4.5453,4.5453,4.544,4.5123,4.4773,4.4453,4.4453,4.4422,4.4403,4.4434,4.4465,4.465,4.47,4.4465,4.4681,4.4712,4.4434,4.4187,4.3876,4.3533,4.3189,4.2759,4.2177,4.1922,4.1774,4.155,4.1217,4.0895,4.0517,3.9942,3.9571,3.8857,3.8648,3.8526,3.837,3.8271,3.8248,3.8225,3.8225,3.8225,3.8225,3.8225,3.8225,3.8225,3.8225,3.8225,3.8225,3.8225,3.8225,3.8225,3.8225,3.8225,3.8225,3.8225,3.8235,3.8305,3.8595,3.8944,3.9378,3.9916,4.0375,4.0675,4.0862,4.0908,4.0908,4.0908,4.0908,5.1964,5.1868,5.1266,5.0892,5.0614,5.0095,4.9712,4.9427,4.9183,4.8879,4.8648,4.8619,4.8431,4.8214,4.8127,4.7925,4.7602,4.732,4.7129,4.7083,4.6827,4.6703,4.6626,4.6464,4.6343,4.6283,4.6283,4.6283,4.6283,4.6283,4.6283,4.6283,4.6283,4.6283,4.6283,4.6283,4.6283,4.6163,4.6163,4.6102,4.6029,4.6029,4.6029,4.5999,4.5817,4.586,4.6029,4.6102,4.6132,4.612,4.612,4.6029,4.5775,4.5379,4.5166,4.5135,4.5135,4.5123,4.5166,4.5166,4.5196,4.5166,4.5227,4.5227,4.5135,4.5043,4.4755,4.4434,4.4001,4.3565,4.3471,4.3031,4.2696,4.2463,4.2241,4.1911,4.1603,4.125,4.0636,3.967,3.9177,3.8681,3.8516,3.836,3.8304,3.8248,3.8225,3.8225,3.8225,3.8225,3.8225,3.8225,3.8225,3.8225,3.8225,3.8225,3.8225,3.8225,3.8225,3.8225,3.8225,3.8225,3.8233,3.8285,3.845,3.8747,3.9213,3.9657,4.004,4.0361,4.0624,4.0877,4.0908,4.0908,4.0908,5.2919,5.2625,5.2139,5.1827,5.1472,5.0934,5.0516,5.0235,4.9797,4.9427,4.9183,4.8995,4.8837,4.865,4.8518,4.8286,4.7938,4.7602,4.7471,4.7396,4.7142,4.6917,4.6836,4.6614,4.6451,4.6343,4.6283,4.6313,4.6283,4.6283,4.6283,4.6283,4.6283,4.6283,4.6283,4.6283,4.6283,4.6283,4.6283,4.6283,4.6283,4.6283,4.6283,4.6253,4.615,4.6163,4.6253,4.6283,4.6283,4.6283,4.6283,4.6283,4.6193,4.6042,4.583,4.5787,4.5787,4.5787,4.583,4.583,4.5817,4.5817,4.5787,4.5817,4.5757,4.5635,4.541,4.5074,4.4878,4.4508,4.4299,4.397,4.3783,4.3565,4.3283,4.2968,4.261,4.2293,4.1495,4.0571,4.0095,3.9506,3.8671,3.8516,3.836,3.8271,3.8248,3.8214,3.8248,3.8225,3.8225,3.8225,3.8225,3.8225,3.8225,3.8225,3.8225,3.8225,3.8225,3.8225,3.8225,3.8225,3.8225,3.8245,3.8429,3.8582,3.8841,3.9223,3.9647,4.0061,4.0344,4.0572,4.0779,4.0908,4.0908,5.3722,5.3328,5.2996,5.2718,5.2383,5.1814,5.1362,5.1017,5.0516,5.0095,4.9769,4.9455,4.9269,4.9125,4.8837,4.8518,4.8286,4.7967,4.7821,4.7733,4.7455,4.7172,4.7049,4.6883,4.6721,4.6494,4.6434,4.6373,4.6313,4.6283,4.6283,4.6283,4.6283,4.6283,4.6283,4.6283,4.6283,4.6283,4.6283,4.6283,4.6283,4.6283,4.6283,4.6283,4.6283,4.6283,4.6283,4.6283,4.6283,4.6283,4.6283,4.6283,4.6283,4.6283,4.6283,4.6283,4.6283,4.6283,4.6283,4.6253,4.6193,4.6193,4.6253,4.6283,4.6223,4.6012,4.5787,4.5544,4.5392,4.5257,4.5019,4.4927,4.4742,4.4527,4.4249,4.3958,4.3584,4.3177,4.2716,4.189,4.1196,4.0388,3.956,3.8847,3.8725,3.8592,3.8536,3.8404,3.8404,3.8248,3.8225,3.8225,3.8225,3.8225,3.8225,3.8225,3.8225,3.8225,3.8225,3.8225,3.8225,3.8225,3.8225,3.8225,3.8245,3.8398,3.8582,3.8841,3.9306,3.9709,4.0009,4.0386,4.0727,4.0908,4.0908,5.4226,5.4149,5.3878,5.3591,5.3263,5.2691,5.2153,5.1705,5.1321,5.085,5.0404,5.0025,4.9783,4.9442,4.8981,4.8735,4.8548,4.8373,4.8185,4.8098,4.785,4.7645,4.7527,4.7265,4.6993,4.678,4.6733,4.6554,4.6403,4.6343,4.6283,4.6283,4.6283,4.6283,4.6283,4.6283,4.6283,4.6283,4.6283,4.6283,4.6283,4.6283,4.6283,4.6283,4.6283,4.6283,4.6283,4.6283,4.6283,4.6283,4.6283,4.6283,4.6283,4.6283,4.6283,4.6283,4.6283,4.6283,4.6283,4.6283,4.6283,4.6283,4.6283,4.6283,4.6283,4.6253,4.6163,4.6223,4.5921,4.5726,4.5593,4.541,4.5257,4.5166,4.5043,4.4878,4.4589,4.3989,4.3521,4.302,4.2229,4.1357,4.0485,3.9735,3.9121,3.8989,3.8857,3.8714,3.8559,3.8437,3.8225,3.8225,3.8225,3.8225,3.8225,3.8225,3.8225,3.8225,3.8225,3.8225,3.8225,3.8225,3.8225,3.8225,3.8225,3.8225,3.8357,3.8634,3.9027,3.942,3.9813,4.0313,4.0825,4.0887,4.0908,5.4718,5.4579,5.4466,5.4245,5.3878,5.3354,5.2998,5.2678,5.2086,5.1595,5.1224,5.0864,5.0404,4.9868,4.9512,4.924,4.8952,4.8766,4.8592,4.8489,4.8273,4.8068,4.7733,4.7543,4.7349,4.7083,4.6993,4.6857,4.6631,4.6403,4.6283,4.6283,4.6283,4.6283,4.6283,4.6283,4.6283,4.6283,4.6283,4.6283,4.6283,4.6283,4.6283,4.6283,4.6283,4.6283,4.6283,4.6283,4.6283,4.6283,4.6283,4.6283,4.6283,4.6283,4.6283,4.6283,4.6283,4.6283,4.6283,4.6283,4.6283,4.6283,4.6283,4.6283,4.6283,4.6283,4.6283,4.6283,4.618,4.609,4.6059,4.5981,4.5908,4.5817,4.5666,4.5544,4.5276,4.4835,4.4299,4.3802,4.3302,4.2451,4.1582,4.0744,4.0018,3.9593,3.9341,3.9045,3.888,3.8725,3.847,3.8225,3.8225,3.8225,3.8225,3.8225,3.8225,3.8225,3.8225,3.8225,3.8225,3.8225,3.8225,3.8225,3.8225,3.8225,3.8212,3.8429,3.8778,3.9213,3.9657,4.021,4.0706,4.0897,4.0908,5.5067,5.4905,5.4905,5.4722,5.441,5.3985,5.3725,5.35,5.2919,5.2437,5.2059,5.1609,5.0975,5.039,5.0151,4.9825,4.9354,4.9269,4.9039,4.8866,4.8663,4.8402,4.8127,4.7909,4.7661,4.7337,4.7337,4.7159,4.6874,4.6691,4.6511,4.6313,4.6283,4.6283,4.6283,4.6283,4.6283,4.6283,4.6283,4.6283,4.6283,4.6283,4.6283,4.6283,4.6283,4.6283,4.6283,4.6283,4.6283,4.6283,4.6283,4.6283,4.6283,4.6283,4.6283,4.6283,4.6283,4.6283,4.6283,4.6283,4.6283,4.6283,4.6283,4.6283,4.6283,4.6283,4.6283,4.6283,4.6283,4.6283,4.6283,4.6283,4.6223,4.612,4.6029,4.5969,4.5848,4.5367,4.5049,4.4742,4.4249,4.3678,4.2799,4.1827,4.1045,4.0355,3.9877,3.9506,3.921,3.9012,3.8692,3.8404,3.8248,3.8248,3.8225,3.8225,3.8225,3.8225,3.8225,3.8225,3.8225,3.8225,3.8225,3.8225,3.8256,3.8326,3.8429,3.8481,3.8585,3.9171,3.974,4.0189,4.0562,4.0758,4.0908,5.5194,5.5169,5.5169,5.4991,5.4747,5.4737,5.4388,5.3904,5.38,5.3422,5.2839,5.2194,5.1609,5.1169,5.0739,5.0348,4.9953,4.9683,4.9427,4.9125,4.885,4.8764,4.8548,4.8302,4.8055,4.7779,4.7749,4.7543,4.7235,4.7159,4.6785,4.6403,4.6403,4.6343,4.6283,4.6283,4.6283,4.6283,4.6283,4.6283,4.6283,4.6283,4.6283,4.6283,4.6283,4.6283,4.6283,4.6283,4.6283,4.6283,4.6283,4.6283,4.6283,4.6283,4.6283,4.6283,4.6283,4.6283,4.6283,4.6283,4.6283,4.6283,4.6283,4.6283,4.6283,4.6283,4.6283,4.6283,4.6283,4.6283,4.6283,4.6283,4.6283,4.6253,4.618,4.618,4.6059,4.5908,4.5623,4.5562,4.5153,4.4527,4.4082,4.3102,4.2145,4.1463,4.0669,4.0225,3.9538,3.9243,3.8913,3.8626,3.837,3.8281,3.8214,3.8225,3.8225,3.8225,3.8225,3.8225,3.8225,3.8225,3.8225,3.8326,3.8398,3.8489,3.8675,3.8903,3.9151,3.944,3.9833,4.0272,4.0582,4.08,4.0908,5.5219,5.5219,5.5219,5.5143,5.5017,5.4879,5.466,5.4425,5.4241,5.3852,5.3357,5.2812,5.2329,5.1868,5.1486,5.1128,5.0795,5.0516,5.0123,4.9769,4.9541,4.9297,4.9068,4.8866,4.8692,4.8534,4.8389,4.8156,4.785,4.769,4.7277,4.6934,4.678,4.6464,4.6373,4.6313,4.6283,4.6283,4.6283,4.6283,4.6283,4.6283,4.6283,4.6283,4.6283,4.6283,4.6283,4.6283,4.6283,4.6283,4.6283,4.6283,4.6283,4.6283,4.6283,4.6283,4.6283,4.6283,4.6283,4.6283,4.6283,4.6283,4.6283,4.6283,4.6283,4.6283,4.6283,4.6283,4.6283,4.6283,4.6283,4.6283,4.6283,4.6283,4.6283,4.6283,4.6223,4.609,4.5969,4.5805,4.5623,4.5276,4.4865,4.4453,4.3502,4.2558,4.1731,4.0938,4.0257,3.9615,3.9308,3.8913,3.8659,3.837,3.8314,3.8248,3.8214,3.8225,3.8225,3.8266,3.8253,3.8191,3.8233,3.8388,3.8623,3.8841,3.912,3.9461,3.9699,3.9844,4.004,4.0344,4.0613,4.0887,4.0908,5.5219,5.5219,5.5219,5.5219,5.5194,5.4991,5.4915,5.489,5.4667,5.4333,5.3855,5.35,5.3078,5.2625,5.2302,5.1923,5.1623,5.1321,5.0892,5.0558,5.0263,4.9967,4.9655,4.9427,4.9341,4.9297,4.9096,4.8795,4.8637,4.8289,4.7997,4.7703,4.7409,4.7108,4.6524,4.6343,4.6313,4.6283,4.6283,4.6283,4.6283,4.6283,4.6283,4.6283,4.6283,4.6283,4.6283,4.6283,4.6283,4.6283,4.6283,4.6283,4.6283,4.6283,4.6283,4.6283,4.6283,4.6283,4.6283,4.6283,4.6283,4.6283,4.6283,4.6283,4.6283,4.6283,4.6283,4.6283,4.6283,4.6283,4.6283,4.6283,4.6283,4.6283,4.6283,4.6283,4.6283,4.6223,4.612,4.5999,4.5878,4.5775,4.544,4.5,4.4156,4.3189,4.2273,4.1571,4.0992,4.0388,3.9877,3.9407,3.8946,3.8659,3.8404,3.8304,3.8248,3.8225,3.8256,3.8336,3.8357,3.8336,3.8543,3.8861,3.9109,3.9275,3.9523,3.9833,4.0009,4.0133,4.034,4.0572,4.0665,4.0908,4.0908,5.5219,5.5219,5.5219,5.5219,5.5219,5.5194,5.5169,5.5143,5.5103,5.4926,5.4583,5.4101,5.3722,5.3422,5.3117,5.2744,5.2383,5.2194,5.1827,5.1334,5.1045,5.0739,5.0488,5.025,5.0123,4.9953,4.9755,4.9613,4.9499,4.9156,4.8839,4.8595,4.8376,4.7863,4.6883,4.6494,4.6343,4.6313,4.6373,4.6343,4.6343,4.6343,4.6283,4.6283,4.6283,4.6283,4.6283,4.6283,4.6283,4.6283,4.6283,4.6283,4.6283,4.6283,4.6283,4.6283,4.6283,4.6283,4.6283,4.6283,4.6283,4.6283,4.6283,4.6283,4.6283,4.6283,4.6283,4.6283,4.6283,4.6283,4.6283,4.6283,4.6283,4.6283,4.6283,4.6283,4.6283,4.6283,4.6193,4.615,4.618,4.615,4.5817,4.5379,4.4631,4.3752,4.2831,4.2198,4.1763,4.1217,4.068,3.9997,3.9473,3.9045,3.8758,3.8404,3.8248,3.8225,3.8316,3.8512,3.8665,3.8778,3.9037,3.9389,3.9554,3.9678,3.9926,4.0195,4.0309,4.0468,4.0644,4.081,4.0897,4.0908,4.0908,5.5219,5.5219,5.5219,5.5219,5.5219,5.5219,5.5219,5.5219,5.5194,5.5042,5.4828,5.4557,5.4322,5.4034,5.3789,5.35,5.3302,5.2865,5.2503,5.218,5.1896,5.1623,5.1376,5.1197,5.1059,5.0837,5.06,5.0348,5.0179,4.9925,4.9698,4.9486,4.9171,4.8363,4.7586,4.7083,4.6891,4.6874,4.6768,4.6644,4.6614,4.6434,4.6313,4.6313,4.6313,4.6283,4.6283,4.6283,4.6283,4.6283,4.6283,4.6283,4.6283,4.6283,4.6283,4.6283,4.6283,4.6283,4.6283,4.6283,4.6283,4.6283,4.6283,4.6283,4.6283,4.6283,4.6283,4.6283,4.6283,4.6283,4.6283,4.6283,4.6283,4.6283,4.6283,4.6283,4.6283,4.6283,4.6253,4.6253,4.6283,4.6283,4.6059,4.5848,4.5214,4.4816,4.4032,4.3302,4.2799,4.2166,4.1571,4.0777,4.0127,3.9604,3.9165,3.8875,3.8766,3.8804,3.8802,3.8841,3.9016,3.9233,3.9523,3.9864,3.9968,4.0081,4.0309,4.0541,4.0634,4.0768,4.0877,4.0908,4.0908,4.0908,4.0908,5.5219,5.5219,5.5219,5.5219,5.5219,5.5219,5.5219,5.5219,5.5194,5.5093,5.4966,5.4941,5.4747,5.4476,5.4322,5.4101,5.4019,5.3722,5.3381,5.3064,5.2785,5.2518,5.2302,5.2167,5.195,5.1732,5.1486,5.1238,5.1128,5.0781,5.067,5.0502,5.0011,4.9558,4.88,4.8233,4.7455,4.7366,4.7214,4.7078,4.69,4.6691,4.6494,4.6464,4.6403,4.6283,4.6283,4.6313,4.6313,4.6313,4.6313,4.6313,4.6313,4.6313,4.6313,4.6283,4.6283,4.6283,4.6283,4.6283,4.6283,4.6283,4.6283,4.6283,4.6283,4.6283,4.6283,4.6283,4.6283,4.6283,4.6283,4.6283,4.6283,4.6283,4.6283,4.6283,4.6283,4.6283,4.6283,4.6283,4.6283,4.6283,4.6283,4.615,4.5805,4.5562,4.5288,4.4527,4.3783,4.3051,4.2388,4.1623,4.0841,4.0236,3.9777,3.9432,3.9346,3.9376,3.9404,3.936,3.9513,3.9751,4.004,4.0323,4.0406,4.052,4.0706,4.0887,4.082,4.082,4.0887,4.0908,4.0908,4.0908,4.0908,5.5219,5.5219,5.5219,5.5219,5.5219,5.5219,5.5219,5.5219,5.5219,5.5179,5.5194,5.5154,5.5017,5.4854,5.4788,5.463,5.4396,5.4293,5.4112,5.3878,5.3553,5.3328,5.3117,5.2904,5.2812,5.2666,5.2478,5.2302,5.2208,5.1882,5.1773,5.1623,5.1114,5.0767,5.0208,4.9472,4.8524,4.8188,4.7909,4.7733,4.7484,4.7066,4.693,4.681,4.6661,4.6511,4.6481,4.6468,4.6421,4.6421,4.6391,4.6361,4.6361,4.6343,4.6343,4.6313,4.6343,4.6283,4.6283,4.6283,4.6283,4.6283,4.6283,4.6283,4.6283,4.6283,4.6283,4.6283,4.6283,4.6283,4.6283,4.6283,4.6283,4.6283,4.6283,4.6283,4.6283,4.6283,4.6283,4.6283,4.6283,4.6283,4.6283,4.6223,4.615,4.6029,4.5726,4.5318,4.4558,4.3783,4.3114,4.2483,4.1699,4.0907,4.0498,4.0255,4.0253,4.0417,4.0096,4.0062,4.0201,4.0286,4.0417,4.0603,4.0768,4.0908,4.0908,4.0908,4.0908,4.0908,4.0908,4.0908,4.0908,4.0908,4.0908,5.5219,5.5219,5.5219,5.5219,5.5219,5.5219,5.5219,5.5219,5.5219,5.5219,5.5219,5.5219,5.5143,5.5108,5.5078,5.5002,5.49,5.4773,5.4645,5.444,5.4178,5.406,5.3916,5.3785,5.3696,5.3553,5.3395,5.3237,5.3078,5.2865,5.2598,5.237,5.2072,5.1896,5.1609,5.1086,5.0124,4.9301,4.8941,4.8537,4.8146,4.7733,4.7556,4.7392,4.7155,4.6993,4.6951,4.6951,4.6921,4.6951,4.6951,4.6951,4.6951,4.6921,4.6904,4.6644,4.6464,4.6283,4.6283,4.6283,4.6283,4.6283,4.6283,4.6283,4.6283,4.6283,4.6283,4.6283,4.6283,4.6283,4.6283,4.6283,4.6283,4.6283,4.6283,4.6283,4.6283,4.6283,4.6283,4.6283,4.6283,4.6283,4.6283,4.6283,4.6223,4.6253,4.6132,4.5787,4.5349,4.457,4.3845,4.3208,4.2728,4.1999,4.1611,4.1353,4.1403,4.1388,4.1089,4.0814,4.085,4.0892,4.0854,4.0846,4.0897,4.0908,4.0908,4.0908,4.0908,4.0908,4.0908,4.0908,4.0908,4.0908,4.0908,5.5219,5.5219,5.5219,5.5219,5.5219,5.5219,5.5219,5.5219,5.5219,5.5219,5.5219,5.5219,5.5219,5.5194,5.5194,5.5169,5.5143,5.5017,5.4941,5.4849,5.4645,5.4528,5.4487,5.437,5.4164,5.4112,5.406,5.389,5.3774,5.3669,5.346,5.3369,5.3011,5.2919,5.2744,5.2369,5.1759,5.0906,5.0208,4.9656,4.9114,4.8624,4.8363,4.8175,4.7854,4.7677,4.7632,4.7619,4.7589,4.7602,4.7602,4.7602,4.7543,4.7484,4.7235,4.6976,4.6703,4.6554,4.6524,4.6343,4.6313,4.6283,4.6283,4.6283,4.6283,4.6283,4.6283,4.6283,4.6283,4.6283,4.6283,4.6283,4.6283,4.6283,4.6283,4.6283,4.6283,4.6283,4.6283,4.6283,4.6283,4.6283,4.6283,4.6283,4.6283,4.6283,4.6283,4.6163,4.5848,4.5379,4.4619,4.3927,4.3581,4.3136,4.2824,4.2544,4.2471,4.2405,4.2126,4.1898,4.1704,4.1356,4.1136,4.0994,4.0908,4.0908,4.0908,4.0908,4.0908,4.0908,4.0908,4.0908,4.0908,4.0908,4.0908,5.5219,5.5219,5.5219,5.5219,5.5219,5.5219,5.5219,5.5219,5.5219,5.5219,5.5219,5.5219,5.5219,5.5219,5.5219,5.5219,5.5194,5.5143,5.5118,5.5194,5.4941,5.4839,5.4747,5.4539,5.4524,5.4432,5.4396,5.4396,5.4344,5.4241,5.4189,5.4278,5.3982,5.3748,5.3629,5.3381,5.2863,5.2394,5.1635,5.1017,5.025,4.9656,4.9244,4.9158,4.8784,4.8421,4.8376,4.8347,4.8318,4.836,4.836,4.8392,4.826,4.8071,4.7736,4.7366,4.7108,4.684,4.6703,4.6524,4.6373,4.6343,4.6283,4.6283,4.6283,4.6283,4.6283,4.6283,4.6283,4.6283,4.6283,4.6283,4.6283,4.6283,4.6283,4.6283,4.6283,4.6283,4.6283,4.6283,4.6283,4.6283,4.6283,4.6283,4.6283,4.6283,4.6283,4.6283,4.6238,4.5953,4.5564,4.4801,4.4477,4.4278,4.4216,4.3912,4.3579,4.3372,4.311,4.2626,4.2219,4.1792,4.1366,4.1142,4.0908,4.0908,4.0908,4.0908,4.0908,4.0908,4.0908,4.0908,4.0908,4.0908,4.0908,5.5219,5.5219,5.5219,5.5219,5.5219,5.5219,5.5219,5.5219,5.5219,5.5219,5.5219,5.5219,5.5219,5.5219,5.5219,5.5219,5.5219,5.5219,5.5219,5.5194,5.5093,5.5042,5.5093,5.4951,5.4896,5.4962,5.4951,5.4824,5.4722,5.463,5.4539,5.4315,5.4226,5.4267,5.4252,5.3982,5.38,5.3512,5.3129,5.2355,5.1513,5.1045,5.0684,5.0419,5.0054,4.9728,4.9656,4.9585,4.9571,4.9585,4.9556,4.9471,4.927,4.8941,4.8508,4.8026,4.7716,4.7362,4.7032,4.6793,4.6631,4.6403,4.6313,4.6313,4.6283,4.6283,4.6283,4.6283,4.6283,4.6283,4.6283,4.6283,4.6283,4.6283,4.6283,4.6283,4.6283,4.6283,4.6283,4.6283,4.6283,4.6283,4.6283,4.6283,4.6283,4.6283,4.6283,4.6333,4.6509,4.6445,4.6654,4.605,4.5547,4.5376,4.5355,4.5263,4.4916,4.4403,4.4025,4.3469,4.2767,4.2039,4.1402,4.1107,4.0908,4.0908,4.0908,4.0908,4.0908,4.0908,4.0908,4.0908,4.0908,4.0908,4.0908,5.5219,5.5219,5.5219,5.5219,5.5219,5.5219,5.5219,5.5219,5.5219,5.5219,5.5219,5.5219,5.5219,5.5179,5.5219,5.5219,5.5219,5.5219,5.5219,5.5219,5.5219,5.5194,5.5219,5.5219,5.5169,5.5194,5.5194,5.5093,5.4981,5.4966,5.4834,5.4677,5.4692,5.4667,5.4667,5.459,5.4462,5.4296,5.4164,5.3629,5.2757,5.2287,5.1881,5.1581,5.1265,5.0989,5.0892,5.0823,5.0795,5.0781,5.0809,5.0502,5.0278,4.9996,4.9514,4.8983,4.8492,4.8055,4.7599,4.7257,4.6989,4.6733,4.6536,4.6566,4.6313,4.6283,4.6283,4.6283,4.6283,4.6283,4.6283,4.6283,4.6283,4.6283,4.6283,4.6283,4.6283,4.6283,4.6283,4.6283,4.6283,4.6283,4.6283,4.6283,4.6283,4.6283,4.6283,4.6522,4.6672,4.7011,4.7214,4.7334,4.6834,4.6502,4.6428,4.635,4.6221,4.5649,4.5005,4.4056,4.3176,4.217,4.1402,4.1213,4.1025,4.0908,4.0908,4.0908,4.0908,4.0908,4.0908,4.0908,4.0908,4.0908,4.0908,5.5219,5.5219,5.5219,5.5219,5.5219,5.5219,5.5119,5.5044,5.5044,5.497,5.4845,5.4845,5.4985,5.5164,5.5219,5.5219,5.5219,5.5219,5.5219,5.5219,5.5219,5.5219,5.5219,5.5219,5.5219,5.5219,5.5194,5.5194,5.5169,5.5143,5.5143,5.5194,5.5219,5.5194,5.5118,5.4991,5.4813,5.4722,5.459,5.4458,5.3927,5.3404,5.2955,5.2596,5.2342,5.2086,5.2032,5.2004,5.2004,5.2004,5.1977,5.1663,5.1348,5.11,5.0516,4.9982,4.9543,4.8999,4.8434,4.7967,4.751,4.7121,4.6955,4.6686,4.6434,4.6313,4.6313,4.6283,4.6283,4.6283,4.6283,4.6283,4.6283,4.6283,4.6283,4.6283,4.6283,4.6283,4.6283,4.6283,4.6283,4.6283,4.6283,4.6283,4.6296,4.6296,4.6459,4.671,4.7023,4.7518,4.787,4.8159,4.8106,4.7819,4.7576,4.7433,4.7332,4.6603,4.5855,4.4709,4.3617,4.2721,4.1958,4.1437,4.1249,4.1096,4.0943,4.0908,4.0908,4.0908,4.0908,4.0908,4.0908,4.0908,4.0908,5.5219,5.5219,5.5219,5.5179,5.5189,5.5189,5.4895,5.4446,5.4386,5.4102,5.3797,5.3737,5.4097,5.5204,5.5219,5.5174,5.5029,5.5089,5.5189,5.5219,5.5219,5.5219,5.5219,5.5219,5.5219,5.5219,5.5219,5.5219,5.5219,5.5219,5.5219,5.5219,5.5219,5.5219,5.5194,5.5093,5.5067,5.5002,5.5027,5.4911,5.4794,5.4344,5.3942,5.3681,5.3565,5.3354,5.3263,5.3198,5.3184,5.3184,5.3119,5.2759,5.2476,5.2166,5.1622,5.0975,5.0544,4.9954,4.9358,4.8768,4.823,4.7569,4.7316,4.6853,4.6614,4.6373,4.6343,4.6313,4.6283,4.6283,4.6283,4.6283,4.6283,4.6283,4.6283,4.6283,4.6283,4.6283,4.6283,4.6283,4.6283,4.6283,4.6283,4.6296,4.6333,4.6434,4.6722,4.6986,4.7393,4.792,4.846,4.8767,4.9055,4.9082,4.8826,4.8512,4.8273,4.7573,4.664,4.5414,4.4297,4.3374,4.2651,4.2029,4.1544,4.1285,4.1132,4.0989,4.0908,4.0908,4.0908,4.0908,4.0908,4.0908,4.0908]}]]